<?xml version="1.0" encoding="UTF-8" standalone="no" ?>
<gpx xmlns="http://www.topografix.com/GPX/1/1" xmlns:xsi="http://www.w3.org/2001/XMLSchema-instance" xsi:schemaLocation="http://www.topografix.com/GPX/1/1 http://www.topografix.com/GPX/1/1/gpx.xsd" version="1.1" creator="VisuGPX - https://www.visugpx.com">
  <metadata>
    <name>Sillans 14km 300m</name>
    <desc><![CDATA[Petite randonnée sur Sillans-la-Cascade. Beaucoup de sous-bois. Sans difficulté.]]></desc>
  </metadata>
  <trk>
    <name><![CDATA[Sillans la Cascade V2 ]]></name>
    <extensions>
      <line xmlns="http://www.topografix.com/GPX/gpx_style/0/2">
        <color>ff0000</color>
        <opacity>1</opacity>
        <width>5</width>
      </line>
    </extensions>
    <trkseg>
      <trkpt lat="43.56766" lon="6.15387">
        <ele>398.1</ele>
        <time>2023-05-22T06:43:16Z</time>
      </trkpt>
      <trkpt lat="43.56763" lon="6.15379">
        <ele>398</ele>
      </trkpt>
      <trkpt lat="43.56761" lon="6.15371">
        <ele>397.8</ele>
        <time>2023-05-22T06:43:27Z</time>
      </trkpt>
      <trkpt lat="43.56758" lon="6.15365">
        <ele>397.6</ele>
      </trkpt>
      <trkpt lat="43.56755" lon="6.1536">
        <ele>397.3</ele>
        <time>2023-05-22T06:43:38Z</time>
      </trkpt>
      <trkpt lat="43.56754" lon="6.15352">
        <ele>397.3</ele>
      </trkpt>
      <trkpt lat="43.56754" lon="6.15343">
        <ele>397.3</ele>
        <time>2023-05-22T06:43:49Z</time>
      </trkpt>
      <trkpt lat="43.56755" lon="6.15334">
        <ele>397.4</ele>
      </trkpt>
      <trkpt lat="43.56756" lon="6.15325">
        <ele>397.4</ele>
        <time>2023-05-22T06:44:03Z</time>
      </trkpt>
      <trkpt lat="43.56756" lon="6.15312">
        <ele>397.4</ele>
        <time>2023-05-22T06:44:14Z</time>
      </trkpt>
      <trkpt lat="43.56756" lon="6.15303">
        <ele>397.4</ele>
      </trkpt>
      <trkpt lat="43.56756" lon="6.15293">
        <ele>397.3</ele>
        <time>2023-05-22T06:44:23Z</time>
      </trkpt>
      <trkpt lat="43.56756" lon="6.15286">
        <ele>397.3</ele>
      </trkpt>
      <trkpt lat="43.56756" lon="6.15279">
        <ele>397.2</ele>
        <time>2023-05-22T06:44:32Z</time>
      </trkpt>
      <trkpt lat="43.56756" lon="6.15271">
        <ele>397.2</ele>
      </trkpt>
      <trkpt lat="43.56755" lon="6.15264">
        <ele>397.1</ele>
        <time>2023-05-22T06:44:41Z</time>
      </trkpt>
      <trkpt lat="43.56754" lon="6.15255">
        <ele>397</ele>
      </trkpt>
      <trkpt lat="43.56754" lon="6.15245">
        <ele>397</ele>
        <time>2023-05-22T06:44:50Z</time>
      </trkpt>
      <trkpt lat="43.56755" lon="6.15236">
        <ele>397.1</ele>
        <time>2023-05-22T06:44:58Z</time>
      </trkpt>
      <trkpt lat="43.56754" lon="6.15224">
        <ele>397.1</ele>
        <time>2023-05-22T06:45:06Z</time>
      </trkpt>
      <trkpt lat="43.56754" lon="6.15218">
        <ele>397.2</ele>
      </trkpt>
      <trkpt lat="43.56755" lon="6.15212">
        <ele>397.2</ele>
        <time>2023-05-22T06:45:15Z</time>
      </trkpt>
      <trkpt lat="43.56755" lon="6.15204">
        <ele>397.2</ele>
      </trkpt>
      <trkpt lat="43.56755" lon="6.15197">
        <ele>397.2</ele>
        <time>2023-05-22T06:45:24Z</time>
      </trkpt>
      <trkpt lat="43.56755" lon="6.1519">
        <ele>397.3</ele>
      </trkpt>
      <trkpt lat="43.56756" lon="6.15183">
        <ele>397.5</ele>
        <time>2023-05-22T06:45:34Z</time>
      </trkpt>
      <trkpt lat="43.56756" lon="6.15173">
        <ele>397.8</ele>
      </trkpt>
      <trkpt lat="43.56755" lon="6.15164">
        <ele>398</ele>
        <time>2023-05-22T06:45:43Z</time>
      </trkpt>
      <trkpt lat="43.56755" lon="6.15156">
        <ele>398.1</ele>
      </trkpt>
      <trkpt lat="43.56755" lon="6.15148">
        <ele>398.1</ele>
        <time>2023-05-22T06:45:53Z</time>
      </trkpt>
      <trkpt lat="43.56756" lon="6.15141">
        <ele>398.2</ele>
      </trkpt>
      <trkpt lat="43.56756" lon="6.15134">
        <ele>398.2</ele>
        <time>2023-05-22T06:46:01Z</time>
      </trkpt>
      <trkpt lat="43.56756" lon="6.15123">
        <ele>398.2</ele>
      </trkpt>
      <trkpt lat="43.56757" lon="6.15117">
        <ele>398.2</ele>
        <time>2023-05-22T06:46:10Z</time>
      </trkpt>
      <trkpt lat="43.56756" lon="6.1511">
        <ele>398.2</ele>
      </trkpt>
      <trkpt lat="43.56755" lon="6.15102">
        <ele>398.3</ele>
        <time>2023-05-22T06:46:22Z</time>
      </trkpt>
      <trkpt lat="43.56756" lon="6.15093">
        <ele>398.5</ele>
      </trkpt>
      <trkpt lat="43.56756" lon="6.15084">
        <ele>398.7</ele>
        <time>2023-05-22T06:46:32Z</time>
      </trkpt>
      <trkpt lat="43.56756" lon="6.15076">
        <ele>399</ele>
      </trkpt>
      <trkpt lat="43.56756" lon="6.15068">
        <ele>399.4</ele>
        <time>2023-05-22T06:46:41Z</time>
      </trkpt>
      <trkpt lat="43.56756" lon="6.1506">
        <ele>399.8</ele>
      </trkpt>
      <trkpt lat="43.56756" lon="6.15053">
        <ele>400.2</ele>
        <time>2023-05-22T06:46:50Z</time>
      </trkpt>
      <trkpt lat="43.56756" lon="6.15045">
        <ele>400.6</ele>
      </trkpt>
      <trkpt lat="43.56756" lon="6.15038">
        <ele>401</ele>
        <time>2023-05-22T06:46:59Z</time>
      </trkpt>
      <trkpt lat="43.56756" lon="6.15031">
        <ele>401.3</ele>
      </trkpt>
      <trkpt lat="43.56756" lon="6.15025">
        <ele>401.3</ele>
        <time>2023-05-22T06:47:07Z</time>
      </trkpt>
      <trkpt lat="43.56758" lon="6.15018">
        <ele>401.1</ele>
      </trkpt>
      <trkpt lat="43.56759" lon="6.15012">
        <ele>400.9</ele>
        <time>2023-05-22T06:47:17Z</time>
      </trkpt>
      <trkpt lat="43.56759" lon="6.15004">
        <ele>400.5</ele>
      </trkpt>
      <trkpt lat="43.56759" lon="6.14995">
        <ele>400.3</ele>
        <time>2023-05-22T06:47:26Z</time>
      </trkpt>
      <trkpt lat="43.5676" lon="6.14988">
        <ele>400.3</ele>
      </trkpt>
      <trkpt lat="43.5676" lon="6.14981">
        <ele>400.4</ele>
        <time>2023-05-22T06:47:35Z</time>
      </trkpt>
      <trkpt lat="43.56759" lon="6.14972">
        <ele>400.3</ele>
      </trkpt>
      <trkpt lat="43.56758" lon="6.14962">
        <ele>400.3</ele>
        <time>2023-05-22T06:47:44Z</time>
      </trkpt>
      <trkpt lat="43.56759" lon="6.14954">
        <ele>400.3</ele>
      </trkpt>
      <trkpt lat="43.56759" lon="6.14947">
        <ele>400.3</ele>
        <time>2023-05-22T06:47:53Z</time>
      </trkpt>
      <trkpt lat="43.5676" lon="6.14935">
        <ele>400.4</ele>
        <time>2023-05-22T06:48:02Z</time>
      </trkpt>
      <trkpt lat="43.5676" lon="6.14922">
        <ele>400.4</ele>
        <time>2023-05-22T06:48:11Z</time>
      </trkpt>
      <trkpt lat="43.5676" lon="6.14913">
        <ele>400.4</ele>
      </trkpt>
      <trkpt lat="43.56759" lon="6.14905">
        <ele>400.5</ele>
        <time>2023-05-22T06:48:20Z</time>
      </trkpt>
      <trkpt lat="43.5676" lon="6.14896">
        <ele>400.6</ele>
      </trkpt>
      <trkpt lat="43.5676" lon="6.14888">
        <ele>400.8</ele>
        <time>2023-05-22T06:48:29Z</time>
      </trkpt>
      <trkpt lat="43.5676" lon="6.14879">
        <ele>400.8</ele>
      </trkpt>
      <trkpt lat="43.56759" lon="6.1487">
        <ele>400.9</ele>
        <time>2023-05-22T06:48:37Z</time>
      </trkpt>
      <trkpt lat="43.5676" lon="6.14863">
        <ele>401</ele>
      </trkpt>
      <trkpt lat="43.5676" lon="6.14856">
        <ele>401.2</ele>
        <time>2023-05-22T06:48:46Z</time>
      </trkpt>
      <trkpt lat="43.56761" lon="6.14844">
        <ele>401.4</ele>
        <time>2023-05-22T06:48:55Z</time>
      </trkpt>
      <trkpt lat="43.5676" lon="6.14836">
        <ele>401.5</ele>
      </trkpt>
      <trkpt lat="43.5676" lon="6.14827">
        <ele>401.4</ele>
        <time>2023-05-22T06:49:04Z</time>
      </trkpt>
      <trkpt lat="43.5676" lon="6.14819">
        <ele>401.4</ele>
      </trkpt>
      <trkpt lat="43.5676" lon="6.14811">
        <ele>401.4</ele>
        <time>2023-05-22T06:49:13Z</time>
      </trkpt>
      <trkpt lat="43.56759" lon="6.14802">
        <ele>401.4</ele>
      </trkpt>
      <trkpt lat="43.56759" lon="6.14793">
        <ele>401.4</ele>
        <time>2023-05-22T06:49:22Z</time>
      </trkpt>
      <trkpt lat="43.5676" lon="6.14786">
        <ele>401.7</ele>
      </trkpt>
      <trkpt lat="43.56762" lon="6.14779">
        <ele>401.8</ele>
        <time>2023-05-22T06:49:31Z</time>
      </trkpt>
      <trkpt lat="43.56762" lon="6.14771">
        <ele>401.8</ele>
      </trkpt>
      <trkpt lat="43.56761" lon="6.14763">
        <ele>401.8</ele>
        <time>2023-05-22T06:49:40Z</time>
      </trkpt>
      <trkpt lat="43.56761" lon="6.14756">
        <ele>401.8</ele>
      </trkpt>
      <trkpt lat="43.5676" lon="6.14749">
        <ele>401.7</ele>
        <time>2023-05-22T06:49:48Z</time>
      </trkpt>
      <trkpt lat="43.5676" lon="6.14742">
        <ele>401.8</ele>
      </trkpt>
      <trkpt lat="43.56761" lon="6.14736">
        <ele>402</ele>
        <time>2023-05-22T06:49:57Z</time>
      </trkpt>
      <trkpt lat="43.56761" lon="6.14728">
        <ele>402.1</ele>
      </trkpt>
      <trkpt lat="43.56761" lon="6.14721">
        <ele>402.2</ele>
        <time>2023-05-22T06:50:06Z</time>
      </trkpt>
      <trkpt lat="43.56761" lon="6.14714">
        <ele>402.5</ele>
      </trkpt>
      <trkpt lat="43.56761" lon="6.14707">
        <ele>402.8</ele>
        <time>2023-05-22T06:50:15Z</time>
      </trkpt>
      <trkpt lat="43.56761" lon="6.14698">
        <ele>403.1</ele>
      </trkpt>
      <trkpt lat="43.56761" lon="6.1469">
        <ele>403.1</ele>
        <time>2023-05-22T06:50:24Z</time>
      </trkpt>
      <trkpt lat="43.56762" lon="6.14682">
        <ele>402.9</ele>
      </trkpt>
      <trkpt lat="43.56762" lon="6.14674">
        <ele>402.7</ele>
        <time>2023-05-22T06:50:34Z</time>
      </trkpt>
      <trkpt lat="43.56764" lon="6.14665">
        <ele>402.6</ele>
      </trkpt>
      <trkpt lat="43.56765" lon="6.14656">
        <ele>403.2</ele>
        <time>2023-05-22T06:50:44Z</time>
      </trkpt>
      <trkpt lat="43.56765" lon="6.14648">
        <ele>403.6</ele>
      </trkpt>
      <trkpt lat="43.56765" lon="6.1464">
        <ele>404</ele>
        <time>2023-05-22T06:50:53Z</time>
      </trkpt>
      <trkpt lat="43.56764" lon="6.14633">
        <ele>404.2</ele>
      </trkpt>
      <trkpt lat="43.56764" lon="6.14626">
        <ele>404.2</ele>
        <time>2023-05-22T06:51:02Z</time>
      </trkpt>
      <trkpt lat="43.56764" lon="6.14618">
        <ele>404.4</ele>
      </trkpt>
      <trkpt lat="43.56764" lon="6.14611">
        <ele>404.6</ele>
        <time>2023-05-22T06:51:10Z</time>
      </trkpt>
      <trkpt lat="43.56764" lon="6.14604">
        <ele>404.7</ele>
      </trkpt>
      <trkpt lat="43.56764" lon="6.14597">
        <ele>404.8</ele>
        <time>2023-05-22T06:51:18Z</time>
      </trkpt>
      <trkpt lat="43.56763" lon="6.1459">
        <ele>404.8</ele>
      </trkpt>
      <trkpt lat="43.56762" lon="6.14583">
        <ele>404.7</ele>
        <time>2023-05-22T06:51:27Z</time>
      </trkpt>
      <trkpt lat="43.56762" lon="6.14576">
        <ele>404.5</ele>
      </trkpt>
      <trkpt lat="43.56763" lon="6.14568">
        <ele>404.3</ele>
        <time>2023-05-22T06:51:35Z</time>
      </trkpt>
      <trkpt lat="43.56761" lon="6.1456">
        <ele>403.7</ele>
      </trkpt>
      <trkpt lat="43.56759" lon="6.14552">
        <ele>403.3</ele>
        <time>2023-05-22T06:51:45Z</time>
      </trkpt>
      <trkpt lat="43.56758" lon="6.14545">
        <ele>403.1</ele>
      </trkpt>
      <trkpt lat="43.56756" lon="6.14538">
        <ele>402.9</ele>
        <time>2023-05-22T06:51:52Z</time>
      </trkpt>
      <trkpt lat="43.56756" lon="6.14531">
        <ele>402.8</ele>
      </trkpt>
      <trkpt lat="43.56755" lon="6.14524">
        <ele>402.7</ele>
        <time>2023-05-22T06:52:00Z</time>
      </trkpt>
      <trkpt lat="43.56754" lon="6.14517">
        <ele>402.5</ele>
      </trkpt>
      <trkpt lat="43.56753" lon="6.1451">
        <ele>402.3</ele>
        <time>2023-05-22T06:52:08Z</time>
      </trkpt>
      <trkpt lat="43.56751" lon="6.14503">
        <ele>402.1</ele>
      </trkpt>
      <trkpt lat="43.56748" lon="6.14496">
        <ele>401.9</ele>
        <time>2023-05-22T06:52:17Z</time>
      </trkpt>
      <trkpt lat="43.56747" lon="6.14489">
        <ele>401.9</ele>
      </trkpt>
      <trkpt lat="43.56746" lon="6.14482">
        <ele>401.8</ele>
        <time>2023-05-22T06:52:25Z</time>
      </trkpt>
      <trkpt lat="43.56745" lon="6.14475">
        <ele>401.7</ele>
      </trkpt>
      <trkpt lat="43.56745" lon="6.14468">
        <ele>401.5</ele>
        <time>2023-05-22T06:52:33Z</time>
      </trkpt>
      <trkpt lat="43.56746" lon="6.14461">
        <ele>401.3</ele>
      </trkpt>
      <trkpt lat="43.56746" lon="6.14454">
        <ele>401.1</ele>
        <time>2023-05-22T06:52:42Z</time>
      </trkpt>
      <trkpt lat="43.56746" lon="6.14447">
        <ele>400.8</ele>
      </trkpt>
      <trkpt lat="43.56745" lon="6.14439">
        <ele>400.4</ele>
        <time>2023-05-22T06:52:51Z</time>
      </trkpt>
      <trkpt lat="43.56747" lon="6.14431">
        <ele>400.2</ele>
      </trkpt>
      <trkpt lat="43.56748" lon="6.14422">
        <ele>400</ele>
        <time>2023-05-22T06:52:59Z</time>
      </trkpt>
      <trkpt lat="43.56747" lon="6.14415">
        <ele>399.6</ele>
      </trkpt>
      <trkpt lat="43.56746" lon="6.14407">
        <ele>399.2</ele>
        <time>2023-05-22T06:53:08Z</time>
      </trkpt>
      <trkpt lat="43.56746" lon="6.14401">
        <ele>399</ele>
      </trkpt>
      <trkpt lat="43.56746" lon="6.14394">
        <ele>398.8</ele>
        <time>2023-05-22T06:53:16Z</time>
      </trkpt>
      <trkpt lat="43.56747" lon="6.14387">
        <ele>398.7</ele>
      </trkpt>
      <trkpt lat="43.56748" lon="6.14379">
        <ele>398.8</ele>
        <time>2023-05-22T06:53:26Z</time>
      </trkpt>
      <trkpt lat="43.56751" lon="6.14371">
        <ele>398.9</ele>
      </trkpt>
      <trkpt lat="43.56754" lon="6.14362">
        <ele>398.7</ele>
        <time>2023-05-22T06:53:36Z</time>
      </trkpt>
      <trkpt lat="43.56756" lon="6.14355">
        <ele>398.4</ele>
      </trkpt>
      <trkpt lat="43.56757" lon="6.14348">
        <ele>398.1</ele>
        <time>2023-05-22T06:53:45Z</time>
      </trkpt>
      <trkpt lat="43.56759" lon="6.1434">
        <ele>397.8</ele>
      </trkpt>
      <trkpt lat="43.56762" lon="6.14332">
        <ele>397.6</ele>
        <time>2023-05-22T06:53:56Z</time>
      </trkpt>
      <trkpt lat="43.56765" lon="6.14325">
        <ele>397.3</ele>
      </trkpt>
      <trkpt lat="43.56768" lon="6.14317">
        <ele>397.1</ele>
        <time>2023-05-22T06:54:06Z</time>
      </trkpt>
      <trkpt lat="43.56771" lon="6.1431">
        <ele>397</ele>
      </trkpt>
      <trkpt lat="43.56775" lon="6.14302">
        <ele>397.1</ele>
        <time>2023-05-22T06:54:15Z</time>
      </trkpt>
      <trkpt lat="43.56779" lon="6.14295">
        <ele>397.4</ele>
      </trkpt>
      <trkpt lat="43.56783" lon="6.14287">
        <ele>397.5</ele>
        <time>2023-05-22T06:54:24Z</time>
      </trkpt>
      <trkpt lat="43.56785" lon="6.14281">
        <ele>397.6</ele>
      </trkpt>
      <trkpt lat="43.56788" lon="6.14274">
        <ele>397.6</ele>
        <time>2023-05-22T06:54:32Z</time>
      </trkpt>
      <trkpt lat="43.5679" lon="6.14267">
        <ele>397.3</ele>
      </trkpt>
      <trkpt lat="43.56793" lon="6.14261">
        <ele>397.2</ele>
        <time>2023-05-22T06:54:40Z</time>
      </trkpt>
      <trkpt lat="43.56795" lon="6.14255">
        <ele>397.1</ele>
      </trkpt>
      <trkpt lat="43.56798" lon="6.1425">
        <ele>397</ele>
        <time>2023-05-22T06:54:47Z</time>
      </trkpt>
      <trkpt lat="43.568" lon="6.14244">
        <ele>397.2</ele>
      </trkpt>
      <trkpt lat="43.56803" lon="6.14238">
        <ele>397.4</ele>
        <time>2023-05-22T06:54:55Z</time>
      </trkpt>
      <trkpt lat="43.56805" lon="6.14233">
        <ele>397.6</ele>
      </trkpt>
      <trkpt lat="43.56807" lon="6.14227">
        <ele>397.8</ele>
        <time>2023-05-22T06:55:03Z</time>
      </trkpt>
      <trkpt lat="43.5681" lon="6.14221">
        <ele>398</ele>
      </trkpt>
      <trkpt lat="43.56814" lon="6.14215">
        <ele>398</ele>
        <time>2023-05-22T06:55:11Z</time>
      </trkpt>
      <trkpt lat="43.56816" lon="6.14209">
        <ele>398</ele>
      </trkpt>
      <trkpt lat="43.56819" lon="6.14203">
        <ele>398</ele>
        <time>2023-05-22T06:55:19Z</time>
      </trkpt>
      <trkpt lat="43.56822" lon="6.14198">
        <ele>398</ele>
      </trkpt>
      <trkpt lat="43.56824" lon="6.14192">
        <ele>398</ele>
        <time>2023-05-22T06:55:27Z</time>
      </trkpt>
      <trkpt lat="43.56826" lon="6.14186">
        <ele>398</ele>
      </trkpt>
      <trkpt lat="43.56828" lon="6.1418">
        <ele>398</ele>
        <time>2023-05-22T06:55:35Z</time>
      </trkpt>
      <trkpt lat="43.56831" lon="6.14174">
        <ele>398</ele>
      </trkpt>
      <trkpt lat="43.56835" lon="6.14168">
        <ele>398</ele>
        <time>2023-05-22T06:55:43Z</time>
      </trkpt>
      <trkpt lat="43.56837" lon="6.14163">
        <ele>398.1</ele>
      </trkpt>
      <trkpt lat="43.5684" lon="6.14157">
        <ele>398.4</ele>
        <time>2023-05-22T06:55:51Z</time>
      </trkpt>
      <trkpt lat="43.56842" lon="6.14151">
        <ele>398.6</ele>
      </trkpt>
      <trkpt lat="43.56845" lon="6.14145">
        <ele>398.8</ele>
        <time>2023-05-22T06:55:59Z</time>
      </trkpt>
      <trkpt lat="43.56847" lon="6.14139">
        <ele>399</ele>
      </trkpt>
      <trkpt lat="43.56848" lon="6.14133">
        <ele>399</ele>
        <time>2023-05-22T06:56:07Z</time>
      </trkpt>
      <trkpt lat="43.56851" lon="6.14127">
        <ele>399</ele>
      </trkpt>
      <trkpt lat="43.56854" lon="6.14121">
        <ele>399</ele>
        <time>2023-05-22T06:56:15Z</time>
      </trkpt>
      <trkpt lat="43.56856" lon="6.14115">
        <ele>399</ele>
      </trkpt>
      <trkpt lat="43.56858" lon="6.14109">
        <ele>399</ele>
        <time>2023-05-22T06:56:23Z</time>
      </trkpt>
      <trkpt lat="43.56859" lon="6.14102">
        <ele>399</ele>
      </trkpt>
      <trkpt lat="43.56861" lon="6.14096">
        <ele>399</ele>
        <time>2023-05-22T06:56:31Z</time>
      </trkpt>
      <trkpt lat="43.56863" lon="6.1409">
        <ele>399</ele>
      </trkpt>
      <trkpt lat="43.56864" lon="6.14084">
        <ele>399</ele>
        <time>2023-05-22T06:56:39Z</time>
      </trkpt>
      <trkpt lat="43.56866" lon="6.14077">
        <ele>399.2</ele>
      </trkpt>
      <trkpt lat="43.56867" lon="6.1407">
        <ele>399.5</ele>
        <time>2023-05-22T06:56:47Z</time>
      </trkpt>
      <trkpt lat="43.56869" lon="6.14063">
        <ele>399.7</ele>
      </trkpt>
      <trkpt lat="43.5687" lon="6.14056">
        <ele>400</ele>
        <time>2023-05-22T06:56:55Z</time>
      </trkpt>
      <trkpt lat="43.56871" lon="6.14049">
        <ele>400</ele>
      </trkpt>
      <trkpt lat="43.56872" lon="6.14043">
        <ele>400</ele>
        <time>2023-05-22T06:57:03Z</time>
      </trkpt>
      <trkpt lat="43.56873" lon="6.14036">
        <ele>400</ele>
      </trkpt>
      <trkpt lat="43.56874" lon="6.1403">
        <ele>400</ele>
        <time>2023-05-22T06:57:11Z</time>
      </trkpt>
      <trkpt lat="43.56875" lon="6.14024">
        <ele>400.2</ele>
      </trkpt>
      <trkpt lat="43.56877" lon="6.14017">
        <ele>400.4</ele>
        <time>2023-05-22T06:57:19Z</time>
      </trkpt>
      <trkpt lat="43.56878" lon="6.14011">
        <ele>400.6</ele>
      </trkpt>
      <trkpt lat="43.56879" lon="6.14005">
        <ele>400.8</ele>
        <time>2023-05-22T06:57:27Z</time>
      </trkpt>
      <trkpt lat="43.56879" lon="6.13998">
        <ele>401</ele>
      </trkpt>
      <trkpt lat="43.56879" lon="6.13992">
        <ele>401.1</ele>
        <time>2023-05-22T06:57:35Z</time>
      </trkpt>
      <trkpt lat="43.5688" lon="6.13985">
        <ele>401.2</ele>
      </trkpt>
      <trkpt lat="43.56882" lon="6.13978">
        <ele>401.2</ele>
        <time>2023-05-22T06:57:43Z</time>
      </trkpt>
      <trkpt lat="43.56884" lon="6.13972">
        <ele>401.2</ele>
      </trkpt>
      <trkpt lat="43.56886" lon="6.13965">
        <ele>401.4</ele>
        <time>2023-05-22T06:57:51Z</time>
      </trkpt>
      <trkpt lat="43.56888" lon="6.13959">
        <ele>401.5</ele>
      </trkpt>
      <trkpt lat="43.56891" lon="6.13953">
        <ele>401.7</ele>
        <time>2023-05-22T06:57:59Z</time>
      </trkpt>
      <trkpt lat="43.56892" lon="6.13946">
        <ele>402</ele>
      </trkpt>
      <trkpt lat="43.56894" lon="6.13938">
        <ele>402.2</ele>
        <time>2023-05-22T06:58:08Z</time>
      </trkpt>
      <trkpt lat="43.56895" lon="6.13932">
        <ele>402.4</ele>
      </trkpt>
      <trkpt lat="43.56897" lon="6.13926">
        <ele>402.7</ele>
        <time>2023-05-22T06:58:17Z</time>
      </trkpt>
      <trkpt lat="43.56898" lon="6.13919">
        <ele>402.9</ele>
      </trkpt>
      <trkpt lat="43.569" lon="6.13911">
        <ele>403.1</ele>
        <time>2023-05-22T06:58:26Z</time>
      </trkpt>
      <trkpt lat="43.569" lon="6.13903">
        <ele>403.3</ele>
      </trkpt>
      <trkpt lat="43.569" lon="6.13895">
        <ele>403.5</ele>
        <time>2023-05-22T06:58:35Z</time>
      </trkpt>
      <trkpt lat="43.56902" lon="6.13888">
        <ele>403.6</ele>
      </trkpt>
      <trkpt lat="43.56903" lon="6.1388">
        <ele>403.6</ele>
        <time>2023-05-22T06:58:44Z</time>
      </trkpt>
      <trkpt lat="43.56905" lon="6.13873">
        <ele>403.7</ele>
      </trkpt>
      <trkpt lat="43.56907" lon="6.13865">
        <ele>403.7</ele>
        <time>2023-05-22T06:58:53Z</time>
      </trkpt>
      <trkpt lat="43.56908" lon="6.13859">
        <ele>403.8</ele>
      </trkpt>
      <trkpt lat="43.56909" lon="6.13852">
        <ele>403.9</ele>
        <time>2023-05-22T06:59:02Z</time>
      </trkpt>
      <trkpt lat="43.56911" lon="6.13844">
        <ele>404.2</ele>
      </trkpt>
      <trkpt lat="43.56912" lon="6.13836">
        <ele>404.4</ele>
        <time>2023-05-22T06:59:11Z</time>
      </trkpt>
      <trkpt lat="43.56913" lon="6.13828">
        <ele>404.6</ele>
      </trkpt>
      <trkpt lat="43.56915" lon="6.13821">
        <ele>404.7</ele>
        <time>2023-05-22T06:59:20Z</time>
      </trkpt>
      <trkpt lat="43.56917" lon="6.13814">
        <ele>404.7</ele>
      </trkpt>
      <trkpt lat="43.56919" lon="6.13807">
        <ele>404.9</ele>
        <time>2023-05-22T06:59:29Z</time>
      </trkpt>
      <trkpt lat="43.5692" lon="6.138">
        <ele>405.2</ele>
      </trkpt>
      <trkpt lat="43.56921" lon="6.13792">
        <ele>405.4</ele>
        <time>2023-05-22T06:59:39Z</time>
      </trkpt>
      <trkpt lat="43.56922" lon="6.13783">
        <ele>405.6</ele>
      </trkpt>
      <trkpt lat="43.56923" lon="6.13775">
        <ele>405.9</ele>
        <time>2023-05-22T06:59:49Z</time>
      </trkpt>
      <trkpt lat="43.56924" lon="6.13768">
        <ele>406.3</ele>
      </trkpt>
      <trkpt lat="43.56925" lon="6.1376">
        <ele>406.6</ele>
        <time>2023-05-22T06:59:58Z</time>
      </trkpt>
      <trkpt lat="43.56925" lon="6.13754">
        <ele>406.9</ele>
      </trkpt>
      <trkpt lat="43.56925" lon="6.13747">
        <ele>407.2</ele>
        <time>2023-05-22T07:00:06Z</time>
      </trkpt>
      <trkpt lat="43.56924" lon="6.13739">
        <ele>407.6</ele>
      </trkpt>
      <trkpt lat="43.56924" lon="6.13732">
        <ele>407.9</ele>
        <time>2023-05-22T07:00:15Z</time>
      </trkpt>
      <trkpt lat="43.56923" lon="6.13725">
        <ele>408.2</ele>
      </trkpt>
      <trkpt lat="43.56923" lon="6.13718">
        <ele>408.4</ele>
        <time>2023-05-22T07:00:24Z</time>
      </trkpt>
      <trkpt lat="43.56923" lon="6.1371">
        <ele>408.5</ele>
      </trkpt>
      <trkpt lat="43.56922" lon="6.13702">
        <ele>408.5</ele>
        <time>2023-05-22T07:00:35Z</time>
      </trkpt>
      <trkpt lat="43.56924" lon="6.13693">
        <ele>408.5</ele>
      </trkpt>
      <trkpt lat="43.56926" lon="6.13684">
        <ele>408.5</ele>
        <time>2023-05-22T07:00:44Z</time>
      </trkpt>
      <trkpt lat="43.56925" lon="6.13677">
        <ele>408.6</ele>
      </trkpt>
      <trkpt lat="43.56925" lon="6.13669">
        <ele>408.7</ele>
        <time>2023-05-22T07:00:53Z</time>
      </trkpt>
      <trkpt lat="43.56925" lon="6.13663">
        <ele>408.7</ele>
      </trkpt>
      <trkpt lat="43.56924" lon="6.13656">
        <ele>408.7</ele>
        <time>2023-05-22T07:01:03Z</time>
      </trkpt>
      <trkpt lat="43.56925" lon="6.13648">
        <ele>408.7</ele>
      </trkpt>
      <trkpt lat="43.56925" lon="6.13639">
        <ele>408.7</ele>
        <time>2023-05-22T07:01:12Z</time>
      </trkpt>
      <trkpt lat="43.56924" lon="6.13632">
        <ele>408.8</ele>
      </trkpt>
      <trkpt lat="43.56924" lon="6.13625">
        <ele>408.9</ele>
        <time>2023-05-22T07:01:21Z</time>
      </trkpt>
      <trkpt lat="43.56925" lon="6.13617">
        <ele>408.9</ele>
      </trkpt>
      <trkpt lat="43.56926" lon="6.1361">
        <ele>409</ele>
        <time>2023-05-22T07:01:32Z</time>
      </trkpt>
      <trkpt lat="43.56925" lon="6.136">
        <ele>409.3</ele>
      </trkpt>
      <trkpt lat="43.56924" lon="6.1359">
        <ele>409.6</ele>
        <time>2023-05-22T07:01:44Z</time>
      </trkpt>
      <trkpt lat="43.5692" lon="6.1358">
        <ele>409.9</ele>
      </trkpt>
      <trkpt lat="43.56915" lon="6.1357">
        <ele>410.1</ele>
        <time>2023-05-22T07:01:55Z</time>
      </trkpt>
      <trkpt lat="43.56913" lon="6.13564">
        <ele>410.2</ele>
      </trkpt>
      <trkpt lat="43.56912" lon="6.13557">
        <ele>410.3</ele>
        <time>2023-05-22T07:02:04Z</time>
      </trkpt>
      <trkpt lat="43.56911" lon="6.1355">
        <ele>410.5</ele>
      </trkpt>
      <trkpt lat="43.56911" lon="6.13543">
        <ele>410.7</ele>
        <time>2023-05-22T07:02:12Z</time>
      </trkpt>
      <trkpt lat="43.5691" lon="6.13536">
        <ele>410.9</ele>
      </trkpt>
      <trkpt lat="43.56909" lon="6.13528">
        <ele>411</ele>
        <time>2023-05-22T07:02:20Z</time>
      </trkpt>
      <trkpt lat="43.56908" lon="6.13522">
        <ele>411</ele>
      </trkpt>
      <trkpt lat="43.56906" lon="6.13515">
        <ele>411</ele>
        <time>2023-05-22T07:02:29Z</time>
      </trkpt>
      <trkpt lat="43.56904" lon="6.13506">
        <ele>411</ele>
      </trkpt>
      <trkpt lat="43.56901" lon="6.13497">
        <ele>411</ele>
        <time>2023-05-22T07:02:40Z</time>
      </trkpt>
      <trkpt lat="43.56898" lon="6.13491">
        <ele>411</ele>
      </trkpt>
      <trkpt lat="43.56894" lon="6.13485">
        <ele>411</ele>
        <time>2023-05-22T07:02:48Z</time>
      </trkpt>
      <trkpt lat="43.5689" lon="6.1348">
        <ele>411</ele>
      </trkpt>
      <trkpt lat="43.56885" lon="6.13474">
        <ele>411.1</ele>
        <time>2023-05-22T07:02:56Z</time>
      </trkpt>
      <trkpt lat="43.56883" lon="6.13469">
        <ele>411.3</ele>
      </trkpt>
      <trkpt lat="43.5688" lon="6.13464">
        <ele>411.5</ele>
        <time>2023-05-22T07:03:07Z</time>
      </trkpt>
      <trkpt lat="43.56876" lon="6.13457">
        <ele>411.8</ele>
      </trkpt>
      <trkpt lat="43.56871" lon="6.13451">
        <ele>411.9</ele>
        <time>2023-05-22T07:03:17Z</time>
      </trkpt>
      <trkpt lat="43.56865" lon="6.13445">
        <ele>412</ele>
      </trkpt>
      <trkpt lat="43.56859" lon="6.13439">
        <ele>411.9</ele>
        <time>2023-05-22T07:03:25Z</time>
      </trkpt>
      <trkpt lat="43.56856" lon="6.13434">
        <ele>411.7</ele>
      </trkpt>
      <trkpt lat="43.56852" lon="6.13428">
        <ele>411.6</ele>
        <time>2023-05-22T07:03:34Z</time>
      </trkpt>
      <trkpt lat="43.56851" lon="6.13421">
        <ele>411.6</ele>
      </trkpt>
      <trkpt lat="43.5685" lon="6.13415">
        <ele>411.6</ele>
        <time>2023-05-22T07:03:42Z</time>
      </trkpt>
      <trkpt lat="43.56849" lon="6.13408">
        <ele>411.7</ele>
      </trkpt>
      <trkpt lat="43.56849" lon="6.134">
        <ele>411.8</ele>
        <time>2023-05-22T07:03:50Z</time>
      </trkpt>
      <trkpt lat="43.5685" lon="6.13393">
        <ele>411.9</ele>
      </trkpt>
      <trkpt lat="43.5685" lon="6.13385">
        <ele>412</ele>
        <time>2023-05-22T07:03:59Z</time>
      </trkpt>
      <trkpt lat="43.56854" lon="6.13379">
        <ele>412</ele>
      </trkpt>
      <trkpt lat="43.56857" lon="6.13372">
        <ele>412</ele>
        <time>2023-05-22T07:04:08Z</time>
      </trkpt>
      <trkpt lat="43.5686" lon="6.13366">
        <ele>412</ele>
      </trkpt>
      <trkpt lat="43.56863" lon="6.1336">
        <ele>412.1</ele>
        <time>2023-05-22T07:04:16Z</time>
      </trkpt>
      <trkpt lat="43.56865" lon="6.13353">
        <ele>412.3</ele>
      </trkpt>
      <trkpt lat="43.56867" lon="6.13347">
        <ele>412.5</ele>
        <time>2023-05-22T07:04:24Z</time>
      </trkpt>
      <trkpt lat="43.5687" lon="6.1334">
        <ele>412.8</ele>
      </trkpt>
      <trkpt lat="43.56872" lon="6.13334">
        <ele>413</ele>
        <time>2023-05-22T07:04:32Z</time>
      </trkpt>
      <trkpt lat="43.56875" lon="6.13328">
        <ele>413.1</ele>
      </trkpt>
      <trkpt lat="43.56877" lon="6.13323">
        <ele>413.2</ele>
        <time>2023-05-22T07:04:40Z</time>
      </trkpt>
      <trkpt lat="43.56882" lon="6.13313">
        <ele>413.5</ele>
        <time>2023-05-22T07:04:47Z</time>
      </trkpt>
      <trkpt lat="43.56887" lon="6.13303">
        <ele>413.9</ele>
        <time>2023-05-22T07:04:55Z</time>
      </trkpt>
      <trkpt lat="43.5689" lon="6.13298">
        <ele>414</ele>
      </trkpt>
      <trkpt lat="43.56893" lon="6.13292">
        <ele>414.1</ele>
        <time>2023-05-22T07:05:03Z</time>
      </trkpt>
      <trkpt lat="43.56896" lon="6.13287">
        <ele>414.2</ele>
      </trkpt>
      <trkpt lat="43.56899" lon="6.13281">
        <ele>414.3</ele>
        <time>2023-05-22T07:05:11Z</time>
      </trkpt>
      <trkpt lat="43.56902" lon="6.13275">
        <ele>414.6</ele>
      </trkpt>
      <trkpt lat="43.56905" lon="6.1327">
        <ele>414.9</ele>
        <time>2023-05-22T07:05:19Z</time>
      </trkpt>
      <trkpt lat="43.56908" lon="6.13264">
        <ele>415.2</ele>
      </trkpt>
      <trkpt lat="43.56911" lon="6.13258">
        <ele>415.5</ele>
        <time>2023-05-22T07:05:27Z</time>
      </trkpt>
      <trkpt lat="43.56915" lon="6.13253">
        <ele>415.8</ele>
      </trkpt>
      <trkpt lat="43.56918" lon="6.13248">
        <ele>416.1</ele>
        <time>2023-05-22T07:05:35Z</time>
      </trkpt>
      <trkpt lat="43.56921" lon="6.13242">
        <ele>416.3</ele>
      </trkpt>
      <trkpt lat="43.56923" lon="6.13237">
        <ele>416.5</ele>
        <time>2023-05-22T07:05:44Z</time>
      </trkpt>
      <trkpt lat="43.56925" lon="6.13232">
        <ele>416.7</ele>
        <time>2023-05-22T07:07:41Z</time>
      </trkpt>
      <trkpt lat="43.5693" lon="6.13225">
        <ele>416.9</ele>
        <time>2023-05-22T07:08:50Z</time>
      </trkpt>
      <trkpt lat="43.56932" lon="6.13218">
        <ele>417.1</ele>
      </trkpt>
      <trkpt lat="43.56934" lon="6.13211">
        <ele>417.2</ele>
        <time>2023-05-22T07:09:00Z</time>
      </trkpt>
      <trkpt lat="43.56941" lon="6.13203">
        <ele>417.1</ele>
        <time>2023-05-22T07:09:17Z</time>
      </trkpt>
      <trkpt lat="43.56943" lon="6.13198">
        <ele>417</ele>
      </trkpt>
      <trkpt lat="43.56946" lon="6.13193">
        <ele>417.1</ele>
        <time>2023-05-22T07:09:42Z</time>
      </trkpt>
      <trkpt lat="43.5695" lon="6.13188">
        <ele>417.4</ele>
      </trkpt>
      <trkpt lat="43.56955" lon="6.13184">
        <ele>417.8</ele>
        <time>2023-05-22T07:09:52Z</time>
      </trkpt>
      <trkpt lat="43.56958" lon="6.13179">
        <ele>418</ele>
      </trkpt>
      <trkpt lat="43.56961" lon="6.13174">
        <ele>418.3</ele>
        <time>2023-05-22T07:10:02Z</time>
      </trkpt>
      <trkpt lat="43.56967" lon="6.13166">
        <ele>418.8</ele>
        <time>2023-05-22T07:10:12Z</time>
      </trkpt>
      <trkpt lat="43.5697" lon="6.13161">
        <ele>419.1</ele>
      </trkpt>
      <trkpt lat="43.56973" lon="6.13156">
        <ele>419.4</ele>
        <time>2023-05-22T07:10:23Z</time>
      </trkpt>
      <trkpt lat="43.56975" lon="6.1315">
        <ele>419.7</ele>
      </trkpt>
      <trkpt lat="43.56977" lon="6.13144">
        <ele>420</ele>
        <time>2023-05-22T07:10:36Z</time>
      </trkpt>
      <trkpt lat="43.56981" lon="6.13139">
        <ele>420.3</ele>
      </trkpt>
      <trkpt lat="43.56985" lon="6.13134">
        <ele>420.6</ele>
        <time>2023-05-22T07:10:47Z</time>
      </trkpt>
      <trkpt lat="43.56987" lon="6.13128">
        <ele>420.9</ele>
      </trkpt>
      <trkpt lat="43.56989" lon="6.13122">
        <ele>421.2</ele>
        <time>2023-05-22T07:10:59Z</time>
      </trkpt>
      <trkpt lat="43.56993" lon="6.13116">
        <ele>421.6</ele>
      </trkpt>
      <trkpt lat="43.56997" lon="6.13109">
        <ele>422</ele>
        <time>2023-05-22T07:11:11Z</time>
      </trkpt>
      <trkpt lat="43.56999" lon="6.13102">
        <ele>422.3</ele>
      </trkpt>
      <trkpt lat="43.57001" lon="6.13095">
        <ele>422.7</ele>
        <time>2023-05-22T07:11:22Z</time>
      </trkpt>
      <trkpt lat="43.57004" lon="6.1309">
        <ele>423.5</ele>
      </trkpt>
      <trkpt lat="43.57007" lon="6.13084">
        <ele>424.2</ele>
        <time>2023-05-22T07:11:37Z</time>
      </trkpt>
      <trkpt lat="43.57012" lon="6.13081">
        <ele>425.1</ele>
      </trkpt>
      <trkpt lat="43.57016" lon="6.13078">
        <ele>426</ele>
        <time>2023-05-22T07:11:49Z</time>
      </trkpt>
      <trkpt lat="43.57018" lon="6.13073">
        <ele>426.4</ele>
      </trkpt>
      <trkpt lat="43.5702" lon="6.13067">
        <ele>426.8</ele>
        <time>2023-05-22T07:12:04Z</time>
      </trkpt>
      <trkpt lat="43.57024" lon="6.13062">
        <ele>427.4</ele>
      </trkpt>
      <trkpt lat="43.57028" lon="6.13056">
        <ele>428</ele>
        <time>2023-05-22T07:12:15Z</time>
      </trkpt>
      <trkpt lat="43.57029" lon="6.1305">
        <ele>428.4</ele>
      </trkpt>
      <trkpt lat="43.5703" lon="6.13043">
        <ele>428.7</ele>
        <time>2023-05-22T07:12:26Z</time>
      </trkpt>
      <trkpt lat="43.57031" lon="6.13037">
        <ele>429</ele>
      </trkpt>
      <trkpt lat="43.57032" lon="6.1303">
        <ele>429.3</ele>
        <time>2023-05-22T07:12:39Z</time>
      </trkpt>
      <trkpt lat="43.57034" lon="6.13024">
        <ele>429.7</ele>
      </trkpt>
      <trkpt lat="43.57036" lon="6.13019">
        <ele>430.1</ele>
        <time>2023-05-22T07:12:50Z</time>
      </trkpt>
      <trkpt lat="43.57037" lon="6.13011">
        <ele>429.9</ele>
      </trkpt>
      <trkpt lat="43.57037" lon="6.13004">
        <ele>429.7</ele>
        <time>2023-05-22T07:13:02Z</time>
      </trkpt>
      <trkpt lat="43.57031" lon="6.12997">
        <ele>428.1</ele>
        <time>2023-05-22T07:13:14Z</time>
      </trkpt>
      <trkpt lat="43.57028" lon="6.12986">
        <ele>427.6</ele>
        <time>2023-05-22T07:13:26Z</time>
      </trkpt>
      <trkpt lat="43.57028" lon="6.12979">
        <ele>427.7</ele>
      </trkpt>
      <trkpt lat="43.57028" lon="6.12973">
        <ele>428</ele>
        <time>2023-05-22T07:13:40Z</time>
      </trkpt>
      <trkpt lat="43.57029" lon="6.12966">
        <ele>428.4</ele>
      </trkpt>
      <trkpt lat="43.5703" lon="6.12959">
        <ele>428.8</ele>
        <time>2023-05-22T07:13:51Z</time>
      </trkpt>
      <trkpt lat="43.57031" lon="6.12952">
        <ele>429.1</ele>
      </trkpt>
      <trkpt lat="43.57032" lon="6.12945">
        <ele>429.5</ele>
        <time>2023-05-22T07:14:03Z</time>
      </trkpt>
      <trkpt lat="43.57033" lon="6.12938">
        <ele>429.9</ele>
      </trkpt>
      <trkpt lat="43.57034" lon="6.1293">
        <ele>430.5</ele>
        <time>2023-05-22T07:14:15Z</time>
      </trkpt>
      <trkpt lat="43.57034" lon="6.12922">
        <ele>430.9</ele>
      </trkpt>
      <trkpt lat="43.57034" lon="6.12915">
        <ele>431.4</ele>
        <time>2023-05-22T07:14:26Z</time>
      </trkpt>
      <trkpt lat="43.5703" lon="6.12904">
        <ele>430.9</ele>
        <time>2023-05-22T07:14:35Z</time>
      </trkpt>
      <trkpt lat="43.5703" lon="6.12897">
        <ele>431.2</ele>
      </trkpt>
      <trkpt lat="43.5703" lon="6.1289">
        <ele>431.5</ele>
        <time>2023-05-22T07:14:45Z</time>
      </trkpt>
      <trkpt lat="43.57032" lon="6.12883">
        <ele>431.8</ele>
      </trkpt>
      <trkpt lat="43.57033" lon="6.12875">
        <ele>432.1</ele>
        <time>2023-05-22T07:14:56Z</time>
      </trkpt>
      <trkpt lat="43.57035" lon="6.12869">
        <ele>432.4</ele>
      </trkpt>
      <trkpt lat="43.57037" lon="6.12863">
        <ele>432.7</ele>
        <time>2023-05-22T07:15:06Z</time>
      </trkpt>
      <trkpt lat="43.57036" lon="6.12857">
        <ele>432.7</ele>
      </trkpt>
      <trkpt lat="43.57034" lon="6.1285">
        <ele>433</ele>
        <time>2023-05-22T07:15:16Z</time>
      </trkpt>
      <trkpt lat="43.57039" lon="6.12844">
        <ele>433.8</ele>
      </trkpt>
      <trkpt lat="43.57043" lon="6.12838">
        <ele>434.4</ele>
        <time>2023-05-22T07:15:28Z</time>
      </trkpt>
      <trkpt lat="43.57047" lon="6.12831">
        <ele>434.6</ele>
      </trkpt>
      <trkpt lat="43.5705" lon="6.12824">
        <ele>434.4</ele>
        <time>2023-05-22T07:15:39Z</time>
      </trkpt>
      <trkpt lat="43.57053" lon="6.12818">
        <ele>434</ele>
      </trkpt>
      <trkpt lat="43.57056" lon="6.12813">
        <ele>433.7</ele>
        <time>2023-05-22T07:15:50Z</time>
      </trkpt>
      <trkpt lat="43.57058" lon="6.12806">
        <ele>433.5</ele>
      </trkpt>
      <trkpt lat="43.57059" lon="6.128">
        <ele>433.8</ele>
        <time>2023-05-22T07:16:01Z</time>
      </trkpt>
      <trkpt lat="43.57062" lon="6.12792">
        <ele>434.3</ele>
      </trkpt>
      <trkpt lat="43.57065" lon="6.12784">
        <ele>434.8</ele>
        <time>2023-05-22T07:16:17Z</time>
      </trkpt>
      <trkpt lat="43.57068" lon="6.12777">
        <ele>435.2</ele>
      </trkpt>
      <trkpt lat="43.57071" lon="6.1277">
        <ele>435.8</ele>
        <time>2023-05-22T07:16:29Z</time>
      </trkpt>
      <trkpt lat="43.57074" lon="6.12762">
        <ele>436.1</ele>
      </trkpt>
      <trkpt lat="43.57077" lon="6.12755">
        <ele>436.1</ele>
        <time>2023-05-22T07:16:40Z</time>
      </trkpt>
      <trkpt lat="43.57081" lon="6.12748">
        <ele>436</ele>
      </trkpt>
      <trkpt lat="43.57085" lon="6.12742">
        <ele>436.1</ele>
        <time>2023-05-22T07:16:51Z</time>
      </trkpt>
      <trkpt lat="43.57089" lon="6.12736">
        <ele>436.4</ele>
      </trkpt>
      <trkpt lat="43.57092" lon="6.12731">
        <ele>436.5</ele>
        <time>2023-05-22T07:17:01Z</time>
      </trkpt>
      <trkpt lat="43.57096" lon="6.12727">
        <ele>436.6</ele>
      </trkpt>
      <trkpt lat="43.57099" lon="6.12723">
        <ele>436.6</ele>
        <time>2023-05-22T07:17:11Z</time>
      </trkpt>
      <trkpt lat="43.57104" lon="6.12716">
        <ele>437.2</ele>
        <time>2023-05-22T07:17:23Z</time>
      </trkpt>
      <trkpt lat="43.57113" lon="6.12714">
        <ele>437.8</ele>
        <time>2023-05-22T07:17:34Z</time>
      </trkpt>
      <trkpt lat="43.5712" lon="6.12708">
        <ele>438.8</ele>
        <time>2023-05-22T07:17:45Z</time>
      </trkpt>
      <trkpt lat="43.57126" lon="6.127">
        <ele>440.1</ele>
        <time>2023-05-22T07:18:02Z</time>
      </trkpt>
      <trkpt lat="43.57131" lon="6.12697">
        <ele>440.9</ele>
      </trkpt>
      <trkpt lat="43.57136" lon="6.12694">
        <ele>441.7</ele>
        <time>2023-05-22T07:18:15Z</time>
      </trkpt>
      <trkpt lat="43.5714" lon="6.1269">
        <ele>442.5</ele>
      </trkpt>
      <trkpt lat="43.57145" lon="6.12686">
        <ele>443</ele>
        <time>2023-05-22T07:18:28Z</time>
      </trkpt>
      <trkpt lat="43.57149" lon="6.12681">
        <ele>443.6</ele>
      </trkpt>
      <trkpt lat="43.57153" lon="6.12676">
        <ele>444.3</ele>
        <time>2023-05-22T07:18:45Z</time>
      </trkpt>
      <trkpt lat="43.57156" lon="6.12671">
        <ele>445</ele>
      </trkpt>
      <trkpt lat="43.5716" lon="6.12667">
        <ele>445.8</ele>
        <time>2023-05-22T07:18:57Z</time>
      </trkpt>
      <trkpt lat="43.57164" lon="6.12662">
        <ele>446.4</ele>
      </trkpt>
      <trkpt lat="43.57167" lon="6.12657">
        <ele>447</ele>
        <time>2023-05-22T07:19:10Z</time>
      </trkpt>
      <trkpt lat="43.57171" lon="6.12654">
        <ele>447.3</ele>
      </trkpt>
      <trkpt lat="43.57176" lon="6.12651">
        <ele>447.6</ele>
        <time>2023-05-22T07:19:21Z</time>
      </trkpt>
      <trkpt lat="43.5718" lon="6.12647">
        <ele>448</ele>
      </trkpt>
      <trkpt lat="43.57184" lon="6.12643">
        <ele>448.5</ele>
        <time>2023-05-22T07:19:32Z</time>
      </trkpt>
      <trkpt lat="43.57188" lon="6.12639">
        <ele>449</ele>
      </trkpt>
      <trkpt lat="43.57192" lon="6.12635">
        <ele>449.1</ele>
        <time>2023-05-22T07:19:43Z</time>
      </trkpt>
      <trkpt lat="43.57196" lon="6.12631">
        <ele>449.2</ele>
      </trkpt>
      <trkpt lat="43.572" lon="6.12627">
        <ele>449.1</ele>
        <time>2023-05-22T07:19:53Z</time>
      </trkpt>
      <trkpt lat="43.57204" lon="6.12621">
        <ele>449.2</ele>
      </trkpt>
      <trkpt lat="43.57208" lon="6.12616">
        <ele>449.3</ele>
        <time>2023-05-22T07:20:03Z</time>
      </trkpt>
      <trkpt lat="43.57211" lon="6.12612">
        <ele>449.4</ele>
      </trkpt>
      <trkpt lat="43.57215" lon="6.12607">
        <ele>449.6</ele>
        <time>2023-05-22T07:20:12Z</time>
      </trkpt>
      <trkpt lat="43.57219" lon="6.12603">
        <ele>449.9</ele>
      </trkpt>
      <trkpt lat="43.57222" lon="6.126">
        <ele>450.3</ele>
        <time>2023-05-22T07:20:22Z</time>
      </trkpt>
      <trkpt lat="43.57227" lon="6.12595">
        <ele>450.8</ele>
      </trkpt>
      <trkpt lat="43.57232" lon="6.12591">
        <ele>451.2</ele>
        <time>2023-05-22T07:20:33Z</time>
      </trkpt>
      <trkpt lat="43.57236" lon="6.12587">
        <ele>451.4</ele>
      </trkpt>
      <trkpt lat="43.5724" lon="6.12582">
        <ele>451.5</ele>
        <time>2023-05-22T07:20:43Z</time>
      </trkpt>
      <trkpt lat="43.57245" lon="6.12578">
        <ele>451.7</ele>
      </trkpt>
      <trkpt lat="43.57249" lon="6.12574">
        <ele>452.1</ele>
        <time>2023-05-22T07:20:53Z</time>
      </trkpt>
      <trkpt lat="43.57253" lon="6.1257">
        <ele>452.7</ele>
      </trkpt>
      <trkpt lat="43.57257" lon="6.12566">
        <ele>453.3</ele>
        <time>2023-05-22T07:21:02Z</time>
      </trkpt>
      <trkpt lat="43.57262" lon="6.12563">
        <ele>453.7</ele>
      </trkpt>
      <trkpt lat="43.57266" lon="6.12559">
        <ele>453.9</ele>
        <time>2023-05-22T07:21:12Z</time>
      </trkpt>
      <trkpt lat="43.57271" lon="6.12554">
        <ele>454</ele>
      </trkpt>
      <trkpt lat="43.57275" lon="6.12549">
        <ele>454.2</ele>
        <time>2023-05-22T07:21:22Z</time>
      </trkpt>
      <trkpt lat="43.5728" lon="6.12545">
        <ele>454.5</ele>
      </trkpt>
      <trkpt lat="43.57284" lon="6.12542">
        <ele>455</ele>
        <time>2023-05-22T07:21:33Z</time>
      </trkpt>
      <trkpt lat="43.57288" lon="6.12538">
        <ele>455.3</ele>
      </trkpt>
      <trkpt lat="43.57292" lon="6.12535">
        <ele>455.5</ele>
        <time>2023-05-22T07:21:43Z</time>
      </trkpt>
      <trkpt lat="43.57297" lon="6.12532">
        <ele>455.7</ele>
      </trkpt>
      <trkpt lat="43.57301" lon="6.12529">
        <ele>455.9</ele>
        <time>2023-05-22T07:21:53Z</time>
      </trkpt>
      <trkpt lat="43.57307" lon="6.12526">
        <ele>456.1</ele>
      </trkpt>
      <trkpt lat="43.57312" lon="6.12523">
        <ele>456.6</ele>
        <time>2023-05-22T07:22:03Z</time>
      </trkpt>
      <trkpt lat="43.57317" lon="6.12519">
        <ele>456.9</ele>
      </trkpt>
      <trkpt lat="43.57322" lon="6.12516">
        <ele>457.1</ele>
        <time>2023-05-22T07:22:13Z</time>
      </trkpt>
      <trkpt lat="43.57326" lon="6.12512">
        <ele>457.2</ele>
      </trkpt>
      <trkpt lat="43.5733" lon="6.12509">
        <ele>457.2</ele>
        <time>2023-05-22T07:22:23Z</time>
      </trkpt>
      <trkpt lat="43.57335" lon="6.12505">
        <ele>457.3</ele>
      </trkpt>
      <trkpt lat="43.5734" lon="6.12502">
        <ele>457.5</ele>
        <time>2023-05-22T07:22:33Z</time>
      </trkpt>
      <trkpt lat="43.57345" lon="6.12499">
        <ele>457.9</ele>
      </trkpt>
      <trkpt lat="43.5735" lon="6.12497">
        <ele>458.3</ele>
        <time>2023-05-22T07:22:43Z</time>
      </trkpt>
      <trkpt lat="43.57357" lon="6.12493">
        <ele>458.7</ele>
        <time>2023-05-22T07:23:16Z</time>
      </trkpt>
      <trkpt lat="43.57359" lon="6.12496">
        <ele>458.8</ele>
        <time>2023-05-22T07:23:56Z</time>
      </trkpt>
      <trkpt lat="43.57366" lon="6.12495">
        <ele>459</ele>
        <time>2023-05-22T07:24:41Z</time>
      </trkpt>
      <trkpt lat="43.57373" lon="6.1249">
        <ele>458.9</ele>
        <time>2023-05-22T07:24:53Z</time>
      </trkpt>
      <trkpt lat="43.57377" lon="6.12484">
        <ele>458.7</ele>
        <time>2023-05-22T07:25:10Z</time>
      </trkpt>
      <trkpt lat="43.57381" lon="6.1248">
        <ele>458.5</ele>
      </trkpt>
      <trkpt lat="43.57385" lon="6.12476">
        <ele>458.3</ele>
        <time>2023-05-22T07:25:20Z</time>
      </trkpt>
      <trkpt lat="43.57389" lon="6.12473">
        <ele>458</ele>
      </trkpt>
      <trkpt lat="43.57394" lon="6.12471">
        <ele>457.9</ele>
        <time>2023-05-22T07:25:30Z</time>
      </trkpt>
      <trkpt lat="43.57398" lon="6.12467">
        <ele>457.8</ele>
      </trkpt>
      <trkpt lat="43.57403" lon="6.12463">
        <ele>457.7</ele>
        <time>2023-05-22T07:25:41Z</time>
      </trkpt>
      <trkpt lat="43.57407" lon="6.12458">
        <ele>457.5</ele>
      </trkpt>
      <trkpt lat="43.57411" lon="6.12454">
        <ele>457.3</ele>
        <time>2023-05-22T07:25:50Z</time>
      </trkpt>
      <trkpt lat="43.57419" lon="6.12449">
        <ele>456.9</ele>
        <time>2023-05-22T07:26:01Z</time>
      </trkpt>
      <trkpt lat="43.5742" lon="6.12456">
        <ele>456.8</ele>
      </trkpt>
      <trkpt lat="43.5742" lon="6.12463">
        <ele>456.8</ele>
        <time>2023-05-22T07:26:21Z</time>
      </trkpt>
      <trkpt lat="43.57423" lon="6.1247">
        <ele>456.7</ele>
      </trkpt>
      <trkpt lat="43.57427" lon="6.12476">
        <ele>456.8</ele>
        <time>2023-05-22T07:26:32Z</time>
      </trkpt>
      <trkpt lat="43.5743" lon="6.12483">
        <ele>457.1</ele>
      </trkpt>
      <trkpt lat="43.57433" lon="6.12489">
        <ele>457.4</ele>
        <time>2023-05-22T07:26:42Z</time>
      </trkpt>
      <trkpt lat="43.57435" lon="6.12495">
        <ele>457.7</ele>
      </trkpt>
      <trkpt lat="43.57437" lon="6.12501">
        <ele>458</ele>
        <time>2023-05-22T07:26:51Z</time>
      </trkpt>
      <trkpt lat="43.57439" lon="6.12507">
        <ele>458.1</ele>
      </trkpt>
      <trkpt lat="43.57441" lon="6.12513">
        <ele>458.1</ele>
        <time>2023-05-22T07:27:02Z</time>
      </trkpt>
      <trkpt lat="43.57443" lon="6.1252">
        <ele>458</ele>
      </trkpt>
      <trkpt lat="43.57445" lon="6.12526">
        <ele>458</ele>
        <time>2023-05-22T07:27:12Z</time>
      </trkpt>
      <trkpt lat="43.57447" lon="6.12532">
        <ele>458.3</ele>
      </trkpt>
      <trkpt lat="43.57449" lon="6.12538">
        <ele>458.7</ele>
        <time>2023-05-22T07:27:23Z</time>
      </trkpt>
      <trkpt lat="43.57454" lon="6.12543">
        <ele>458.9</ele>
      </trkpt>
      <trkpt lat="43.57459" lon="6.12549">
        <ele>459.1</ele>
        <time>2023-05-22T07:27:34Z</time>
      </trkpt>
      <trkpt lat="43.57464" lon="6.12553">
        <ele>459.2</ele>
      </trkpt>
      <trkpt lat="43.57468" lon="6.12558">
        <ele>459.2</ele>
        <time>2023-05-22T07:27:44Z</time>
      </trkpt>
      <trkpt lat="43.57471" lon="6.12563">
        <ele>459.3</ele>
      </trkpt>
      <trkpt lat="43.57473" lon="6.12569">
        <ele>459.4</ele>
        <time>2023-05-22T07:27:54Z</time>
      </trkpt>
      <trkpt lat="43.57475" lon="6.12576">
        <ele>459.5</ele>
      </trkpt>
      <trkpt lat="43.57476" lon="6.12583">
        <ele>459.7</ele>
        <time>2023-05-22T07:28:04Z</time>
      </trkpt>
      <trkpt lat="43.57477" lon="6.1259">
        <ele>459.7</ele>
      </trkpt>
      <trkpt lat="43.57478" lon="6.12597">
        <ele>459.7</ele>
        <time>2023-05-22T07:28:13Z</time>
      </trkpt>
      <trkpt lat="43.57479" lon="6.12604">
        <ele>459.7</ele>
      </trkpt>
      <trkpt lat="43.5748" lon="6.12611">
        <ele>459.7</ele>
        <time>2023-05-22T07:28:24Z</time>
      </trkpt>
      <trkpt lat="43.57481" lon="6.12618">
        <ele>460.1</ele>
      </trkpt>
      <trkpt lat="43.57482" lon="6.12625">
        <ele>460.5</ele>
        <time>2023-05-22T07:28:34Z</time>
      </trkpt>
      <trkpt lat="43.57485" lon="6.12632">
        <ele>460.7</ele>
      </trkpt>
      <trkpt lat="43.57488" lon="6.1264">
        <ele>460.9</ele>
        <time>2023-05-22T07:28:44Z</time>
      </trkpt>
      <trkpt lat="43.57489" lon="6.12646">
        <ele>461.2</ele>
      </trkpt>
      <trkpt lat="43.5749" lon="6.12653">
        <ele>461.5</ele>
        <time>2023-05-22T07:28:54Z</time>
      </trkpt>
      <trkpt lat="43.5749" lon="6.12661">
        <ele>462</ele>
      </trkpt>
      <trkpt lat="43.57491" lon="6.12668">
        <ele>462.4</ele>
        <time>2023-05-22T07:29:05Z</time>
      </trkpt>
      <trkpt lat="43.57489" lon="6.12676">
        <ele>462.7</ele>
      </trkpt>
      <trkpt lat="43.57488" lon="6.12684">
        <ele>463.1</ele>
        <time>2023-05-22T07:29:16Z</time>
      </trkpt>
      <trkpt lat="43.57489" lon="6.12691">
        <ele>463.3</ele>
      </trkpt>
      <trkpt lat="43.57491" lon="6.12699">
        <ele>463.5</ele>
        <time>2023-05-22T07:29:26Z</time>
      </trkpt>
      <trkpt lat="43.57491" lon="6.12706">
        <ele>463.8</ele>
      </trkpt>
      <trkpt lat="43.57491" lon="6.12714">
        <ele>464</ele>
        <time>2023-05-22T07:29:37Z</time>
      </trkpt>
      <trkpt lat="43.57493" lon="6.12722">
        <ele>464.2</ele>
      </trkpt>
      <trkpt lat="43.57495" lon="6.12729">
        <ele>464.2</ele>
        <time>2023-05-22T07:29:47Z</time>
      </trkpt>
      <trkpt lat="43.575" lon="6.12734">
        <ele>464</ele>
      </trkpt>
      <trkpt lat="43.57505" lon="6.12739">
        <ele>464</ele>
        <time>2023-05-22T07:29:57Z</time>
      </trkpt>
      <trkpt lat="43.57508" lon="6.12744">
        <ele>464</ele>
      </trkpt>
      <trkpt lat="43.57511" lon="6.12749">
        <ele>464</ele>
        <time>2023-05-22T07:30:06Z</time>
      </trkpt>
      <trkpt lat="43.57514" lon="6.12755">
        <ele>464</ele>
      </trkpt>
      <trkpt lat="43.57516" lon="6.1276">
        <ele>464</ele>
        <time>2023-05-22T07:30:14Z</time>
      </trkpt>
      <trkpt lat="43.57517" lon="6.12768">
        <ele>464</ele>
      </trkpt>
      <trkpt lat="43.57517" lon="6.12775">
        <ele>464</ele>
        <time>2023-05-22T07:30:23Z</time>
      </trkpt>
      <trkpt lat="43.57516" lon="6.12782">
        <ele>463.9</ele>
      </trkpt>
      <trkpt lat="43.57516" lon="6.1279">
        <ele>463.8</ele>
        <time>2023-05-22T07:30:33Z</time>
      </trkpt>
      <trkpt lat="43.57514" lon="6.128">
        <ele>463.6</ele>
      </trkpt>
      <trkpt lat="43.57512" lon="6.1281">
        <ele>463.3</ele>
        <time>2023-05-22T07:30:44Z</time>
      </trkpt>
      <trkpt lat="43.57512" lon="6.12818">
        <ele>462.7</ele>
      </trkpt>
      <trkpt lat="43.57513" lon="6.12826">
        <ele>462.1</ele>
        <time>2023-05-22T07:30:55Z</time>
      </trkpt>
      <trkpt lat="43.57511" lon="6.12833">
        <ele>461.8</ele>
      </trkpt>
      <trkpt lat="43.5751" lon="6.12841">
        <ele>461.6</ele>
        <time>2023-05-22T07:31:05Z</time>
      </trkpt>
      <trkpt lat="43.57509" lon="6.1285">
        <ele>461.2</ele>
      </trkpt>
      <trkpt lat="43.57509" lon="6.12859">
        <ele>460.8</ele>
        <time>2023-05-22T07:31:14Z</time>
      </trkpt>
      <trkpt lat="43.57508" lon="6.12866">
        <ele>460.8</ele>
      </trkpt>
      <trkpt lat="43.57507" lon="6.12873">
        <ele>461</ele>
        <time>2023-05-22T07:31:23Z</time>
      </trkpt>
      <trkpt lat="43.57506" lon="6.12879">
        <ele>461.2</ele>
      </trkpt>
      <trkpt lat="43.57504" lon="6.12886">
        <ele>461.4</ele>
        <time>2023-05-22T07:31:32Z</time>
      </trkpt>
      <trkpt lat="43.57504" lon="6.12894">
        <ele>461.1</ele>
      </trkpt>
      <trkpt lat="43.57503" lon="6.12902">
        <ele>460.7</ele>
        <time>2023-05-22T07:31:41Z</time>
      </trkpt>
      <trkpt lat="43.57503" lon="6.12909">
        <ele>460.3</ele>
      </trkpt>
      <trkpt lat="43.57502" lon="6.12916">
        <ele>459.9</ele>
        <time>2023-05-22T07:31:49Z</time>
      </trkpt>
      <trkpt lat="43.57503" lon="6.12922">
        <ele>460.2</ele>
      </trkpt>
      <trkpt lat="43.57505" lon="6.12929">
        <ele>460.5</ele>
        <time>2023-05-22T07:31:57Z</time>
      </trkpt>
      <trkpt lat="43.57505" lon="6.12935">
        <ele>460.9</ele>
      </trkpt>
      <trkpt lat="43.57506" lon="6.12941">
        <ele>461.3</ele>
        <time>2023-05-22T07:32:06Z</time>
      </trkpt>
      <trkpt lat="43.57509" lon="6.12948">
        <ele>461.6</ele>
      </trkpt>
      <trkpt lat="43.57512" lon="6.12954">
        <ele>461.9</ele>
        <time>2023-05-22T07:32:15Z</time>
      </trkpt>
      <trkpt lat="43.57515" lon="6.12961">
        <ele>462.1</ele>
      </trkpt>
      <trkpt lat="43.57518" lon="6.12967">
        <ele>462.3</ele>
        <time>2023-05-22T07:32:26Z</time>
      </trkpt>
      <trkpt lat="43.5752" lon="6.12973">
        <ele>462.6</ele>
      </trkpt>
      <trkpt lat="43.57522" lon="6.12979">
        <ele>462.6</ele>
        <time>2023-05-22T07:32:37Z</time>
      </trkpt>
      <trkpt lat="43.57522" lon="6.12988">
        <ele>462.9</ele>
      </trkpt>
      <trkpt lat="43.57523" lon="6.12996">
        <ele>463.2</ele>
        <time>2023-05-22T07:32:47Z</time>
      </trkpt>
      <trkpt lat="43.57523" lon="6.13004">
        <ele>463.5</ele>
      </trkpt>
      <trkpt lat="43.57524" lon="6.13012">
        <ele>463.7</ele>
        <time>2023-05-22T07:32:57Z</time>
      </trkpt>
      <trkpt lat="43.57524" lon="6.13021">
        <ele>463.9</ele>
      </trkpt>
      <trkpt lat="43.57524" lon="6.13029">
        <ele>464.1</ele>
        <time>2023-05-22T07:33:08Z</time>
      </trkpt>
      <trkpt lat="43.57522" lon="6.13036">
        <ele>464.2</ele>
      </trkpt>
      <trkpt lat="43.57521" lon="6.13042">
        <ele>464.2</ele>
        <time>2023-05-22T07:33:17Z</time>
      </trkpt>
      <trkpt lat="43.57524" lon="6.1305">
        <ele>464.1</ele>
      </trkpt>
      <trkpt lat="43.57528" lon="6.13059">
        <ele>464</ele>
        <time>2023-05-22T07:33:27Z</time>
      </trkpt>
      <trkpt lat="43.5753" lon="6.13066">
        <ele>463.8</ele>
      </trkpt>
      <trkpt lat="43.57533" lon="6.13074">
        <ele>463.7</ele>
        <time>2023-05-22T07:33:35Z</time>
      </trkpt>
      <trkpt lat="43.57537" lon="6.13082">
        <ele>463.7</ele>
      </trkpt>
      <trkpt lat="43.57541" lon="6.1309">
        <ele>463.5</ele>
        <time>2023-05-22T07:33:44Z</time>
      </trkpt>
      <trkpt lat="43.57542" lon="6.13097">
        <ele>463.5</ele>
      </trkpt>
      <trkpt lat="43.57543" lon="6.13104">
        <ele>463.5</ele>
        <time>2023-05-22T07:33:53Z</time>
      </trkpt>
      <trkpt lat="43.57545" lon="6.13111">
        <ele>463.4</ele>
      </trkpt>
      <trkpt lat="43.57547" lon="6.13118">
        <ele>463.4</ele>
        <time>2023-05-22T07:34:02Z</time>
      </trkpt>
      <trkpt lat="43.57549" lon="6.13124">
        <ele>463.3</ele>
      </trkpt>
      <trkpt lat="43.57552" lon="6.13129">
        <ele>463.2</ele>
        <time>2023-05-22T07:34:11Z</time>
      </trkpt>
      <trkpt lat="43.57553" lon="6.13141">
        <ele>463.1</ele>
        <time>2023-05-22T07:34:20Z</time>
      </trkpt>
      <trkpt lat="43.57555" lon="6.13149">
        <ele>462.7</ele>
      </trkpt>
      <trkpt lat="43.57557" lon="6.13156">
        <ele>462.2</ele>
        <time>2023-05-22T07:34:30Z</time>
      </trkpt>
      <trkpt lat="43.5756" lon="6.13168">
        <ele>461.7</ele>
        <time>2023-05-22T07:34:40Z</time>
      </trkpt>
      <trkpt lat="43.57565" lon="6.13175">
        <ele>461.5</ele>
      </trkpt>
      <trkpt lat="43.57569" lon="6.13183">
        <ele>461.1</ele>
        <time>2023-05-22T07:34:50Z</time>
      </trkpt>
      <trkpt lat="43.5757" lon="6.13191">
        <ele>460.9</ele>
      </trkpt>
      <trkpt lat="43.57571" lon="6.13199">
        <ele>460.7</ele>
        <time>2023-05-22T07:35:00Z</time>
      </trkpt>
      <trkpt lat="43.5757" lon="6.13206">
        <ele>460.7</ele>
      </trkpt>
      <trkpt lat="43.57569" lon="6.13213">
        <ele>460.7</ele>
        <time>2023-05-22T07:35:10Z</time>
      </trkpt>
      <trkpt lat="43.5757" lon="6.13221">
        <ele>460.5</ele>
      </trkpt>
      <trkpt lat="43.5757" lon="6.13229">
        <ele>460.2</ele>
        <time>2023-05-22T07:35:20Z</time>
      </trkpt>
      <trkpt lat="43.57569" lon="6.13237">
        <ele>460</ele>
      </trkpt>
      <trkpt lat="43.57567" lon="6.13246">
        <ele>459.9</ele>
        <time>2023-05-22T07:35:31Z</time>
      </trkpt>
      <trkpt lat="43.57565" lon="6.13255">
        <ele>459.9</ele>
      </trkpt>
      <trkpt lat="43.57563" lon="6.13264">
        <ele>459.8</ele>
        <time>2023-05-22T07:35:43Z</time>
      </trkpt>
      <trkpt lat="43.57562" lon="6.13273">
        <ele>459.7</ele>
      </trkpt>
      <trkpt lat="43.5756" lon="6.13282">
        <ele>459.5</ele>
        <time>2023-05-22T07:35:55Z</time>
      </trkpt>
      <trkpt lat="43.57559" lon="6.1329">
        <ele>459.3</ele>
      </trkpt>
      <trkpt lat="43.57558" lon="6.13298">
        <ele>459.1</ele>
        <time>2023-05-22T07:36:03Z</time>
      </trkpt>
      <trkpt lat="43.57557" lon="6.13306">
        <ele>458.9</ele>
      </trkpt>
      <trkpt lat="43.57556" lon="6.13313">
        <ele>459</ele>
        <time>2023-05-22T07:36:14Z</time>
      </trkpt>
      <trkpt lat="43.57556" lon="6.1332">
        <ele>459</ele>
      </trkpt>
      <trkpt lat="43.57556" lon="6.13326">
        <ele>458.9</ele>
        <time>2023-05-22T07:36:24Z</time>
      </trkpt>
      <trkpt lat="43.5756" lon="6.13334">
        <ele>458.6</ele>
      </trkpt>
      <trkpt lat="43.57563" lon="6.13341">
        <ele>458</ele>
        <time>2023-05-22T07:36:35Z</time>
      </trkpt>
      <trkpt lat="43.57565" lon="6.13351">
        <ele>457.5</ele>
      </trkpt>
      <trkpt lat="43.57568" lon="6.13361">
        <ele>457.1</ele>
        <time>2023-05-22T07:36:46Z</time>
      </trkpt>
      <trkpt lat="43.57569" lon="6.13367">
        <ele>457.1</ele>
      </trkpt>
      <trkpt lat="43.57571" lon="6.13374">
        <ele>457.1</ele>
        <time>2023-05-22T07:36:55Z</time>
      </trkpt>
      <trkpt lat="43.57574" lon="6.13381">
        <ele>456.9</ele>
      </trkpt>
      <trkpt lat="43.57577" lon="6.13387">
        <ele>456.7</ele>
        <time>2023-05-22T07:37:06Z</time>
      </trkpt>
      <trkpt lat="43.5758" lon="6.13396">
        <ele>456.6</ele>
      </trkpt>
      <trkpt lat="43.57582" lon="6.13404">
        <ele>456.7</ele>
        <time>2023-05-22T07:37:16Z</time>
      </trkpt>
      <trkpt lat="43.57583" lon="6.13413">
        <ele>456.9</ele>
      </trkpt>
      <trkpt lat="43.57585" lon="6.13422">
        <ele>457.1</ele>
        <time>2023-05-22T07:37:26Z</time>
      </trkpt>
      <trkpt lat="43.57585" lon="6.1343">
        <ele>457.4</ele>
      </trkpt>
      <trkpt lat="43.57585" lon="6.13438">
        <ele>457.7</ele>
        <time>2023-05-22T07:37:35Z</time>
      </trkpt>
      <trkpt lat="43.57584" lon="6.13445">
        <ele>458.1</ele>
      </trkpt>
      <trkpt lat="43.57583" lon="6.13452">
        <ele>458.6</ele>
        <time>2023-05-22T07:37:45Z</time>
      </trkpt>
      <trkpt lat="43.57587" lon="6.13459">
        <ele>458.9</ele>
      </trkpt>
      <trkpt lat="43.57592" lon="6.13467">
        <ele>459.3</ele>
        <time>2023-05-22T07:37:56Z</time>
      </trkpt>
      <trkpt lat="43.57595" lon="6.13473">
        <ele>459.6</ele>
      </trkpt>
      <trkpt lat="43.57598" lon="6.13479">
        <ele>459.8</ele>
        <time>2023-05-22T07:38:06Z</time>
      </trkpt>
      <trkpt lat="43.576" lon="6.13486">
        <ele>460.2</ele>
      </trkpt>
      <trkpt lat="43.57603" lon="6.13492">
        <ele>460.5</ele>
        <time>2023-05-22T07:38:17Z</time>
      </trkpt>
      <trkpt lat="43.57602" lon="6.135">
        <ele>461</ele>
      </trkpt>
      <trkpt lat="43.576" lon="6.13509">
        <ele>461.3</ele>
        <time>2023-05-22T07:38:28Z</time>
      </trkpt>
      <trkpt lat="43.57598" lon="6.13516">
        <ele>461.6</ele>
      </trkpt>
      <trkpt lat="43.57596" lon="6.13523">
        <ele>461.8</ele>
        <time>2023-05-22T07:38:39Z</time>
      </trkpt>
      <trkpt lat="43.57593" lon="6.13531">
        <ele>462.2</ele>
      </trkpt>
      <trkpt lat="43.57591" lon="6.1354">
        <ele>462.6</ele>
        <time>2023-05-22T07:38:52Z</time>
      </trkpt>
      <trkpt lat="43.57589" lon="6.13547">
        <ele>463.1</ele>
      </trkpt>
      <trkpt lat="43.57588" lon="6.13555">
        <ele>463.6</ele>
        <time>2023-05-22T07:39:03Z</time>
      </trkpt>
      <trkpt lat="43.5759" lon="6.13563">
        <ele>463.6</ele>
      </trkpt>
      <trkpt lat="43.57591" lon="6.13571">
        <ele>463.6</ele>
        <time>2023-05-22T07:39:16Z</time>
      </trkpt>
      <trkpt lat="43.57591" lon="6.13579">
        <ele>463.7</ele>
      </trkpt>
      <trkpt lat="43.5759" lon="6.13587">
        <ele>463.9</ele>
        <time>2023-05-22T07:39:27Z</time>
      </trkpt>
      <trkpt lat="43.57587" lon="6.13596">
        <ele>464.3</ele>
      </trkpt>
      <trkpt lat="43.57584" lon="6.13606">
        <ele>464.8</ele>
        <time>2023-05-22T07:39:38Z</time>
      </trkpt>
      <trkpt lat="43.57584" lon="6.13614">
        <ele>465.1</ele>
      </trkpt>
      <trkpt lat="43.57584" lon="6.13622">
        <ele>465.4</ele>
        <time>2023-05-22T07:39:49Z</time>
      </trkpt>
      <trkpt lat="43.57583" lon="6.1363">
        <ele>465.7</ele>
      </trkpt>
      <trkpt lat="43.57583" lon="6.13638">
        <ele>466</ele>
        <time>2023-05-22T07:40:01Z</time>
      </trkpt>
      <trkpt lat="43.57584" lon="6.13646">
        <ele>466</ele>
      </trkpt>
      <trkpt lat="43.57585" lon="6.13654">
        <ele>465.8</ele>
        <time>2023-05-22T07:40:12Z</time>
      </trkpt>
      <trkpt lat="43.57585" lon="6.13663">
        <ele>465.8</ele>
      </trkpt>
      <trkpt lat="43.57585" lon="6.13673">
        <ele>465.8</ele>
        <time>2023-05-22T07:40:23Z</time>
      </trkpt>
      <trkpt lat="43.57585" lon="6.1368">
        <ele>465.9</ele>
      </trkpt>
      <trkpt lat="43.57584" lon="6.13688">
        <ele>465.9</ele>
        <time>2023-05-22T07:40:34Z</time>
      </trkpt>
      <trkpt lat="43.57587" lon="6.13696">
        <ele>465.6</ele>
      </trkpt>
      <trkpt lat="43.5759" lon="6.13703">
        <ele>465.4</ele>
        <time>2023-05-22T07:40:46Z</time>
      </trkpt>
      <trkpt lat="43.57591" lon="6.13712">
        <ele>465.3</ele>
      </trkpt>
      <trkpt lat="43.57593" lon="6.1372">
        <ele>465.3</ele>
        <time>2023-05-22T07:40:58Z</time>
      </trkpt>
      <trkpt lat="43.57599" lon="6.13727">
        <ele>464.9</ele>
      </trkpt>
      <trkpt lat="43.57606" lon="6.13735">
        <ele>464.7</ele>
        <time>2023-05-22T07:41:09Z</time>
      </trkpt>
      <trkpt lat="43.5761" lon="6.13737">
        <ele>464.6</ele>
      </trkpt>
      <trkpt lat="43.57615" lon="6.13739">
        <ele>464.3</ele>
        <time>2023-05-22T07:41:20Z</time>
      </trkpt>
      <trkpt lat="43.57622" lon="6.13738">
        <ele>463.6</ele>
        <time>2023-05-22T07:41:29Z</time>
      </trkpt>
      <trkpt lat="43.57627" lon="6.13738">
        <ele>463.2</ele>
      </trkpt>
      <trkpt lat="43.57632" lon="6.13738">
        <ele>462.8</ele>
        <time>2023-05-22T07:41:40Z</time>
      </trkpt>
      <trkpt lat="43.57639" lon="6.13742">
        <ele>462.4</ele>
      </trkpt>
      <trkpt lat="43.57647" lon="6.13745">
        <ele>462.1</ele>
        <time>2023-05-22T07:41:51Z</time>
      </trkpt>
      <trkpt lat="43.57655" lon="6.13746">
        <ele>461.6</ele>
        <time>2023-05-22T07:42:03Z</time>
      </trkpt>
      <trkpt lat="43.57661" lon="6.13751">
        <ele>461.4</ele>
      </trkpt>
      <trkpt lat="43.57667" lon="6.13755">
        <ele>461.2</ele>
        <time>2023-05-22T07:42:13Z</time>
      </trkpt>
      <trkpt lat="43.5767" lon="6.1376">
        <ele>461</ele>
      </trkpt>
      <trkpt lat="43.57673" lon="6.13765">
        <ele>460.8</ele>
        <time>2023-05-22T07:42:22Z</time>
      </trkpt>
      <trkpt lat="43.57679" lon="6.13772">
        <ele>460.5</ele>
      </trkpt>
      <trkpt lat="43.57684" lon="6.1378">
        <ele>460.3</ele>
        <time>2023-05-22T07:42:31Z</time>
      </trkpt>
      <trkpt lat="43.57685" lon="6.13786">
        <ele>460.6</ele>
      </trkpt>
      <trkpt lat="43.57687" lon="6.13792">
        <ele>460.9</ele>
        <time>2023-05-22T07:42:40Z</time>
      </trkpt>
      <trkpt lat="43.57687" lon="6.13799">
        <ele>461.3</ele>
      </trkpt>
      <trkpt lat="43.57688" lon="6.13805">
        <ele>461.7</ele>
        <time>2023-05-22T07:42:50Z</time>
      </trkpt>
      <trkpt lat="43.57692" lon="6.13814">
        <ele>461.6</ele>
      </trkpt>
      <trkpt lat="43.57695" lon="6.13822">
        <ele>461.6</ele>
        <time>2023-05-22T07:43:01Z</time>
      </trkpt>
      <trkpt lat="43.57697" lon="6.13829">
        <ele>461.7</ele>
      </trkpt>
      <trkpt lat="43.57698" lon="6.13835">
        <ele>461.8</ele>
        <time>2023-05-22T07:43:12Z</time>
      </trkpt>
      <trkpt lat="43.57701" lon="6.13842">
        <ele>461.9</ele>
      </trkpt>
      <trkpt lat="43.57703" lon="6.13849">
        <ele>462</ele>
        <time>2023-05-22T07:43:22Z</time>
      </trkpt>
      <trkpt lat="43.57703" lon="6.13857">
        <ele>462.3</ele>
      </trkpt>
      <trkpt lat="43.57702" lon="6.13865">
        <ele>462.4</ele>
        <time>2023-05-22T07:43:32Z</time>
      </trkpt>
      <trkpt lat="43.57706" lon="6.1387">
        <ele>462.1</ele>
      </trkpt>
      <trkpt lat="43.5771" lon="6.13876">
        <ele>461.9</ele>
        <time>2023-05-22T07:43:41Z</time>
      </trkpt>
      <trkpt lat="43.57712" lon="6.13887">
        <ele>461.8</ele>
        <time>2023-05-22T07:43:51Z</time>
      </trkpt>
      <trkpt lat="43.57713" lon="6.13894">
        <ele>461.6</ele>
      </trkpt>
      <trkpt lat="43.57715" lon="6.13901">
        <ele>461.5</ele>
        <time>2023-05-22T07:44:02Z</time>
      </trkpt>
      <trkpt lat="43.57717" lon="6.13904">
        <ele>461.4</ele>
        <time>2023-05-22T07:44:48Z</time>
      </trkpt>
      <trkpt lat="43.57721" lon="6.1391">
        <ele>461.1</ele>
      </trkpt>
      <trkpt lat="43.57725" lon="6.13916">
        <ele>460.7</ele>
        <time>2023-05-22T07:48:01Z</time>
      </trkpt>
      <trkpt lat="43.57728" lon="6.13923">
        <ele>460.4</ele>
      </trkpt>
      <trkpt lat="43.57731" lon="6.1393">
        <ele>460.2</ele>
        <time>2023-05-22T07:48:14Z</time>
      </trkpt>
      <trkpt lat="43.57734" lon="6.13935">
        <ele>460</ele>
      </trkpt>
      <trkpt lat="43.57738" lon="6.1394">
        <ele>459.8</ele>
        <time>2023-05-22T07:48:23Z</time>
      </trkpt>
      <trkpt lat="43.57742" lon="6.13944">
        <ele>459.6</ele>
      </trkpt>
      <trkpt lat="43.57746" lon="6.13948">
        <ele>459.4</ele>
        <time>2023-05-22T07:48:33Z</time>
      </trkpt>
      <trkpt lat="43.5775" lon="6.13952">
        <ele>459.2</ele>
      </trkpt>
      <trkpt lat="43.57755" lon="6.13956">
        <ele>459.3</ele>
        <time>2023-05-22T07:48:44Z</time>
      </trkpt>
      <trkpt lat="43.57762" lon="6.13962">
        <ele>459.5</ele>
      </trkpt>
      <trkpt lat="43.5777" lon="6.13969">
        <ele>459.8</ele>
        <time>2023-05-22T07:48:53Z</time>
      </trkpt>
      <trkpt lat="43.57777" lon="6.13976">
        <ele>460.1</ele>
        <time>2023-05-22T07:49:02Z</time>
      </trkpt>
      <trkpt lat="43.57782" lon="6.13979">
        <ele>460.2</ele>
      </trkpt>
      <trkpt lat="43.57787" lon="6.13982">
        <ele>460.4</ele>
        <time>2023-05-22T07:49:13Z</time>
      </trkpt>
      <trkpt lat="43.57792" lon="6.13988">
        <ele>460.6</ele>
      </trkpt>
      <trkpt lat="43.57798" lon="6.13994">
        <ele>460.8</ele>
        <time>2023-05-22T07:49:21Z</time>
      </trkpt>
      <trkpt lat="43.57802" lon="6.13999">
        <ele>461</ele>
      </trkpt>
      <trkpt lat="43.57806" lon="6.14004">
        <ele>461.1</ele>
        <time>2023-05-22T07:49:29Z</time>
      </trkpt>
      <trkpt lat="43.57809" lon="6.1401">
        <ele>461.3</ele>
      </trkpt>
      <trkpt lat="43.57811" lon="6.14016">
        <ele>461.5</ele>
        <time>2023-05-22T07:49:38Z</time>
      </trkpt>
      <trkpt lat="43.57815" lon="6.14021">
        <ele>461.5</ele>
      </trkpt>
      <trkpt lat="43.57818" lon="6.14026">
        <ele>461.5</ele>
        <time>2023-05-22T07:49:47Z</time>
      </trkpt>
      <trkpt lat="43.57824" lon="6.14034">
        <ele>461.3</ele>
        <time>2023-05-22T07:49:55Z</time>
      </trkpt>
      <trkpt lat="43.57829" lon="6.14044">
        <ele>461.1</ele>
        <time>2023-05-22T07:50:03Z</time>
      </trkpt>
      <trkpt lat="43.57833" lon="6.14048">
        <ele>461</ele>
      </trkpt>
      <trkpt lat="43.57836" lon="6.14053">
        <ele>460.9</ele>
        <time>2023-05-22T07:50:11Z</time>
      </trkpt>
      <trkpt lat="43.57839" lon="6.14059">
        <ele>460.9</ele>
      </trkpt>
      <trkpt lat="43.57842" lon="6.14066">
        <ele>461.1</ele>
        <time>2023-05-22T07:50:20Z</time>
      </trkpt>
      <trkpt lat="43.57844" lon="6.14077">
        <ele>461.4</ele>
        <time>2023-05-22T07:50:27Z</time>
      </trkpt>
      <trkpt lat="43.57842" lon="6.14087">
        <ele>461.7</ele>
      </trkpt>
      <trkpt lat="43.5784" lon="6.14098">
        <ele>461.8</ele>
        <time>2023-05-22T07:50:37Z</time>
      </trkpt>
      <trkpt lat="43.57842" lon="6.14106">
        <ele>461.7</ele>
      </trkpt>
      <trkpt lat="43.57845" lon="6.14114">
        <ele>461.5</ele>
        <time>2023-05-22T07:50:48Z</time>
      </trkpt>
      <trkpt lat="43.57847" lon="6.14122">
        <ele>461.3</ele>
      </trkpt>
      <trkpt lat="43.57848" lon="6.14131">
        <ele>461.1</ele>
        <time>2023-05-22T07:50:57Z</time>
      </trkpt>
      <trkpt lat="43.57851" lon="6.14138">
        <ele>460.7</ele>
      </trkpt>
      <trkpt lat="43.57854" lon="6.14145">
        <ele>460.5</ele>
        <time>2023-05-22T07:51:07Z</time>
      </trkpt>
      <trkpt lat="43.57859" lon="6.14151">
        <ele>460.2</ele>
      </trkpt>
      <trkpt lat="43.57863" lon="6.14157">
        <ele>459.9</ele>
        <time>2023-05-22T07:51:17Z</time>
      </trkpt>
      <trkpt lat="43.57865" lon="6.14166">
        <ele>459.7</ele>
      </trkpt>
      <trkpt lat="43.57868" lon="6.14175">
        <ele>459.8</ele>
        <time>2023-05-22T07:51:27Z</time>
      </trkpt>
      <trkpt lat="43.57866" lon="6.14183">
        <ele>460.1</ele>
      </trkpt>
      <trkpt lat="43.57865" lon="6.14191">
        <ele>460.5</ele>
        <time>2023-05-22T07:51:36Z</time>
      </trkpt>
      <trkpt lat="43.57865" lon="6.14198">
        <ele>460.7</ele>
      </trkpt>
      <trkpt lat="43.57865" lon="6.14205">
        <ele>461</ele>
        <time>2023-05-22T07:51:45Z</time>
      </trkpt>
      <trkpt lat="43.57866" lon="6.14212">
        <ele>461.1</ele>
      </trkpt>
      <trkpt lat="43.57867" lon="6.14219">
        <ele>461.2</ele>
        <time>2023-05-22T07:51:54Z</time>
      </trkpt>
      <trkpt lat="43.5787" lon="6.14226">
        <ele>461.1</ele>
      </trkpt>
      <trkpt lat="43.57872" lon="6.14232">
        <ele>461.1</ele>
        <time>2023-05-22T07:52:06Z</time>
      </trkpt>
      <trkpt lat="43.57875" lon="6.14237">
        <ele>461</ele>
      </trkpt>
      <trkpt lat="43.57878" lon="6.14243">
        <ele>461.1</ele>
        <time>2023-05-22T07:52:14Z</time>
      </trkpt>
      <trkpt lat="43.57882" lon="6.1425">
        <ele>461.3</ele>
      </trkpt>
      <trkpt lat="43.57887" lon="6.14257">
        <ele>461.3</ele>
      </trkpt>
      <trkpt lat="43.57891" lon="6.14265">
        <ele>461.4</ele>
      </trkpt>
      <trkpt lat="43.57896" lon="6.14272">
        <ele>461.5</ele>
        <time>2023-05-22T07:52:33Z</time>
      </trkpt>
      <trkpt lat="43.57901" lon="6.14278">
        <ele>461.6</ele>
      </trkpt>
      <trkpt lat="43.57907" lon="6.14285">
        <ele>461.6</ele>
        <time>2023-05-22T07:52:45Z</time>
      </trkpt>
      <trkpt lat="43.57908" lon="6.14295">
        <ele>461.9</ele>
      </trkpt>
      <trkpt lat="43.5791" lon="6.14306">
        <ele>462.2</ele>
        <time>2023-05-22T07:53:00Z</time>
      </trkpt>
      <trkpt lat="43.57913" lon="6.14317">
        <ele>461.7</ele>
      </trkpt>
      <trkpt lat="43.57917" lon="6.14328">
        <ele>461.2</ele>
        <time>2023-05-22T07:53:14Z</time>
      </trkpt>
      <trkpt lat="43.57919" lon="6.14334">
        <ele>460.8</ele>
      </trkpt>
      <trkpt lat="43.57921" lon="6.14341">
        <ele>460.6</ele>
      </trkpt>
      <trkpt lat="43.57924" lon="6.14347">
        <ele>460.4</ele>
      </trkpt>
      <trkpt lat="43.57926" lon="6.14353">
        <ele>460.1</ele>
        <time>2023-05-22T07:53:29Z</time>
      </trkpt>
      <trkpt lat="43.57924" lon="6.14362">
        <ele>460.2</ele>
      </trkpt>
      <trkpt lat="43.57922" lon="6.14371">
        <ele>460.5</ele>
        <time>2023-05-22T07:53:40Z</time>
      </trkpt>
      <trkpt lat="43.57927" lon="6.1437">
        <ele>460</ele>
      </trkpt>
      <trkpt lat="43.57932" lon="6.14369">
        <ele>459.5</ele>
        <time>2023-05-22T07:53:51Z</time>
      </trkpt>
      <trkpt lat="43.5794" lon="6.14366">
        <ele>458.7</ele>
        <time>2023-05-22T07:54:01Z</time>
      </trkpt>
      <trkpt lat="43.57946" lon="6.14366">
        <ele>458.1</ele>
      </trkpt>
      <trkpt lat="43.57952" lon="6.14367">
        <ele>457.5</ele>
        <time>2023-05-22T07:54:10Z</time>
      </trkpt>
      <trkpt lat="43.57957" lon="6.14364">
        <ele>456.8</ele>
      </trkpt>
      <trkpt lat="43.57962" lon="6.14361">
        <ele>456.1</ele>
        <time>2023-05-22T07:54:18Z</time>
      </trkpt>
      <trkpt lat="43.57968" lon="6.14352">
        <ele>455.2</ele>
        <time>2023-05-22T07:54:27Z</time>
      </trkpt>
      <trkpt lat="43.57973" lon="6.14348">
        <ele>454.4</ele>
      </trkpt>
      <trkpt lat="43.57979" lon="6.14343">
        <ele>453.8</ele>
        <time>2023-05-22T07:54:37Z</time>
      </trkpt>
      <trkpt lat="43.57983" lon="6.14337">
        <ele>453.1</ele>
      </trkpt>
      <trkpt lat="43.57987" lon="6.14331">
        <ele>452.4</ele>
        <time>2023-05-22T07:54:45Z</time>
      </trkpt>
      <trkpt lat="43.57994" lon="6.14327">
        <ele>451.5</ele>
        <time>2023-05-22T07:54:53Z</time>
      </trkpt>
      <trkpt lat="43.58003" lon="6.14331">
        <ele>450.7</ele>
        <time>2023-05-22T07:55:03Z</time>
      </trkpt>
      <trkpt lat="43.58009" lon="6.14334">
        <ele>450.5</ele>
      </trkpt>
      <trkpt lat="43.58015" lon="6.14338">
        <ele>450.4</ele>
        <time>2023-05-22T07:55:12Z</time>
      </trkpt>
      <trkpt lat="43.58021" lon="6.14339">
        <ele>450.1</ele>
      </trkpt>
      <trkpt lat="43.58027" lon="6.14339">
        <ele>449.7</ele>
        <time>2023-05-22T07:55:22Z</time>
      </trkpt>
      <trkpt lat="43.58032" lon="6.14341">
        <ele>450.2</ele>
      </trkpt>
      <trkpt lat="43.58037" lon="6.14343">
        <ele>450.8</ele>
        <time>2023-05-22T07:55:31Z</time>
      </trkpt>
      <trkpt lat="43.58044" lon="6.14349">
        <ele>451.8</ele>
      </trkpt>
      <trkpt lat="43.5805" lon="6.14356">
        <ele>452.6</ele>
        <time>2023-05-22T07:55:42Z</time>
      </trkpt>
      <trkpt lat="43.58049" lon="6.14368">
        <ele>452.9</ele>
        <time>2023-05-22T07:55:51Z</time>
      </trkpt>
      <trkpt lat="43.58055" lon="6.14376">
        <ele>453</ele>
      </trkpt>
      <trkpt lat="43.5806" lon="6.14383">
        <ele>452.7</ele>
        <time>2023-05-22T07:56:05Z</time>
      </trkpt>
      <trkpt lat="43.58065" lon="6.1439">
        <ele>452.3</ele>
      </trkpt>
      <trkpt lat="43.58071" lon="6.14398">
        <ele>452.1</ele>
        <time>2023-05-22T07:56:15Z</time>
      </trkpt>
      <trkpt lat="43.5807" lon="6.14405">
        <ele>452.2</ele>
      </trkpt>
      <trkpt lat="43.5807" lon="6.14413">
        <ele>452.4</ele>
        <time>2023-05-22T07:56:24Z</time>
      </trkpt>
      <trkpt lat="43.58071" lon="6.14419">
        <ele>452.5</ele>
      </trkpt>
      <trkpt lat="43.58072" lon="6.14425">
        <ele>452.7</ele>
        <time>2023-05-22T07:56:33Z</time>
      </trkpt>
      <trkpt lat="43.58074" lon="6.14432">
        <ele>452.9</ele>
      </trkpt>
      <trkpt lat="43.58077" lon="6.14439">
        <ele>453</ele>
        <time>2023-05-22T07:56:42Z</time>
      </trkpt>
      <trkpt lat="43.58076" lon="6.14446">
        <ele>453.3</ele>
      </trkpt>
      <trkpt lat="43.58076" lon="6.14453">
        <ele>453.3</ele>
        <time>2023-05-22T07:56:51Z</time>
      </trkpt>
      <trkpt lat="43.58084" lon="6.14457">
        <ele>453</ele>
        <time>2023-05-22T07:56:59Z</time>
      </trkpt>
      <trkpt lat="43.58088" lon="6.14457">
        <ele>452.9</ele>
      </trkpt>
      <trkpt lat="43.58093" lon="6.14456">
        <ele>452.8</ele>
        <time>2023-05-22T07:57:07Z</time>
      </trkpt>
      <trkpt lat="43.58102" lon="6.14453">
        <ele>452.5</ele>
        <time>2023-05-22T07:57:15Z</time>
      </trkpt>
      <trkpt lat="43.58107" lon="6.14452">
        <ele>452.4</ele>
      </trkpt>
      <trkpt lat="43.58112" lon="6.14452">
        <ele>452.3</ele>
        <time>2023-05-22T07:57:23Z</time>
      </trkpt>
      <trkpt lat="43.58117" lon="6.14451">
        <ele>452.2</ele>
      </trkpt>
      <trkpt lat="43.58122" lon="6.1445">
        <ele>452.1</ele>
        <time>2023-05-22T07:57:31Z</time>
      </trkpt>
      <trkpt lat="43.58127" lon="6.1445">
        <ele>452.1</ele>
      </trkpt>
      <trkpt lat="43.58132" lon="6.14451">
        <ele>452.1</ele>
        <time>2023-05-22T07:57:39Z</time>
      </trkpt>
      <trkpt lat="43.58137" lon="6.14452">
        <ele>452</ele>
      </trkpt>
      <trkpt lat="43.58143" lon="6.14452">
        <ele>451.9</ele>
        <time>2023-05-22T07:57:47Z</time>
      </trkpt>
      <trkpt lat="43.58148" lon="6.14456">
        <ele>451.7</ele>
      </trkpt>
      <trkpt lat="43.58152" lon="6.14459">
        <ele>451.5</ele>
        <time>2023-05-22T07:57:56Z</time>
      </trkpt>
      <trkpt lat="43.58159" lon="6.14459">
        <ele>451.3</ele>
        <time>2023-05-22T07:58:05Z</time>
      </trkpt>
      <trkpt lat="43.58164" lon="6.14459">
        <ele>451.1</ele>
      </trkpt>
      <trkpt lat="43.58169" lon="6.1446">
        <ele>450.9</ele>
        <time>2023-05-22T07:58:15Z</time>
      </trkpt>
      <trkpt lat="43.58176" lon="6.14461">
        <ele>450.5</ele>
      </trkpt>
      <trkpt lat="43.58182" lon="6.14463">
        <ele>450.2</ele>
        <time>2023-05-22T07:58:23Z</time>
      </trkpt>
      <trkpt lat="43.58188" lon="6.14465">
        <ele>450</ele>
      </trkpt>
      <trkpt lat="43.58194" lon="6.14467">
        <ele>449.8</ele>
        <time>2023-05-22T07:58:34Z</time>
      </trkpt>
      <trkpt lat="43.58199" lon="6.1447">
        <ele>449.6</ele>
      </trkpt>
      <trkpt lat="43.58204" lon="6.14473">
        <ele>449.3</ele>
        <time>2023-05-22T07:58:44Z</time>
      </trkpt>
      <trkpt lat="43.58205" lon="6.1448">
        <ele>449.4</ele>
        <time>2023-05-22T07:59:11Z</time>
      </trkpt>
      <trkpt lat="43.58209" lon="6.1448">
        <ele>449.1</ele>
        <time>2023-05-22T07:59:59Z</time>
      </trkpt>
      <trkpt lat="43.58214" lon="6.14485">
        <ele>448.9</ele>
      </trkpt>
      <trkpt lat="43.58218" lon="6.14489">
        <ele>448.8</ele>
        <time>2023-05-22T08:00:11Z</time>
      </trkpt>
      <trkpt lat="43.58224" lon="6.14491">
        <ele>448.6</ele>
      </trkpt>
      <trkpt lat="43.5823" lon="6.14494">
        <ele>448.5</ele>
        <time>2023-05-22T08:00:23Z</time>
      </trkpt>
      <trkpt lat="43.58235" lon="6.14493">
        <ele>448.3</ele>
      </trkpt>
      <trkpt lat="43.5824" lon="6.14492">
        <ele>448.1</ele>
        <time>2023-05-22T08:00:35Z</time>
      </trkpt>
      <trkpt lat="43.58247" lon="6.14495">
        <ele>447.9</ele>
      </trkpt>
      <trkpt lat="43.58254" lon="6.14497">
        <ele>447.7</ele>
        <time>2023-05-22T08:00:46Z</time>
      </trkpt>
      <trkpt lat="43.58258" lon="6.14499">
        <ele>447.4</ele>
      </trkpt>
      <trkpt lat="43.58263" lon="6.14501">
        <ele>447.1</ele>
        <time>2023-05-22T08:00:55Z</time>
      </trkpt>
      <trkpt lat="43.58269" lon="6.14501">
        <ele>446.7</ele>
      </trkpt>
      <trkpt lat="43.58274" lon="6.145">
        <ele>446.2</ele>
        <time>2023-05-22T08:01:05Z</time>
      </trkpt>
      <trkpt lat="43.58279" lon="6.14501">
        <ele>445.9</ele>
      </trkpt>
      <trkpt lat="43.58284" lon="6.14501">
        <ele>445.6</ele>
        <time>2023-05-22T08:01:16Z</time>
      </trkpt>
      <trkpt lat="43.58288" lon="6.14497">
        <ele>445.4</ele>
      </trkpt>
      <trkpt lat="43.58291" lon="6.14493">
        <ele>445.3</ele>
      </trkpt>
      <trkpt lat="43.58295" lon="6.14489">
        <ele>445.2</ele>
      </trkpt>
      <trkpt lat="43.58299" lon="6.14485">
        <ele>445.1</ele>
        <time>2023-05-22T08:01:28Z</time>
      </trkpt>
      <trkpt lat="43.58304" lon="6.1448">
        <ele>444.8</ele>
      </trkpt>
      <trkpt lat="43.5831" lon="6.14475">
        <ele>444.6</ele>
        <time>2023-05-22T08:01:39Z</time>
      </trkpt>
      <trkpt lat="43.58312" lon="6.14469">
        <ele>444.5</ele>
      </trkpt>
      <trkpt lat="43.58315" lon="6.14463">
        <ele>444.5</ele>
        <time>2023-05-22T08:01:48Z</time>
      </trkpt>
      <trkpt lat="43.58317" lon="6.14457">
        <ele>444.4</ele>
      </trkpt>
      <trkpt lat="43.58319" lon="6.14451">
        <ele>444.4</ele>
        <time>2023-05-22T08:01:59Z</time>
      </trkpt>
      <trkpt lat="43.58323" lon="6.14443">
        <ele>444.4</ele>
      </trkpt>
      <trkpt lat="43.58327" lon="6.14435">
        <ele>444.3</ele>
        <time>2023-05-22T08:02:13Z</time>
      </trkpt>
      <trkpt lat="43.58327" lon="6.14425">
        <ele>444.4</ele>
      </trkpt>
      <trkpt lat="43.58327" lon="6.14414">
        <ele>444.4</ele>
        <time>2023-05-22T08:02:27Z</time>
      </trkpt>
      <trkpt lat="43.58331" lon="6.14407">
        <ele>444.1</ele>
      </trkpt>
      <trkpt lat="43.58335" lon="6.14401">
        <ele>443.8</ele>
        <time>2023-05-22T08:02:38Z</time>
      </trkpt>
      <trkpt lat="43.58339" lon="6.14395">
        <ele>443.2</ele>
      </trkpt>
      <trkpt lat="43.58343" lon="6.14389">
        <ele>442.6</ele>
        <time>2023-05-22T08:02:50Z</time>
      </trkpt>
      <trkpt lat="43.58347" lon="6.14381">
        <ele>442</ele>
      </trkpt>
      <trkpt lat="43.58352" lon="6.14374">
        <ele>441.7</ele>
        <time>2023-05-22T08:03:04Z</time>
      </trkpt>
      <trkpt lat="43.58355" lon="6.14368">
        <ele>441.7</ele>
      </trkpt>
      <trkpt lat="43.58358" lon="6.14363">
        <ele>441.9</ele>
        <time>2023-05-22T08:03:15Z</time>
      </trkpt>
      <trkpt lat="43.58366" lon="6.14361">
        <ele>440.5</ele>
      </trkpt>
      <trkpt lat="43.58374" lon="6.1436">
        <ele>438.3</ele>
        <time>2023-05-22T08:03:26Z</time>
      </trkpt>
      <trkpt lat="43.58378" lon="6.14367">
        <ele>436.5</ele>
      </trkpt>
      <trkpt lat="43.58381" lon="6.14373">
        <ele>434.5</ele>
        <time>2023-05-22T08:03:38Z</time>
      </trkpt>
      <trkpt lat="43.58382" lon="6.14381">
        <ele>433.1</ele>
      </trkpt>
      <trkpt lat="43.58382" lon="6.14388">
        <ele>431.7</ele>
        <time>2023-05-22T08:03:49Z</time>
      </trkpt>
      <trkpt lat="43.58385" lon="6.14393">
        <ele>430.3</ele>
      </trkpt>
      <trkpt lat="43.58388" lon="6.14399">
        <ele>428.9</ele>
        <time>2023-05-22T08:04:03Z</time>
      </trkpt>
      <trkpt lat="43.58395" lon="6.14393">
        <ele>426.5</ele>
        <time>2023-05-22T08:04:13Z</time>
      </trkpt>
      <trkpt lat="43.58402" lon="6.14387">
        <ele>424.7</ele>
        <time>2023-05-22T08:04:25Z</time>
      </trkpt>
      <trkpt lat="43.58407" lon="6.14383">
        <ele>423.3</ele>
      </trkpt>
      <trkpt lat="43.58412" lon="6.14379">
        <ele>421.8</ele>
        <time>2023-05-22T08:04:37Z</time>
      </trkpt>
      <trkpt lat="43.58416" lon="6.14374">
        <ele>421</ele>
      </trkpt>
      <trkpt lat="43.58419" lon="6.1437">
        <ele>420.4</ele>
        <time>2023-05-22T08:04:49Z</time>
      </trkpt>
      <trkpt lat="43.58425" lon="6.14376">
        <ele>418.2</ele>
      </trkpt>
      <trkpt lat="43.58431" lon="6.14381">
        <ele>416.1</ele>
        <time>2023-05-22T08:05:01Z</time>
      </trkpt>
      <trkpt lat="43.58434" lon="6.14387">
        <ele>414.8</ele>
      </trkpt>
      <trkpt lat="43.58437" lon="6.14394">
        <ele>413.6</ele>
        <time>2023-05-22T08:05:12Z</time>
      </trkpt>
      <trkpt lat="43.5844" lon="6.144">
        <ele>412.4</ele>
      </trkpt>
      <trkpt lat="43.58443" lon="6.14406">
        <ele>411.2</ele>
        <time>2023-05-22T08:05:22Z</time>
      </trkpt>
      <trkpt lat="43.58445" lon="6.14414">
        <ele>410.2</ele>
      </trkpt>
      <trkpt lat="43.58446" lon="6.14421">
        <ele>409.6</ele>
        <time>2023-05-22T08:05:32Z</time>
      </trkpt>
      <trkpt lat="43.58448" lon="6.14428">
        <ele>409.2</ele>
      </trkpt>
      <trkpt lat="43.58449" lon="6.14435">
        <ele>408.8</ele>
        <time>2023-05-22T08:05:41Z</time>
      </trkpt>
      <trkpt lat="43.58449" lon="6.14442">
        <ele>408.6</ele>
      </trkpt>
      <trkpt lat="43.58448" lon="6.14449">
        <ele>408.4</ele>
        <time>2023-05-22T08:05:51Z</time>
      </trkpt>
      <trkpt lat="43.58451" lon="6.14455">
        <ele>408</ele>
      </trkpt>
      <trkpt lat="43.58453" lon="6.14461">
        <ele>407.5</ele>
        <time>2023-05-22T08:06:00Z</time>
      </trkpt>
      <trkpt lat="43.58456" lon="6.14467">
        <ele>407</ele>
      </trkpt>
      <trkpt lat="43.58459" lon="6.14472">
        <ele>406.4</ele>
        <time>2023-05-22T08:06:09Z</time>
      </trkpt>
      <trkpt lat="43.58462" lon="6.14478">
        <ele>406</ele>
      </trkpt>
      <trkpt lat="43.58464" lon="6.14484">
        <ele>405.6</ele>
        <time>2023-05-22T08:06:19Z</time>
      </trkpt>
      <trkpt lat="43.58466" lon="6.14496">
        <ele>405</ele>
        <time>2023-05-22T08:06:28Z</time>
      </trkpt>
      <trkpt lat="43.58465" lon="6.14503">
        <ele>404.9</ele>
      </trkpt>
      <trkpt lat="43.58464" lon="6.14511">
        <ele>404.8</ele>
        <time>2023-05-22T08:06:37Z</time>
      </trkpt>
      <trkpt lat="43.58467" lon="6.14522">
        <ele>404.2</ele>
        <time>2023-05-22T08:06:55Z</time>
      </trkpt>
      <trkpt lat="43.58467" lon="6.14534">
        <ele>403.7</ele>
        <time>2023-05-22T08:07:04Z</time>
      </trkpt>
      <trkpt lat="43.58466" lon="6.1454">
        <ele>403.7</ele>
      </trkpt>
      <trkpt lat="43.58464" lon="6.14546">
        <ele>403.7</ele>
        <time>2023-05-22T08:07:13Z</time>
      </trkpt>
      <trkpt lat="43.58462" lon="6.14553">
        <ele>403.9</ele>
      </trkpt>
      <trkpt lat="43.58459" lon="6.14561">
        <ele>404.3</ele>
        <time>2023-05-22T08:07:22Z</time>
      </trkpt>
      <trkpt lat="43.58457" lon="6.14567">
        <ele>404.7</ele>
      </trkpt>
      <trkpt lat="43.58455" lon="6.14574">
        <ele>405.2</ele>
        <time>2023-05-22T08:07:32Z</time>
      </trkpt>
      <trkpt lat="43.58455" lon="6.14587">
        <ele>404.9</ele>
        <time>2023-05-22T08:07:42Z</time>
      </trkpt>
      <trkpt lat="43.58454" lon="6.14594">
        <ele>404.5</ele>
      </trkpt>
      <trkpt lat="43.58453" lon="6.14602">
        <ele>404.1</ele>
        <time>2023-05-22T08:07:54Z</time>
      </trkpt>
      <trkpt lat="43.58451" lon="6.14609">
        <ele>403.9</ele>
      </trkpt>
      <trkpt lat="43.5845" lon="6.14616">
        <ele>403.8</ele>
        <time>2023-05-22T08:08:03Z</time>
      </trkpt>
      <trkpt lat="43.58448" lon="6.14623">
        <ele>403.8</ele>
      </trkpt>
      <trkpt lat="43.58447" lon="6.14629">
        <ele>403.7</ele>
        <time>2023-05-22T08:08:12Z</time>
      </trkpt>
      <trkpt lat="43.58446" lon="6.14637">
        <ele>403.7</ele>
      </trkpt>
      <trkpt lat="43.58445" lon="6.14644">
        <ele>403.4</ele>
        <time>2023-05-22T08:08:22Z</time>
      </trkpt>
      <trkpt lat="43.58441" lon="6.14651">
        <ele>404.2</ele>
      </trkpt>
      <trkpt lat="43.58437" lon="6.14658">
        <ele>404.9</ele>
        <time>2023-05-22T08:08:34Z</time>
      </trkpt>
      <trkpt lat="43.58433" lon="6.14662">
        <ele>405.9</ele>
      </trkpt>
      <trkpt lat="43.58428" lon="6.14667">
        <ele>406.7</ele>
        <time>2023-05-22T08:08:47Z</time>
      </trkpt>
      <trkpt lat="43.58423" lon="6.14673">
        <ele>407.7</ele>
      </trkpt>
      <trkpt lat="43.58418" lon="6.14678">
        <ele>408.6</ele>
        <time>2023-05-22T08:08:59Z</time>
      </trkpt>
      <trkpt lat="43.58412" lon="6.14685">
        <ele>409</ele>
      </trkpt>
      <trkpt lat="43.58407" lon="6.14691">
        <ele>409.4</ele>
        <time>2023-05-22T08:09:10Z</time>
      </trkpt>
      <trkpt lat="43.58402" lon="6.14696">
        <ele>409.9</ele>
      </trkpt>
      <trkpt lat="43.58397" lon="6.14701">
        <ele>410.2</ele>
        <time>2023-05-22T08:09:23Z</time>
      </trkpt>
      <trkpt lat="43.58393" lon="6.14704">
        <ele>410.4</ele>
      </trkpt>
      <trkpt lat="43.58389" lon="6.14708">
        <ele>410.6</ele>
      </trkpt>
      <trkpt lat="43.58385" lon="6.14711">
        <ele>411.3</ele>
      </trkpt>
      <trkpt lat="43.58381" lon="6.14714">
        <ele>411.8</ele>
        <time>2023-05-22T08:09:35Z</time>
      </trkpt>
      <trkpt lat="43.58378" lon="6.14722">
        <ele>411.3</ele>
      </trkpt>
      <trkpt lat="43.58374" lon="6.14729">
        <ele>410.8</ele>
        <time>2023-05-22T08:09:46Z</time>
      </trkpt>
      <trkpt lat="43.58371" lon="6.14734">
        <ele>410.7</ele>
      </trkpt>
      <trkpt lat="43.58367" lon="6.1474">
        <ele>410.7</ele>
        <time>2023-05-22T08:09:57Z</time>
      </trkpt>
      <trkpt lat="43.58362" lon="6.14747">
        <ele>411.4</ele>
      </trkpt>
      <trkpt lat="43.58356" lon="6.14753">
        <ele>411.8</ele>
        <time>2023-05-22T08:10:10Z</time>
      </trkpt>
      <trkpt lat="43.5835" lon="6.14762">
        <ele>412</ele>
      </trkpt>
      <trkpt lat="43.58344" lon="6.1477">
        <ele>412.5</ele>
        <time>2023-05-22T08:10:24Z</time>
      </trkpt>
      <trkpt lat="43.58342" lon="6.14777">
        <ele>412.1</ele>
      </trkpt>
      <trkpt lat="43.5834" lon="6.14784">
        <ele>412</ele>
        <time>2023-05-22T08:10:35Z</time>
      </trkpt>
      <trkpt lat="43.58337" lon="6.1479">
        <ele>412.2</ele>
      </trkpt>
      <trkpt lat="43.58334" lon="6.14795">
        <ele>412.4</ele>
        <time>2023-05-22T08:10:44Z</time>
      </trkpt>
      <trkpt lat="43.58331" lon="6.14802">
        <ele>412.3</ele>
      </trkpt>
      <trkpt lat="43.58329" lon="6.14808">
        <ele>412</ele>
        <time>2023-05-22T08:10:54Z</time>
      </trkpt>
      <trkpt lat="43.58326" lon="6.14815">
        <ele>411.5</ele>
      </trkpt>
      <trkpt lat="43.58323" lon="6.14821">
        <ele>411.1</ele>
        <time>2023-05-22T08:11:04Z</time>
      </trkpt>
      <trkpt lat="43.5832" lon="6.1483">
        <ele>410</ele>
      </trkpt>
      <trkpt lat="43.58318" lon="6.14838">
        <ele>408.9</ele>
        <time>2023-05-22T08:11:15Z</time>
      </trkpt>
      <trkpt lat="43.58314" lon="6.14842">
        <ele>409.3</ele>
      </trkpt>
      <trkpt lat="43.58309" lon="6.14846">
        <ele>409.6</ele>
        <time>2023-05-22T08:11:30Z</time>
      </trkpt>
      <trkpt lat="43.58304" lon="6.14854">
        <ele>409.3</ele>
      </trkpt>
      <trkpt lat="43.58299" lon="6.14861">
        <ele>409.2</ele>
        <time>2023-05-22T08:11:44Z</time>
      </trkpt>
      <trkpt lat="43.58299" lon="6.14869">
        <ele>408.4</ele>
      </trkpt>
      <trkpt lat="43.58298" lon="6.14877">
        <ele>407.6</ele>
        <time>2023-05-22T08:11:54Z</time>
      </trkpt>
      <trkpt lat="43.58299" lon="6.14884">
        <ele>406.6</ele>
      </trkpt>
      <trkpt lat="43.58299" lon="6.14891">
        <ele>405.5</ele>
        <time>2023-05-22T08:12:05Z</time>
      </trkpt>
      <trkpt lat="43.58296" lon="6.14901">
        <ele>405.4</ele>
      </trkpt>
      <trkpt lat="43.58293" lon="6.1491">
        <ele>405.1</ele>
        <time>2023-05-22T08:12:17Z</time>
      </trkpt>
      <trkpt lat="43.5829" lon="6.14917">
        <ele>405</ele>
      </trkpt>
      <trkpt lat="43.58287" lon="6.14923">
        <ele>405.1</ele>
        <time>2023-05-22T08:12:28Z</time>
      </trkpt>
      <trkpt lat="43.58282" lon="6.14926">
        <ele>406.2</ele>
      </trkpt>
      <trkpt lat="43.58276" lon="6.14929">
        <ele>407</ele>
        <time>2023-05-22T08:12:42Z</time>
      </trkpt>
      <trkpt lat="43.58271" lon="6.14934">
        <ele>407.2</ele>
      </trkpt>
      <trkpt lat="43.58266" lon="6.14938">
        <ele>407.5</ele>
        <time>2023-05-22T08:12:57Z</time>
      </trkpt>
      <trkpt lat="43.58258" lon="6.14943">
        <ele>408.4</ele>
        <time>2023-05-22T08:13:12Z</time>
      </trkpt>
      <trkpt lat="43.58257" lon="6.14943">
        <ele>408.7</ele>
        <time>2023-05-22T08:14:31Z</time>
      </trkpt>
      <trkpt lat="43.58253" lon="6.14945">
        <ele>409.7</ele>
        <time>2023-05-22T08:15:45Z</time>
      </trkpt>
      <trkpt lat="43.58261" lon="6.14947">
        <ele>408.1</ele>
        <time>2023-05-22T08:16:08Z</time>
      </trkpt>
      <trkpt lat="43.58267" lon="6.14952">
        <ele>407.7</ele>
      </trkpt>
      <trkpt lat="43.58273" lon="6.14957">
        <ele>406.8</ele>
        <time>2023-05-22T08:16:20Z</time>
      </trkpt>
      <trkpt lat="43.58277" lon="6.14963">
        <ele>406.4</ele>
      </trkpt>
      <trkpt lat="43.5828" lon="6.14969">
        <ele>405.9</ele>
        <time>2023-05-22T08:16:30Z</time>
      </trkpt>
      <trkpt lat="43.58283" lon="6.14976">
        <ele>405.6</ele>
      </trkpt>
      <trkpt lat="43.58286" lon="6.14983">
        <ele>405.1</ele>
        <time>2023-05-22T08:16:40Z</time>
      </trkpt>
      <trkpt lat="43.58286" lon="6.14991">
        <ele>405.5</ele>
      </trkpt>
      <trkpt lat="43.58285" lon="6.14998">
        <ele>405.9</ele>
        <time>2023-05-22T08:16:50Z</time>
      </trkpt>
      <trkpt lat="43.58283" lon="6.15007">
        <ele>406.4</ele>
      </trkpt>
      <trkpt lat="43.58281" lon="6.15015">
        <ele>406.6</ele>
        <time>2023-05-22T08:17:01Z</time>
      </trkpt>
      <trkpt lat="43.58277" lon="6.15023">
        <ele>407.7</ele>
      </trkpt>
      <trkpt lat="43.58273" lon="6.15032">
        <ele>409.1</ele>
        <time>2023-05-22T08:17:12Z</time>
      </trkpt>
      <trkpt lat="43.58269" lon="6.1504">
        <ele>410.3</ele>
      </trkpt>
      <trkpt lat="43.58265" lon="6.15048">
        <ele>411</ele>
        <time>2023-05-22T08:17:24Z</time>
      </trkpt>
      <trkpt lat="43.58261" lon="6.15053">
        <ele>411.7</ele>
      </trkpt>
      <trkpt lat="43.58257" lon="6.15058">
        <ele>412.5</ele>
        <time>2023-05-22T08:17:35Z</time>
      </trkpt>
      <trkpt lat="43.58252" lon="6.15065">
        <ele>413.8</ele>
      </trkpt>
      <trkpt lat="43.58246" lon="6.15072">
        <ele>415.2</ele>
        <time>2023-05-22T08:17:46Z</time>
      </trkpt>
      <trkpt lat="43.58244" lon="6.15079">
        <ele>415.3</ele>
      </trkpt>
      <trkpt lat="43.58242" lon="6.15085">
        <ele>415.3</ele>
        <time>2023-05-22T08:17:57Z</time>
      </trkpt>
      <trkpt lat="43.58238" lon="6.15092">
        <ele>415.7</ele>
      </trkpt>
      <trkpt lat="43.58234" lon="6.15099">
        <ele>415.9</ele>
        <time>2023-05-22T08:18:08Z</time>
      </trkpt>
      <trkpt lat="43.58229" lon="6.15104">
        <ele>416.1</ele>
      </trkpt>
      <trkpt lat="43.58224" lon="6.1511">
        <ele>416</ele>
        <time>2023-05-22T08:18:21Z</time>
      </trkpt>
      <trkpt lat="43.58218" lon="6.15116">
        <ele>416</ele>
      </trkpt>
      <trkpt lat="43.58213" lon="6.15122">
        <ele>416.1</ele>
        <time>2023-05-22T08:18:35Z</time>
      </trkpt>
      <trkpt lat="43.58209" lon="6.15126">
        <ele>416</ele>
      </trkpt>
      <trkpt lat="43.58205" lon="6.1513">
        <ele>415.9</ele>
      </trkpt>
      <trkpt lat="43.58202" lon="6.15134">
        <ele>415.7</ele>
      </trkpt>
      <trkpt lat="43.58198" lon="6.15139">
        <ele>415.5</ele>
        <time>2023-05-22T08:18:45Z</time>
      </trkpt>
      <trkpt lat="43.58193" lon="6.15146">
        <ele>416.3</ele>
      </trkpt>
      <trkpt lat="43.58187" lon="6.15154">
        <ele>417.8</ele>
        <time>2023-05-22T08:18:58Z</time>
      </trkpt>
      <trkpt lat="43.58184" lon="6.15162">
        <ele>418</ele>
      </trkpt>
      <trkpt lat="43.58181" lon="6.15171">
        <ele>417.9</ele>
        <time>2023-05-22T08:19:11Z</time>
      </trkpt>
      <trkpt lat="43.58178" lon="6.15177">
        <ele>417.8</ele>
      </trkpt>
      <trkpt lat="43.58175" lon="6.15184">
        <ele>417.7</ele>
        <time>2023-05-22T08:19:22Z</time>
      </trkpt>
      <trkpt lat="43.5817" lon="6.1519">
        <ele>418.3</ele>
      </trkpt>
      <trkpt lat="43.58166" lon="6.15196">
        <ele>418.8</ele>
        <time>2023-05-22T08:19:33Z</time>
      </trkpt>
      <trkpt lat="43.58162" lon="6.15204">
        <ele>418.2</ele>
      </trkpt>
      <trkpt lat="43.58159" lon="6.15212">
        <ele>417.7</ele>
        <time>2023-05-22T08:19:44Z</time>
      </trkpt>
      <trkpt lat="43.58154" lon="6.15218">
        <ele>418.1</ele>
      </trkpt>
      <trkpt lat="43.58149" lon="6.15223">
        <ele>418.5</ele>
        <time>2023-05-22T08:19:55Z</time>
      </trkpt>
      <trkpt lat="43.58145" lon="6.1523">
        <ele>418.5</ele>
      </trkpt>
      <trkpt lat="43.58141" lon="6.15237">
        <ele>418.3</ele>
        <time>2023-05-22T08:20:06Z</time>
      </trkpt>
      <trkpt lat="43.58137" lon="6.15244">
        <ele>417.8</ele>
      </trkpt>
      <trkpt lat="43.58134" lon="6.15252">
        <ele>417.4</ele>
        <time>2023-05-22T08:20:16Z</time>
      </trkpt>
      <trkpt lat="43.58129" lon="6.1526">
        <ele>417.7</ele>
      </trkpt>
      <trkpt lat="43.58125" lon="6.15267">
        <ele>418.1</ele>
        <time>2023-05-22T08:20:26Z</time>
      </trkpt>
      <trkpt lat="43.58122" lon="6.15272">
        <ele>418.3</ele>
      </trkpt>
      <trkpt lat="43.58119" lon="6.15278">
        <ele>418.5</ele>
        <time>2023-05-22T08:20:36Z</time>
      </trkpt>
      <trkpt lat="43.58115" lon="6.15284">
        <ele>418.7</ele>
      </trkpt>
      <trkpt lat="43.58112" lon="6.15291">
        <ele>418.8</ele>
        <time>2023-05-22T08:20:47Z</time>
      </trkpt>
      <trkpt lat="43.58109" lon="6.15298">
        <ele>418.5</ele>
      </trkpt>
      <trkpt lat="43.58107" lon="6.15305">
        <ele>418.2</ele>
        <time>2023-05-22T08:20:57Z</time>
      </trkpt>
      <trkpt lat="43.58102" lon="6.1531">
        <ele>418.7</ele>
      </trkpt>
      <trkpt lat="43.58097" lon="6.15315">
        <ele>419.2</ele>
        <time>2023-05-22T08:21:08Z</time>
      </trkpt>
      <trkpt lat="43.58093" lon="6.15321">
        <ele>419.3</ele>
      </trkpt>
      <trkpt lat="43.58089" lon="6.15327">
        <ele>419.5</ele>
        <time>2023-05-22T08:21:19Z</time>
      </trkpt>
      <trkpt lat="43.58085" lon="6.15335">
        <ele>419.3</ele>
      </trkpt>
      <trkpt lat="43.58081" lon="6.15344">
        <ele>419.6</ele>
        <time>2023-05-22T08:21:30Z</time>
      </trkpt>
      <trkpt lat="43.58077" lon="6.15349">
        <ele>420.6</ele>
      </trkpt>
      <trkpt lat="43.58072" lon="6.15355">
        <ele>421.4</ele>
        <time>2023-05-22T08:21:42Z</time>
      </trkpt>
      <trkpt lat="43.58067" lon="6.1536">
        <ele>421.8</ele>
      </trkpt>
      <trkpt lat="43.58063" lon="6.15366">
        <ele>421.8</ele>
        <time>2023-05-22T08:21:53Z</time>
      </trkpt>
      <trkpt lat="43.58059" lon="6.15372">
        <ele>421.7</ele>
      </trkpt>
      <trkpt lat="43.58054" lon="6.15377">
        <ele>421.4</ele>
        <time>2023-05-22T08:22:03Z</time>
      </trkpt>
      <trkpt lat="43.58049" lon="6.15384">
        <ele>420.8</ele>
      </trkpt>
      <trkpt lat="43.58044" lon="6.15391">
        <ele>420.2</ele>
        <time>2023-05-22T08:22:14Z</time>
      </trkpt>
      <trkpt lat="43.5804" lon="6.15396">
        <ele>420.2</ele>
      </trkpt>
      <trkpt lat="43.58036" lon="6.15401">
        <ele>420.3</ele>
        <time>2023-05-22T08:22:25Z</time>
      </trkpt>
      <trkpt lat="43.58031" lon="6.15407">
        <ele>420.2</ele>
      </trkpt>
      <trkpt lat="43.58026" lon="6.15413">
        <ele>419.9</ele>
        <time>2023-05-22T08:22:36Z</time>
      </trkpt>
      <trkpt lat="43.5802" lon="6.15418">
        <ele>419.8</ele>
      </trkpt>
      <trkpt lat="43.58013" lon="6.15423">
        <ele>420.1</ele>
        <time>2023-05-22T08:22:46Z</time>
      </trkpt>
      <trkpt lat="43.58008" lon="6.15427">
        <ele>420.3</ele>
      </trkpt>
      <trkpt lat="43.58003" lon="6.15432">
        <ele>420.6</ele>
        <time>2023-05-22T08:22:56Z</time>
      </trkpt>
      <trkpt lat="43.57998" lon="6.15437">
        <ele>420.9</ele>
      </trkpt>
      <trkpt lat="43.57994" lon="6.15442">
        <ele>421.4</ele>
        <time>2023-05-22T08:23:07Z</time>
      </trkpt>
      <trkpt lat="43.5799" lon="6.1545">
        <ele>421.7</ele>
      </trkpt>
      <trkpt lat="43.57986" lon="6.15457">
        <ele>422</ele>
        <time>2023-05-22T08:23:17Z</time>
      </trkpt>
      <trkpt lat="43.57984" lon="6.15465">
        <ele>422.1</ele>
      </trkpt>
      <trkpt lat="43.57981" lon="6.15473">
        <ele>422.3</ele>
        <time>2023-05-22T08:23:29Z</time>
      </trkpt>
      <trkpt lat="43.57979" lon="6.15483">
        <ele>422.5</ele>
      </trkpt>
      <trkpt lat="43.57976" lon="6.15492">
        <ele>422.5</ele>
        <time>2023-05-22T08:23:42Z</time>
      </trkpt>
      <trkpt lat="43.57976" lon="6.15501">
        <ele>422.1</ele>
      </trkpt>
      <trkpt lat="43.57975" lon="6.15509">
        <ele>422.6</ele>
        <time>2023-05-22T08:23:54Z</time>
      </trkpt>
      <trkpt lat="43.57975" lon="6.1552">
        <ele>422.9</ele>
      </trkpt>
      <trkpt lat="43.57975" lon="6.15531">
        <ele>423.4</ele>
        <time>2023-05-22T08:24:06Z</time>
      </trkpt>
      <trkpt lat="43.57976" lon="6.1554">
        <ele>423.6</ele>
      </trkpt>
      <trkpt lat="43.57977" lon="6.15549">
        <ele>423.8</ele>
        <time>2023-05-22T08:24:18Z</time>
      </trkpt>
      <trkpt lat="43.57978" lon="6.15559">
        <ele>424.4</ele>
      </trkpt>
      <trkpt lat="43.57978" lon="6.15569">
        <ele>425.2</ele>
        <time>2023-05-22T08:24:28Z</time>
      </trkpt>
      <trkpt lat="43.57979" lon="6.15576">
        <ele>425.6</ele>
      </trkpt>
      <trkpt lat="43.5798" lon="6.15583">
        <ele>426</ele>
        <time>2023-05-22T08:24:37Z</time>
      </trkpt>
      <trkpt lat="43.57981" lon="6.1559">
        <ele>426.1</ele>
      </trkpt>
      <trkpt lat="43.57982" lon="6.15596">
        <ele>426.2</ele>
        <time>2023-05-22T08:24:46Z</time>
      </trkpt>
      <trkpt lat="43.57982" lon="6.15604">
        <ele>426.5</ele>
      </trkpt>
      <trkpt lat="43.57983" lon="6.15612">
        <ele>426.7</ele>
        <time>2023-05-22T08:24:56Z</time>
      </trkpt>
      <trkpt lat="43.57984" lon="6.1562">
        <ele>426.5</ele>
      </trkpt>
      <trkpt lat="43.57984" lon="6.15628">
        <ele>426.3</ele>
        <time>2023-05-22T08:25:06Z</time>
      </trkpt>
      <trkpt lat="43.57984" lon="6.15636">
        <ele>426.5</ele>
      </trkpt>
      <trkpt lat="43.57983" lon="6.15644">
        <ele>426.9</ele>
        <time>2023-05-22T08:25:16Z</time>
      </trkpt>
      <trkpt lat="43.57983" lon="6.15652">
        <ele>427.1</ele>
      </trkpt>
      <trkpt lat="43.57983" lon="6.1566">
        <ele>427.3</ele>
        <time>2023-05-22T08:25:25Z</time>
      </trkpt>
      <trkpt lat="43.57983" lon="6.15667">
        <ele>427.7</ele>
      </trkpt>
      <trkpt lat="43.57983" lon="6.15674">
        <ele>428.2</ele>
        <time>2023-05-22T08:25:40Z</time>
      </trkpt>
      <trkpt lat="43.57983" lon="6.15682">
        <ele>428.5</ele>
      </trkpt>
      <trkpt lat="43.57984" lon="6.15689">
        <ele>428.8</ele>
        <time>2023-05-22T08:25:50Z</time>
      </trkpt>
      <trkpt lat="43.57985" lon="6.15697">
        <ele>429.1</ele>
      </trkpt>
      <trkpt lat="43.57985" lon="6.15704">
        <ele>429.7</ele>
        <time>2023-05-22T08:26:02Z</time>
      </trkpt>
      <trkpt lat="43.57986" lon="6.15711">
        <ele>430.4</ele>
      </trkpt>
      <trkpt lat="43.57987" lon="6.15718">
        <ele>431.1</ele>
        <time>2023-05-22T08:26:16Z</time>
      </trkpt>
      <trkpt lat="43.57988" lon="6.15725">
        <ele>431.8</ele>
      </trkpt>
      <trkpt lat="43.57989" lon="6.15732">
        <ele>432.8</ele>
        <time>2023-05-22T08:26:29Z</time>
      </trkpt>
      <trkpt lat="43.5799" lon="6.15738">
        <ele>433.8</ele>
      </trkpt>
      <trkpt lat="43.57991" lon="6.15745">
        <ele>434.9</ele>
        <time>2023-05-22T08:26:41Z</time>
      </trkpt>
      <trkpt lat="43.57995" lon="6.1575">
        <ele>434.8</ele>
      </trkpt>
      <trkpt lat="43.57998" lon="6.15755">
        <ele>435.2</ele>
        <time>2023-05-22T08:26:55Z</time>
      </trkpt>
      <trkpt lat="43.58004" lon="6.15762">
        <ele>435</ele>
        <time>2023-05-22T08:30:19Z</time>
      </trkpt>
      <trkpt lat="43.58009" lon="6.15771">
        <ele>435.7</ele>
        <time>2023-05-22T08:30:51Z</time>
      </trkpt>
      <trkpt lat="43.58012" lon="6.15783">
        <ele>437.1</ele>
        <time>2023-05-22T08:31:20Z</time>
      </trkpt>
      <trkpt lat="43.58013" lon="6.15789">
        <ele>437.3</ele>
      </trkpt>
      <trkpt lat="43.58015" lon="6.15796">
        <ele>437.6</ele>
        <time>2023-05-22T08:31:33Z</time>
      </trkpt>
      <trkpt lat="43.5802" lon="6.15803">
        <ele>436.8</ele>
        <time>2023-05-22T08:31:55Z</time>
      </trkpt>
      <trkpt lat="43.58023" lon="6.15812">
        <ele>437.4</ele>
        <time>2023-05-22T08:32:21Z</time>
      </trkpt>
      <trkpt lat="43.58025" lon="6.15819">
        <ele>438.3</ele>
      </trkpt>
      <trkpt lat="43.58027" lon="6.15825">
        <ele>439.3</ele>
        <time>2023-05-22T08:32:32Z</time>
      </trkpt>
      <trkpt lat="43.58029" lon="6.15832">
        <ele>440.1</ele>
      </trkpt>
      <trkpt lat="43.58031" lon="6.15838">
        <ele>440.9</ele>
        <time>2023-05-22T08:32:41Z</time>
      </trkpt>
      <trkpt lat="43.58034" lon="6.15843">
        <ele>441.3</ele>
      </trkpt>
      <trkpt lat="43.58037" lon="6.15849">
        <ele>441.9</ele>
        <time>2023-05-22T08:32:51Z</time>
      </trkpt>
      <trkpt lat="43.58042" lon="6.15853">
        <ele>441.8</ele>
      </trkpt>
      <trkpt lat="43.58047" lon="6.15857">
        <ele>441.9</ele>
        <time>2023-05-22T08:33:00Z</time>
      </trkpt>
      <trkpt lat="43.58049" lon="6.15863">
        <ele>442.6</ele>
      </trkpt>
      <trkpt lat="43.58052" lon="6.15868">
        <ele>442.8</ele>
        <time>2023-05-22T08:33:12Z</time>
      </trkpt>
      <trkpt lat="43.58056" lon="6.15872">
        <ele>442.9</ele>
      </trkpt>
      <trkpt lat="43.58059" lon="6.15876">
        <ele>442.8</ele>
        <time>2023-05-22T08:33:24Z</time>
      </trkpt>
      <trkpt lat="43.58063" lon="6.15882">
        <ele>443.4</ele>
      </trkpt>
      <trkpt lat="43.58067" lon="6.15888">
        <ele>444.2</ele>
        <time>2023-05-22T08:33:37Z</time>
      </trkpt>
      <trkpt lat="43.58071" lon="6.15894">
        <ele>444.2</ele>
      </trkpt>
      <trkpt lat="43.58076" lon="6.159">
        <ele>444.3</ele>
        <time>2023-05-22T08:33:47Z</time>
      </trkpt>
      <trkpt lat="43.58079" lon="6.15907">
        <ele>444.8</ele>
      </trkpt>
      <trkpt lat="43.58083" lon="6.15915">
        <ele>445.7</ele>
        <time>2023-05-22T08:33:57Z</time>
      </trkpt>
      <trkpt lat="43.58084" lon="6.15921">
        <ele>445.9</ele>
      </trkpt>
      <trkpt lat="43.58086" lon="6.15927">
        <ele>445.7</ele>
        <time>2023-05-22T08:34:06Z</time>
      </trkpt>
      <trkpt lat="43.58086" lon="6.15935">
        <ele>445.7</ele>
      </trkpt>
      <trkpt lat="43.58086" lon="6.15943">
        <ele>445.8</ele>
        <time>2023-05-22T08:34:16Z</time>
      </trkpt>
      <trkpt lat="43.58085" lon="6.1595">
        <ele>445.7</ele>
      </trkpt>
      <trkpt lat="43.58083" lon="6.15957">
        <ele>445.6</ele>
        <time>2023-05-22T08:34:27Z</time>
      </trkpt>
      <trkpt lat="43.5808" lon="6.15963">
        <ele>445.4</ele>
      </trkpt>
      <trkpt lat="43.58076" lon="6.15968">
        <ele>445.1</ele>
        <time>2023-05-22T08:34:38Z</time>
      </trkpt>
      <trkpt lat="43.5807" lon="6.15976">
        <ele>444.8</ele>
        <time>2023-05-22T08:34:50Z</time>
      </trkpt>
      <trkpt lat="43.58066" lon="6.15982">
        <ele>444.6</ele>
      </trkpt>
      <trkpt lat="43.58063" lon="6.15988">
        <ele>444.4</ele>
        <time>2023-05-22T08:35:06Z</time>
      </trkpt>
      <trkpt lat="43.58058" lon="6.1599">
        <ele>444.3</ele>
      </trkpt>
      <trkpt lat="43.58054" lon="6.15993">
        <ele>444.2</ele>
        <time>2023-05-22T08:35:23Z</time>
      </trkpt>
      <trkpt lat="43.58047" lon="6.15998">
        <ele>443.8</ele>
        <time>2023-05-22T08:35:40Z</time>
      </trkpt>
      <trkpt lat="43.58045" lon="6.15997">
        <ele>443.7</ele>
        <time>2023-05-22T08:38:08Z</time>
      </trkpt>
      <trkpt lat="43.58041" lon="6.16002">
        <ele>443.5</ele>
      </trkpt>
      <trkpt lat="43.58037" lon="6.16007">
        <ele>443.3</ele>
        <time>2023-05-22T08:38:21Z</time>
      </trkpt>
      <trkpt lat="43.58037" lon="6.16015">
        <ele>443.3</ele>
      </trkpt>
      <trkpt lat="43.58037" lon="6.16023">
        <ele>443.3</ele>
        <time>2023-05-22T08:38:38Z</time>
      </trkpt>
      <trkpt lat="43.5804" lon="6.16029">
        <ele>443.5</ele>
      </trkpt>
      <trkpt lat="43.58043" lon="6.16034">
        <ele>443.8</ele>
        <time>2023-05-22T08:38:50Z</time>
      </trkpt>
      <trkpt lat="43.58047" lon="6.16043">
        <ele>444</ele>
      </trkpt>
      <trkpt lat="43.5805" lon="6.16052">
        <ele>444.1</ele>
        <time>2023-05-22T08:39:02Z</time>
      </trkpt>
      <trkpt lat="43.58053" lon="6.1606">
        <ele>444.2</ele>
      </trkpt>
      <trkpt lat="43.58056" lon="6.16068">
        <ele>444.5</ele>
        <time>2023-05-22T08:39:13Z</time>
      </trkpt>
      <trkpt lat="43.58055" lon="6.16074">
        <ele>444.7</ele>
      </trkpt>
      <trkpt lat="43.58055" lon="6.16081">
        <ele>444.9</ele>
        <time>2023-05-22T08:39:23Z</time>
      </trkpt>
      <trkpt lat="43.58054" lon="6.16088">
        <ele>445.2</ele>
      </trkpt>
      <trkpt lat="43.58053" lon="6.16095">
        <ele>445.5</ele>
        <time>2023-05-22T08:39:34Z</time>
      </trkpt>
      <trkpt lat="43.58054" lon="6.16105">
        <ele>445.8</ele>
      </trkpt>
      <trkpt lat="43.58056" lon="6.16114">
        <ele>446</ele>
        <time>2023-05-22T08:39:45Z</time>
      </trkpt>
      <trkpt lat="43.58056" lon="6.16123">
        <ele>446</ele>
      </trkpt>
      <trkpt lat="43.58057" lon="6.16131">
        <ele>446.1</ele>
        <time>2023-05-22T08:39:56Z</time>
      </trkpt>
      <trkpt lat="43.58061" lon="6.16136">
        <ele>446.4</ele>
      </trkpt>
      <trkpt lat="43.58065" lon="6.16142">
        <ele>446.8</ele>
        <time>2023-05-22T08:40:07Z</time>
      </trkpt>
      <trkpt lat="43.58071" lon="6.16147">
        <ele>447.3</ele>
      </trkpt>
      <trkpt lat="43.58078" lon="6.16152">
        <ele>447.7</ele>
        <time>2023-05-22T08:40:17Z</time>
      </trkpt>
      <trkpt lat="43.5808" lon="6.16158">
        <ele>447.9</ele>
      </trkpt>
      <trkpt lat="43.58083" lon="6.16164">
        <ele>448</ele>
        <time>2023-05-22T08:40:29Z</time>
      </trkpt>
      <trkpt lat="43.58088" lon="6.16169">
        <ele>448.5</ele>
      </trkpt>
      <trkpt lat="43.58092" lon="6.16174">
        <ele>449.1</ele>
        <time>2023-05-22T08:40:42Z</time>
      </trkpt>
      <trkpt lat="43.58098" lon="6.16172">
        <ele>449.3</ele>
      </trkpt>
      <trkpt lat="43.58104" lon="6.16169">
        <ele>449.6</ele>
        <time>2023-05-22T08:40:54Z</time>
      </trkpt>
      <trkpt lat="43.58109" lon="6.16172">
        <ele>450</ele>
      </trkpt>
      <trkpt lat="43.58114" lon="6.16175">
        <ele>450.4</ele>
        <time>2023-05-22T08:41:06Z</time>
      </trkpt>
      <trkpt lat="43.58118" lon="6.1618">
        <ele>450.8</ele>
      </trkpt>
      <trkpt lat="43.58121" lon="6.16185">
        <ele>451.2</ele>
        <time>2023-05-22T08:41:16Z</time>
      </trkpt>
      <trkpt lat="43.58125" lon="6.16193">
        <ele>451.5</ele>
      </trkpt>
      <trkpt lat="43.58128" lon="6.162">
        <ele>451.8</ele>
        <time>2023-05-22T08:41:26Z</time>
      </trkpt>
      <trkpt lat="43.58132" lon="6.16207">
        <ele>452.2</ele>
      </trkpt>
      <trkpt lat="43.58135" lon="6.16215">
        <ele>452.6</ele>
        <time>2023-05-22T08:41:37Z</time>
      </trkpt>
      <trkpt lat="43.58139" lon="6.1622">
        <ele>452.9</ele>
      </trkpt>
      <trkpt lat="43.58142" lon="6.16226">
        <ele>453.5</ele>
        <time>2023-05-22T08:41:47Z</time>
      </trkpt>
      <trkpt lat="43.58145" lon="6.16233">
        <ele>454.2</ele>
      </trkpt>
      <trkpt lat="43.58147" lon="6.16239">
        <ele>454.8</ele>
        <time>2023-05-22T08:41:59Z</time>
      </trkpt>
      <trkpt lat="43.5815" lon="6.16247">
        <ele>455.4</ele>
      </trkpt>
      <trkpt lat="43.58153" lon="6.16255">
        <ele>455.6</ele>
        <time>2023-05-22T08:42:11Z</time>
      </trkpt>
      <trkpt lat="43.58155" lon="6.16262">
        <ele>455.7</ele>
      </trkpt>
      <trkpt lat="43.58158" lon="6.16269">
        <ele>455.8</ele>
        <time>2023-05-22T08:42:21Z</time>
      </trkpt>
      <trkpt lat="43.5816" lon="6.16279">
        <ele>456</ele>
      </trkpt>
      <trkpt lat="43.58162" lon="6.16288">
        <ele>456</ele>
        <time>2023-05-22T08:42:31Z</time>
      </trkpt>
      <trkpt lat="43.58162" lon="6.16295">
        <ele>456</ele>
      </trkpt>
      <trkpt lat="43.58162" lon="6.16303">
        <ele>456</ele>
        <time>2023-05-22T08:42:41Z</time>
      </trkpt>
      <trkpt lat="43.58168" lon="6.1631">
        <ele>456</ele>
        <time>2023-05-22T08:42:53Z</time>
      </trkpt>
      <trkpt lat="43.58174" lon="6.1631">
        <ele>456.3</ele>
      </trkpt>
      <trkpt lat="43.58181" lon="6.1631">
        <ele>456.5</ele>
        <time>2023-05-22T08:43:06Z</time>
      </trkpt>
      <trkpt lat="43.58186" lon="6.16305">
        <ele>456.7</ele>
      </trkpt>
      <trkpt lat="43.58191" lon="6.163">
        <ele>456.9</ele>
        <time>2023-05-22T08:43:16Z</time>
      </trkpt>
      <trkpt lat="43.58198" lon="6.163">
        <ele>457.1</ele>
      </trkpt>
      <trkpt lat="43.58204" lon="6.16299">
        <ele>457.2</ele>
        <time>2023-05-22T08:43:27Z</time>
      </trkpt>
      <trkpt lat="43.5821" lon="6.16299">
        <ele>457.3</ele>
      </trkpt>
      <trkpt lat="43.58215" lon="6.16299">
        <ele>457.4</ele>
        <time>2023-05-22T08:43:39Z</time>
      </trkpt>
      <trkpt lat="43.58223" lon="6.16297">
        <ele>457.3</ele>
      </trkpt>
      <trkpt lat="43.58231" lon="6.16295">
        <ele>456.8</ele>
        <time>2023-05-22T08:43:49Z</time>
      </trkpt>
      <trkpt lat="43.58235" lon="6.16297">
        <ele>456.6</ele>
      </trkpt>
      <trkpt lat="43.5824" lon="6.16299">
        <ele>456.4</ele>
        <time>2023-05-22T08:44:00Z</time>
      </trkpt>
      <trkpt lat="43.58244" lon="6.16305">
        <ele>456.4</ele>
      </trkpt>
      <trkpt lat="43.58248" lon="6.16311">
        <ele>456.3</ele>
        <time>2023-05-22T08:44:10Z</time>
      </trkpt>
      <trkpt lat="43.58252" lon="6.16317">
        <ele>456.4</ele>
      </trkpt>
      <trkpt lat="43.58256" lon="6.16323">
        <ele>456.5</ele>
        <time>2023-05-22T08:44:19Z</time>
      </trkpt>
      <trkpt lat="43.58262" lon="6.16332">
        <ele>456.6</ele>
        <time>2023-05-22T08:44:28Z</time>
      </trkpt>
      <trkpt lat="43.58264" lon="6.16339">
        <ele>456.3</ele>
      </trkpt>
      <trkpt lat="43.58266" lon="6.16345">
        <ele>456</ele>
        <time>2023-05-22T08:44:39Z</time>
      </trkpt>
      <trkpt lat="43.58271" lon="6.16347">
        <ele>455.8</ele>
      </trkpt>
      <trkpt lat="43.58276" lon="6.16348">
        <ele>455.6</ele>
        <time>2023-05-22T08:44:58Z</time>
      </trkpt>
      <trkpt lat="43.58273" lon="6.16347">
        <ele>455.7</ele>
        <time>2023-05-22T08:45:52Z</time>
      </trkpt>
      <trkpt lat="43.58274" lon="6.16355">
        <ele>455.4</ele>
      </trkpt>
      <trkpt lat="43.58275" lon="6.16362">
        <ele>455.1</ele>
        <time>2023-05-22T08:46:09Z</time>
      </trkpt>
      <trkpt lat="43.5828" lon="6.16371">
        <ele>455</ele>
      </trkpt>
      <trkpt lat="43.58284" lon="6.16379">
        <ele>454.9</ele>
        <time>2023-05-22T08:46:21Z</time>
      </trkpt>
      <trkpt lat="43.58286" lon="6.16386">
        <ele>454.7</ele>
      </trkpt>
      <trkpt lat="43.58288" lon="6.16393">
        <ele>454.7</ele>
        <time>2023-05-22T08:46:31Z</time>
      </trkpt>
      <trkpt lat="43.58293" lon="6.16395">
        <ele>454.6</ele>
      </trkpt>
      <trkpt lat="43.58297" lon="6.16398">
        <ele>454.4</ele>
        <time>2023-05-22T08:46:42Z</time>
      </trkpt>
      <trkpt lat="43.58301" lon="6.16405">
        <ele>454.2</ele>
      </trkpt>
      <trkpt lat="43.58305" lon="6.16412">
        <ele>454</ele>
        <time>2023-05-22T08:46:52Z</time>
      </trkpt>
      <trkpt lat="43.58309" lon="6.16418">
        <ele>453.7</ele>
      </trkpt>
      <trkpt lat="43.58313" lon="6.16425">
        <ele>453.4</ele>
        <time>2023-05-22T08:47:02Z</time>
      </trkpt>
      <trkpt lat="43.58314" lon="6.16432">
        <ele>453.3</ele>
      </trkpt>
      <trkpt lat="43.58315" lon="6.16439">
        <ele>453.1</ele>
        <time>2023-05-22T08:47:12Z</time>
      </trkpt>
      <trkpt lat="43.58317" lon="6.16447">
        <ele>452.6</ele>
      </trkpt>
      <trkpt lat="43.5832" lon="6.16455">
        <ele>452</ele>
        <time>2023-05-22T08:47:23Z</time>
      </trkpt>
      <trkpt lat="43.58323" lon="6.16462">
        <ele>451.5</ele>
      </trkpt>
      <trkpt lat="43.58326" lon="6.16468">
        <ele>450.9</ele>
        <time>2023-05-22T08:47:33Z</time>
      </trkpt>
      <trkpt lat="43.58329" lon="6.16476">
        <ele>450.5</ele>
      </trkpt>
      <trkpt lat="43.58332" lon="6.16483">
        <ele>450.2</ele>
        <time>2023-05-22T08:47:45Z</time>
      </trkpt>
      <trkpt lat="43.58335" lon="6.1649">
        <ele>449.9</ele>
      </trkpt>
      <trkpt lat="43.58339" lon="6.16497">
        <ele>449.6</ele>
        <time>2023-05-22T08:47:58Z</time>
      </trkpt>
      <trkpt lat="43.58341" lon="6.16506">
        <ele>449.4</ele>
      </trkpt>
      <trkpt lat="43.58343" lon="6.16514">
        <ele>449.3</ele>
        <time>2023-05-22T08:48:09Z</time>
      </trkpt>
      <trkpt lat="43.58346" lon="6.16521">
        <ele>449.1</ele>
      </trkpt>
      <trkpt lat="43.5835" lon="6.16527">
        <ele>448.8</ele>
        <time>2023-05-22T08:48:20Z</time>
      </trkpt>
      <trkpt lat="43.58353" lon="6.16533">
        <ele>448.5</ele>
      </trkpt>
      <trkpt lat="43.58356" lon="6.1654">
        <ele>448.3</ele>
        <time>2023-05-22T08:48:30Z</time>
      </trkpt>
      <trkpt lat="43.58356" lon="6.16547">
        <ele>448.3</ele>
      </trkpt>
      <trkpt lat="43.58355" lon="6.16555">
        <ele>448.2</ele>
        <time>2023-05-22T08:48:40Z</time>
      </trkpt>
      <trkpt lat="43.58353" lon="6.16561">
        <ele>448.2</ele>
      </trkpt>
      <trkpt lat="43.5835" lon="6.16566">
        <ele>448.2</ele>
        <time>2023-05-22T08:48:50Z</time>
      </trkpt>
      <trkpt lat="43.58347" lon="6.16572">
        <ele>448.2</ele>
      </trkpt>
      <trkpt lat="43.58344" lon="6.16578">
        <ele>448.3</ele>
        <time>2023-05-22T08:49:00Z</time>
      </trkpt>
      <trkpt lat="43.58339" lon="6.16583">
        <ele>448.6</ele>
      </trkpt>
      <trkpt lat="43.58334" lon="6.16589">
        <ele>448.6</ele>
        <time>2023-05-22T08:49:10Z</time>
      </trkpt>
      <trkpt lat="43.5833" lon="6.16595">
        <ele>448.3</ele>
      </trkpt>
      <trkpt lat="43.58327" lon="6.16601">
        <ele>448</ele>
        <time>2023-05-22T08:49:20Z</time>
      </trkpt>
      <trkpt lat="43.58323" lon="6.16606">
        <ele>447.8</ele>
      </trkpt>
      <trkpt lat="43.58319" lon="6.1661">
        <ele>447.6</ele>
        <time>2023-05-22T08:49:30Z</time>
      </trkpt>
      <trkpt lat="43.58315" lon="6.16615">
        <ele>447.5</ele>
      </trkpt>
      <trkpt lat="43.5831" lon="6.16619">
        <ele>447.3</ele>
        <time>2023-05-22T08:49:41Z</time>
      </trkpt>
      <trkpt lat="43.58305" lon="6.16623">
        <ele>447.2</ele>
      </trkpt>
      <trkpt lat="43.58299" lon="6.16628">
        <ele>447.1</ele>
        <time>2023-05-22T08:49:52Z</time>
      </trkpt>
      <trkpt lat="43.58294" lon="6.16633">
        <ele>446.9</ele>
      </trkpt>
      <trkpt lat="43.58289" lon="6.16638">
        <ele>446.7</ele>
        <time>2023-05-22T08:50:01Z</time>
      </trkpt>
      <trkpt lat="43.58285" lon="6.16644">
        <ele>446.5</ele>
      </trkpt>
      <trkpt lat="43.58281" lon="6.16649">
        <ele>446.2</ele>
        <time>2023-05-22T08:50:10Z</time>
      </trkpt>
      <trkpt lat="43.58276" lon="6.16653">
        <ele>446.2</ele>
      </trkpt>
      <trkpt lat="43.58271" lon="6.16656">
        <ele>446.2</ele>
        <time>2023-05-22T08:50:19Z</time>
      </trkpt>
      <trkpt lat="43.58267" lon="6.16661">
        <ele>446</ele>
      </trkpt>
      <trkpt lat="43.58262" lon="6.16666">
        <ele>445.7</ele>
        <time>2023-05-22T08:50:28Z</time>
      </trkpt>
      <trkpt lat="43.58258" lon="6.1667">
        <ele>445.4</ele>
      </trkpt>
      <trkpt lat="43.58254" lon="6.16675">
        <ele>445</ele>
        <time>2023-05-22T08:50:37Z</time>
      </trkpt>
      <trkpt lat="43.5825" lon="6.16682">
        <ele>444.4</ele>
      </trkpt>
      <trkpt lat="43.58247" lon="6.16689">
        <ele>443.8</ele>
        <time>2023-05-22T08:50:45Z</time>
      </trkpt>
      <trkpt lat="43.58244" lon="6.16694">
        <ele>443.3</ele>
      </trkpt>
      <trkpt lat="43.58241" lon="6.167">
        <ele>442.9</ele>
        <time>2023-05-22T08:50:53Z</time>
      </trkpt>
      <trkpt lat="43.58237" lon="6.16704">
        <ele>442.7</ele>
      </trkpt>
      <trkpt lat="43.58233" lon="6.16709">
        <ele>442.6</ele>
        <time>2023-05-22T08:51:02Z</time>
      </trkpt>
      <trkpt lat="43.5823" lon="6.16717">
        <ele>442.5</ele>
      </trkpt>
      <trkpt lat="43.58226" lon="6.16724">
        <ele>442.6</ele>
        <time>2023-05-22T08:51:13Z</time>
      </trkpt>
      <trkpt lat="43.58222" lon="6.16731">
        <ele>442.7</ele>
      </trkpt>
      <trkpt lat="43.58218" lon="6.16737">
        <ele>442.8</ele>
        <time>2023-05-22T08:51:23Z</time>
      </trkpt>
      <trkpt lat="43.58213" lon="6.16741">
        <ele>443</ele>
      </trkpt>
      <trkpt lat="43.58208" lon="6.16745">
        <ele>443.2</ele>
        <time>2023-05-22T08:51:34Z</time>
      </trkpt>
      <trkpt lat="43.58203" lon="6.16749">
        <ele>443.4</ele>
      </trkpt>
      <trkpt lat="43.58198" lon="6.16753">
        <ele>443.6</ele>
        <time>2023-05-22T08:51:45Z</time>
      </trkpt>
      <trkpt lat="43.58192" lon="6.16757">
        <ele>443.8</ele>
      </trkpt>
      <trkpt lat="43.58186" lon="6.16761">
        <ele>443.9</ele>
        <time>2023-05-22T08:51:56Z</time>
      </trkpt>
      <trkpt lat="43.58181" lon="6.16767">
        <ele>443.9</ele>
      </trkpt>
      <trkpt lat="43.58176" lon="6.16773">
        <ele>443.9</ele>
        <time>2023-05-22T08:52:05Z</time>
      </trkpt>
      <trkpt lat="43.58172" lon="6.16778">
        <ele>443.8</ele>
      </trkpt>
      <trkpt lat="43.58168" lon="6.16783">
        <ele>443.8</ele>
        <time>2023-05-22T08:52:14Z</time>
      </trkpt>
      <trkpt lat="43.58164" lon="6.16791">
        <ele>443.6</ele>
      </trkpt>
      <trkpt lat="43.58161" lon="6.16799">
        <ele>443.4</ele>
        <time>2023-05-22T08:52:24Z</time>
      </trkpt>
      <trkpt lat="43.58157" lon="6.16803">
        <ele>443.4</ele>
      </trkpt>
      <trkpt lat="43.58154" lon="6.16807">
        <ele>443.5</ele>
        <time>2023-05-22T08:52:34Z</time>
      </trkpt>
      <trkpt lat="43.58149" lon="6.1681">
        <ele>443.6</ele>
      </trkpt>
      <trkpt lat="43.58144" lon="6.16813">
        <ele>443.8</ele>
        <time>2023-05-22T08:52:45Z</time>
      </trkpt>
      <trkpt lat="43.58138" lon="6.16819">
        <ele>444</ele>
      </trkpt>
      <trkpt lat="43.58132" lon="6.16824">
        <ele>444</ele>
        <time>2023-05-22T08:52:57Z</time>
      </trkpt>
      <trkpt lat="43.58126" lon="6.16828">
        <ele>444</ele>
      </trkpt>
      <trkpt lat="43.5812" lon="6.16832">
        <ele>444</ele>
        <time>2023-05-22T08:53:07Z</time>
      </trkpt>
      <trkpt lat="43.58116" lon="6.16838">
        <ele>443.8</ele>
      </trkpt>
      <trkpt lat="43.58112" lon="6.16845">
        <ele>443.6</ele>
        <time>2023-05-22T08:53:17Z</time>
      </trkpt>
      <trkpt lat="43.58109" lon="6.16852">
        <ele>443.4</ele>
      </trkpt>
      <trkpt lat="43.58106" lon="6.16859">
        <ele>443.2</ele>
        <time>2023-05-22T08:53:29Z</time>
      </trkpt>
      <trkpt lat="43.58104" lon="6.16868">
        <ele>443.1</ele>
      </trkpt>
      <trkpt lat="43.58102" lon="6.16877">
        <ele>442.9</ele>
        <time>2023-05-22T08:53:39Z</time>
      </trkpt>
      <trkpt lat="43.58101" lon="6.16885">
        <ele>442.7</ele>
      </trkpt>
      <trkpt lat="43.581" lon="6.16893">
        <ele>442.6</ele>
        <time>2023-05-22T08:53:51Z</time>
      </trkpt>
      <trkpt lat="43.58098" lon="6.16898">
        <ele>442.5</ele>
      </trkpt>
      <trkpt lat="43.58095" lon="6.16904">
        <ele>442.4</ele>
        <time>2023-05-22T08:54:02Z</time>
      </trkpt>
      <trkpt lat="43.5809" lon="6.16909">
        <ele>442.2</ele>
      </trkpt>
      <trkpt lat="43.58084" lon="6.16913">
        <ele>442</ele>
        <time>2023-05-22T08:54:12Z</time>
      </trkpt>
      <trkpt lat="43.58079" lon="6.16917">
        <ele>441.9</ele>
      </trkpt>
      <trkpt lat="43.58074" lon="6.1692">
        <ele>441.7</ele>
        <time>2023-05-22T08:54:21Z</time>
      </trkpt>
      <trkpt lat="43.58069" lon="6.16924">
        <ele>441.6</ele>
      </trkpt>
      <trkpt lat="43.58065" lon="6.16927">
        <ele>441.6</ele>
        <time>2023-05-22T08:54:30Z</time>
      </trkpt>
      <trkpt lat="43.58059" lon="6.16928">
        <ele>441.5</ele>
      </trkpt>
      <trkpt lat="43.58053" lon="6.1693">
        <ele>441.4</ele>
        <time>2023-05-22T08:54:39Z</time>
      </trkpt>
      <trkpt lat="43.58047" lon="6.16931">
        <ele>441.2</ele>
      </trkpt>
      <trkpt lat="43.58042" lon="6.16931">
        <ele>441</ele>
        <time>2023-05-22T08:54:49Z</time>
      </trkpt>
      <trkpt lat="43.58035" lon="6.16933">
        <ele>440.7</ele>
      </trkpt>
      <trkpt lat="43.58028" lon="6.16935">
        <ele>440.4</ele>
        <time>2023-05-22T08:55:00Z</time>
      </trkpt>
      <trkpt lat="43.58022" lon="6.16932">
        <ele>440.1</ele>
      </trkpt>
      <trkpt lat="43.58015" lon="6.16929">
        <ele>439.8</ele>
        <time>2023-05-22T08:55:10Z</time>
      </trkpt>
      <trkpt lat="43.58009" lon="6.16925">
        <ele>439.5</ele>
      </trkpt>
      <trkpt lat="43.58002" lon="6.1692">
        <ele>439.1</ele>
        <time>2023-05-22T08:55:19Z</time>
      </trkpt>
      <trkpt lat="43.57998" lon="6.16917">
        <ele>438.8</ele>
      </trkpt>
      <trkpt lat="43.57993" lon="6.16915">
        <ele>438.6</ele>
        <time>2023-05-22T08:55:28Z</time>
      </trkpt>
      <trkpt lat="43.57988" lon="6.16916">
        <ele>438.2</ele>
      </trkpt>
      <trkpt lat="43.57983" lon="6.16917">
        <ele>437.8</ele>
        <time>2023-05-22T08:55:40Z</time>
      </trkpt>
      <trkpt lat="43.57977" lon="6.16916">
        <ele>437.4</ele>
      </trkpt>
      <trkpt lat="43.57972" lon="6.16915">
        <ele>436.9</ele>
        <time>2023-05-22T08:55:53Z</time>
      </trkpt>
      <trkpt lat="43.57967" lon="6.16917">
        <ele>436</ele>
      </trkpt>
      <trkpt lat="43.57962" lon="6.16919">
        <ele>435.1</ele>
        <time>2023-05-22T08:56:06Z</time>
      </trkpt>
      <trkpt lat="43.57956" lon="6.16918">
        <ele>434.1</ele>
      </trkpt>
      <trkpt lat="43.57951" lon="6.16918">
        <ele>433</ele>
        <time>2023-05-22T08:56:19Z</time>
      </trkpt>
      <trkpt lat="43.57944" lon="6.16925">
        <ele>431.7</ele>
      </trkpt>
      <trkpt lat="43.57938" lon="6.16933">
        <ele>431</ele>
        <time>2023-05-22T08:56:35Z</time>
      </trkpt>
      <trkpt lat="43.57934" lon="6.16941">
        <ele>430.1</ele>
      </trkpt>
      <trkpt lat="43.57929" lon="6.16949">
        <ele>429.5</ele>
        <time>2023-05-22T08:56:47Z</time>
      </trkpt>
      <trkpt lat="43.57926" lon="6.16957">
        <ele>429.4</ele>
      </trkpt>
      <trkpt lat="43.57922" lon="6.16964">
        <ele>429.3</ele>
        <time>2023-05-22T08:57:03Z</time>
      </trkpt>
      <trkpt lat="43.57917" lon="6.16969">
        <ele>428.9</ele>
      </trkpt>
      <trkpt lat="43.57913" lon="6.16973">
        <ele>428.5</ele>
        <time>2023-05-22T08:57:21Z</time>
      </trkpt>
      <trkpt lat="43.57908" lon="6.16971">
        <ele>427.8</ele>
      </trkpt>
      <trkpt lat="43.57904" lon="6.16969">
        <ele>427.2</ele>
        <time>2023-05-22T08:57:42Z</time>
      </trkpt>
      <trkpt lat="43.57898" lon="6.16969">
        <ele>426.5</ele>
      </trkpt>
      <trkpt lat="43.57892" lon="6.16969">
        <ele>425.8</ele>
        <time>2023-05-22T08:57:52Z</time>
      </trkpt>
      <trkpt lat="43.57888" lon="6.16973">
        <ele>425.1</ele>
      </trkpt>
      <trkpt lat="43.57884" lon="6.16977">
        <ele>425.5</ele>
        <time>2023-05-22T08:58:01Z</time>
      </trkpt>
      <trkpt lat="43.57879" lon="6.16978">
        <ele>425.3</ele>
      </trkpt>
      <trkpt lat="43.57873" lon="6.1698">
        <ele>425</ele>
        <time>2023-05-22T08:58:11Z</time>
      </trkpt>
      <trkpt lat="43.5787" lon="6.16985">
        <ele>424.7</ele>
      </trkpt>
      <trkpt lat="43.57867" lon="6.16989">
        <ele>424</ele>
        <time>2023-05-22T08:58:21Z</time>
      </trkpt>
      <trkpt lat="43.57862" lon="6.16995">
        <ele>422.7</ele>
      </trkpt>
      <trkpt lat="43.57857" lon="6.17001">
        <ele>422.1</ele>
        <time>2023-05-22T08:58:33Z</time>
      </trkpt>
      <trkpt lat="43.57854" lon="6.17009">
        <ele>422.4</ele>
      </trkpt>
      <trkpt lat="43.5785" lon="6.17018">
        <ele>422.1</ele>
        <time>2023-05-22T08:58:43Z</time>
      </trkpt>
      <trkpt lat="43.57846" lon="6.17023">
        <ele>421.4</ele>
      </trkpt>
      <trkpt lat="43.57843" lon="6.17027">
        <ele>420.4</ele>
        <time>2023-05-22T08:58:53Z</time>
      </trkpt>
      <trkpt lat="43.57836" lon="6.17034">
        <ele>418.9</ele>
        <time>2023-05-22T08:59:02Z</time>
      </trkpt>
      <trkpt lat="43.57832" lon="6.1704">
        <ele>418.2</ele>
      </trkpt>
      <trkpt lat="43.57827" lon="6.17045">
        <ele>417.8</ele>
        <time>2023-05-22T08:59:13Z</time>
      </trkpt>
      <trkpt lat="43.57822" lon="6.17048">
        <ele>417.2</ele>
      </trkpt>
      <trkpt lat="43.57817" lon="6.17051">
        <ele>416.5</ele>
        <time>2023-05-22T08:59:22Z</time>
      </trkpt>
      <trkpt lat="43.57813" lon="6.17056">
        <ele>416.1</ele>
      </trkpt>
      <trkpt lat="43.57809" lon="6.17061">
        <ele>415.9</ele>
        <time>2023-05-22T08:59:31Z</time>
      </trkpt>
      <trkpt lat="43.57805" lon="6.17065">
        <ele>415.6</ele>
      </trkpt>
      <trkpt lat="43.578" lon="6.17068">
        <ele>415.5</ele>
        <time>2023-05-22T08:59:41Z</time>
      </trkpt>
      <trkpt lat="43.57796" lon="6.17072">
        <ele>415.6</ele>
      </trkpt>
      <trkpt lat="43.57792" lon="6.17076">
        <ele>415.7</ele>
        <time>2023-05-22T08:59:51Z</time>
      </trkpt>
      <trkpt lat="43.57786" lon="6.17074">
        <ele>415.2</ele>
      </trkpt>
      <trkpt lat="43.5778" lon="6.17072">
        <ele>414.6</ele>
        <time>2023-05-22T09:00:03Z</time>
      </trkpt>
      <trkpt lat="43.57776" lon="6.17065">
        <ele>413.2</ele>
      </trkpt>
      <trkpt lat="43.57772" lon="6.17057">
        <ele>411.8</ele>
        <time>2023-05-22T09:00:13Z</time>
      </trkpt>
      <trkpt lat="43.57767" lon="6.17055">
        <ele>411.3</ele>
      </trkpt>
      <trkpt lat="43.57761" lon="6.17052">
        <ele>411.1</ele>
        <time>2023-05-22T09:00:22Z</time>
      </trkpt>
      <trkpt lat="43.57756" lon="6.17051">
        <ele>410.8</ele>
      </trkpt>
      <trkpt lat="43.57751" lon="6.17051">
        <ele>410.4</ele>
        <time>2023-05-22T09:00:31Z</time>
      </trkpt>
      <trkpt lat="43.57746" lon="6.17048">
        <ele>410.4</ele>
      </trkpt>
      <trkpt lat="43.5774" lon="6.17045">
        <ele>410.4</ele>
        <time>2023-05-22T09:00:40Z</time>
      </trkpt>
      <trkpt lat="43.57735" lon="6.17043">
        <ele>410.3</ele>
      </trkpt>
      <trkpt lat="43.57729" lon="6.17041">
        <ele>410.3</ele>
        <time>2023-05-22T09:00:50Z</time>
      </trkpt>
      <trkpt lat="43.57724" lon="6.1704">
        <ele>410.2</ele>
      </trkpt>
      <trkpt lat="43.57719" lon="6.1704">
        <ele>409.9</ele>
        <time>2023-05-22T09:00:59Z</time>
      </trkpt>
      <trkpt lat="43.57714" lon="6.17038">
        <ele>409.6</ele>
      </trkpt>
      <trkpt lat="43.5771" lon="6.17037">
        <ele>409.4</ele>
        <time>2023-05-22T09:01:07Z</time>
      </trkpt>
      <trkpt lat="43.57705" lon="6.17035">
        <ele>409.3</ele>
      </trkpt>
      <trkpt lat="43.57701" lon="6.17034">
        <ele>409.3</ele>
        <time>2023-05-22T09:01:17Z</time>
      </trkpt>
      <trkpt lat="43.57696" lon="6.1703">
        <ele>409.6</ele>
      </trkpt>
      <trkpt lat="43.57692" lon="6.17027">
        <ele>410</ele>
        <time>2023-05-22T09:01:25Z</time>
      </trkpt>
      <trkpt lat="43.57688" lon="6.17024">
        <ele>410</ele>
      </trkpt>
      <trkpt lat="43.57683" lon="6.17021">
        <ele>409.9</ele>
        <time>2023-05-22T09:01:33Z</time>
      </trkpt>
      <trkpt lat="43.5768" lon="6.17014">
        <ele>410.4</ele>
      </trkpt>
      <trkpt lat="43.57676" lon="6.17008">
        <ele>410.6</ele>
        <time>2023-05-22T09:01:43Z</time>
      </trkpt>
      <trkpt lat="43.57673" lon="6.17001">
        <ele>410.8</ele>
      </trkpt>
      <trkpt lat="43.5767" lon="6.16995">
        <ele>410.8</ele>
        <time>2023-05-22T09:01:53Z</time>
      </trkpt>
      <trkpt lat="43.57666" lon="6.16989">
        <ele>410.8</ele>
      </trkpt>
      <trkpt lat="43.57663" lon="6.16983">
        <ele>410.9</ele>
        <time>2023-05-22T09:02:02Z</time>
      </trkpt>
      <trkpt lat="43.57661" lon="6.16977">
        <ele>411.1</ele>
      </trkpt>
      <trkpt lat="43.5766" lon="6.16971">
        <ele>411.2</ele>
        <time>2023-05-22T09:02:12Z</time>
      </trkpt>
      <trkpt lat="43.57655" lon="6.16968">
        <ele>410.5</ele>
      </trkpt>
      <trkpt lat="43.5765" lon="6.16966">
        <ele>409.9</ele>
        <time>2023-05-22T09:02:23Z</time>
      </trkpt>
      <trkpt lat="43.57644" lon="6.1696">
        <ele>409</ele>
      </trkpt>
      <trkpt lat="43.57637" lon="6.16955">
        <ele>408.2</ele>
        <time>2023-05-22T09:02:35Z</time>
      </trkpt>
      <trkpt lat="43.57634" lon="6.16947">
        <ele>407.7</ele>
      </trkpt>
      <trkpt lat="43.5763" lon="6.16939">
        <ele>407.2</ele>
        <time>2023-05-22T09:02:48Z</time>
      </trkpt>
      <trkpt lat="43.57628" lon="6.16932">
        <ele>406.8</ele>
      </trkpt>
      <trkpt lat="43.57626" lon="6.16924">
        <ele>406.3</ele>
        <time>2023-05-22T09:03:02Z</time>
      </trkpt>
      <trkpt lat="43.57621" lon="6.16917">
        <ele>405.7</ele>
      </trkpt>
      <trkpt lat="43.57616" lon="6.1691">
        <ele>405.7</ele>
        <time>2023-05-22T09:03:15Z</time>
      </trkpt>
      <trkpt lat="43.57612" lon="6.16905">
        <ele>405.5</ele>
      </trkpt>
      <trkpt lat="43.57608" lon="6.169">
        <ele>405.5</ele>
        <time>2023-05-22T09:03:27Z</time>
      </trkpt>
      <trkpt lat="43.57603" lon="6.16894">
        <ele>405.8</ele>
        <time>2023-05-22T09:03:47Z</time>
      </trkpt>
      <trkpt lat="43.57601" lon="6.16885">
        <ele>406.6</ele>
        <time>2023-05-22T09:04:04Z</time>
      </trkpt>
      <trkpt lat="43.57606" lon="6.16878">
        <ele>406.8</ele>
      </trkpt>
      <trkpt lat="43.5761" lon="6.16871">
        <ele>406.7</ele>
        <time>2023-05-22T09:04:24Z</time>
      </trkpt>
      <trkpt lat="43.57613" lon="6.16864">
        <ele>407.3</ele>
      </trkpt>
      <trkpt lat="43.57616" lon="6.16858">
        <ele>408.1</ele>
        <time>2023-05-22T09:04:40Z</time>
      </trkpt>
      <trkpt lat="43.57621" lon="6.16856">
        <ele>409.4</ele>
        <time>2023-05-22T09:05:01Z</time>
      </trkpt>
      <trkpt lat="43.57624" lon="6.16859">
        <ele>409.8</ele>
        <time>2023-05-22T09:05:28Z</time>
      </trkpt>
      <trkpt lat="43.5762" lon="6.16855">
        <ele>409.2</ele>
      </trkpt>
      <trkpt lat="43.57617" lon="6.1685">
        <ele>408.7</ele>
        <time>2023-05-22T09:05:44Z</time>
      </trkpt>
      <trkpt lat="43.57613" lon="6.16846">
        <ele>407.9</ele>
      </trkpt>
      <trkpt lat="43.57609" lon="6.16842">
        <ele>408.1</ele>
        <time>2023-05-22T09:05:58Z</time>
      </trkpt>
      <trkpt lat="43.57606" lon="6.16831">
        <ele>409.1</ele>
        <time>2023-05-22T09:06:23Z</time>
      </trkpt>
      <trkpt lat="43.57609" lon="6.16825">
        <ele>409.1</ele>
      </trkpt>
      <trkpt lat="43.57611" lon="6.16819">
        <ele>409.1</ele>
        <time>2023-05-22T09:06:33Z</time>
      </trkpt>
      <trkpt lat="43.57615" lon="6.16811">
        <ele>410.1</ele>
        <time>2023-05-22T09:12:49Z</time>
      </trkpt>
      <trkpt lat="43.57615" lon="6.1681">
        <ele>410.2</ele>
        <time>2023-05-22T09:13:46Z</time>
      </trkpt>
      <trkpt lat="43.57619" lon="6.16799">
        <ele>411.2</ele>
        <time>2023-05-22T09:13:57Z</time>
      </trkpt>
      <trkpt lat="43.57621" lon="6.16793">
        <ele>411.6</ele>
      </trkpt>
      <trkpt lat="43.57623" lon="6.16786">
        <ele>411.9</ele>
        <time>2023-05-22T09:14:09Z</time>
      </trkpt>
      <trkpt lat="43.57624" lon="6.16778">
        <ele>412.1</ele>
      </trkpt>
      <trkpt lat="43.57625" lon="6.1677">
        <ele>412.2</ele>
        <time>2023-05-22T09:14:22Z</time>
      </trkpt>
      <trkpt lat="43.57627" lon="6.16762">
        <ele>412.1</ele>
      </trkpt>
      <trkpt lat="43.57629" lon="6.16754">
        <ele>412</ele>
        <time>2023-05-22T09:14:33Z</time>
      </trkpt>
      <trkpt lat="43.57632" lon="6.16747">
        <ele>411.9</ele>
      </trkpt>
      <trkpt lat="43.57635" lon="6.16741">
        <ele>411.8</ele>
        <time>2023-05-22T09:14:43Z</time>
      </trkpt>
      <trkpt lat="43.57639" lon="6.16735">
        <ele>411.6</ele>
      </trkpt>
      <trkpt lat="43.57643" lon="6.16729">
        <ele>411.9</ele>
        <time>2023-05-22T09:14:52Z</time>
      </trkpt>
      <trkpt lat="43.57646" lon="6.16724">
        <ele>412.2</ele>
      </trkpt>
      <trkpt lat="43.5765" lon="6.1672">
        <ele>412.4</ele>
        <time>2023-05-22T09:15:02Z</time>
      </trkpt>
      <trkpt lat="43.57654" lon="6.16714">
        <ele>412.5</ele>
      </trkpt>
      <trkpt lat="43.57657" lon="6.16709">
        <ele>412.5</ele>
        <time>2023-05-22T09:15:11Z</time>
      </trkpt>
      <trkpt lat="43.57661" lon="6.16704">
        <ele>412.4</ele>
      </trkpt>
      <trkpt lat="43.57665" lon="6.167">
        <ele>412.2</ele>
        <time>2023-05-22T09:15:20Z</time>
      </trkpt>
      <trkpt lat="43.57667" lon="6.16694">
        <ele>412.1</ele>
      </trkpt>
      <trkpt lat="43.5767" lon="6.16688">
        <ele>412.6</ele>
        <time>2023-05-22T09:15:29Z</time>
      </trkpt>
      <trkpt lat="43.57672" lon="6.16682">
        <ele>413.1</ele>
      </trkpt>
      <trkpt lat="43.57675" lon="6.16676">
        <ele>413.4</ele>
        <time>2023-05-22T09:15:40Z</time>
      </trkpt>
      <trkpt lat="43.57677" lon="6.1667">
        <ele>413.7</ele>
      </trkpt>
      <trkpt lat="43.5768" lon="6.16664">
        <ele>414</ele>
        <time>2023-05-22T09:15:50Z</time>
      </trkpt>
      <trkpt lat="43.57683" lon="6.16658">
        <ele>414.1</ele>
      </trkpt>
      <trkpt lat="43.57686" lon="6.16653">
        <ele>414.2</ele>
        <time>2023-05-22T09:15:59Z</time>
      </trkpt>
      <trkpt lat="43.57689" lon="6.16645">
        <ele>414.1</ele>
      </trkpt>
      <trkpt lat="43.57691" lon="6.16637">
        <ele>414.1</ele>
        <time>2023-05-22T09:16:10Z</time>
      </trkpt>
      <trkpt lat="43.57695" lon="6.16631">
        <ele>414.3</ele>
      </trkpt>
      <trkpt lat="43.57699" lon="6.16625">
        <ele>414.9</ele>
        <time>2023-05-22T09:16:20Z</time>
      </trkpt>
      <trkpt lat="43.57701" lon="6.16618">
        <ele>415.3</ele>
      </trkpt>
      <trkpt lat="43.57704" lon="6.1661">
        <ele>415.7</ele>
        <time>2023-05-22T09:16:31Z</time>
      </trkpt>
      <trkpt lat="43.57708" lon="6.16604">
        <ele>416.1</ele>
      </trkpt>
      <trkpt lat="43.57711" lon="6.16597">
        <ele>416.4</ele>
        <time>2023-05-22T09:16:41Z</time>
      </trkpt>
      <trkpt lat="43.57715" lon="6.16592">
        <ele>416.7</ele>
      </trkpt>
      <trkpt lat="43.5772" lon="6.16588">
        <ele>416.9</ele>
        <time>2023-05-22T09:16:51Z</time>
      </trkpt>
      <trkpt lat="43.57724" lon="6.16583">
        <ele>417.2</ele>
      </trkpt>
      <trkpt lat="43.57728" lon="6.16579">
        <ele>417.7</ele>
        <time>2023-05-22T09:17:00Z</time>
      </trkpt>
      <trkpt lat="43.57731" lon="6.16574">
        <ele>418</ele>
      </trkpt>
      <trkpt lat="43.57735" lon="6.16569">
        <ele>418.2</ele>
        <time>2023-05-22T09:17:09Z</time>
      </trkpt>
      <trkpt lat="43.5774" lon="6.16565">
        <ele>418.3</ele>
      </trkpt>
      <trkpt lat="43.57745" lon="6.16561">
        <ele>418.3</ele>
        <time>2023-05-22T09:17:19Z</time>
      </trkpt>
      <trkpt lat="43.57749" lon="6.16556">
        <ele>418</ele>
      </trkpt>
      <trkpt lat="43.57752" lon="6.16552">
        <ele>418.5</ele>
        <time>2023-05-22T09:17:29Z</time>
      </trkpt>
      <trkpt lat="43.57754" lon="6.16544">
        <ele>419.4</ele>
        <time>2023-05-22T09:17:51Z</time>
      </trkpt>
      <trkpt lat="43.57756" lon="6.16553">
        <ele>419.1</ele>
        <time>2023-05-22T09:18:25Z</time>
      </trkpt>
      <trkpt lat="43.5776" lon="6.16556">
        <ele>419.5</ele>
        <time>2023-05-22T09:18:53Z</time>
      </trkpt>
      <trkpt lat="43.57761" lon="6.16546">
        <ele>420.1</ele>
      </trkpt>
      <trkpt lat="43.57761" lon="6.16536">
        <ele>420.8</ele>
        <time>2023-05-22T09:19:10Z</time>
      </trkpt>
      <trkpt lat="43.57761" lon="6.16526">
        <ele>421.3</ele>
      </trkpt>
      <trkpt lat="43.57761" lon="6.16516">
        <ele>421.7</ele>
        <time>2023-05-22T09:19:23Z</time>
      </trkpt>
      <trkpt lat="43.57759" lon="6.16505">
        <ele>422.1</ele>
      </trkpt>
      <trkpt lat="43.57758" lon="6.16495">
        <ele>422.3</ele>
        <time>2023-05-22T09:19:35Z</time>
      </trkpt>
      <trkpt lat="43.57754" lon="6.16488">
        <ele>422.2</ele>
      </trkpt>
      <trkpt lat="43.57751" lon="6.16481">
        <ele>422</ele>
        <time>2023-05-22T09:19:45Z</time>
      </trkpt>
      <trkpt lat="43.5775" lon="6.16474">
        <ele>422</ele>
      </trkpt>
      <trkpt lat="43.57748" lon="6.16467">
        <ele>422.5</ele>
        <time>2023-05-22T09:19:55Z</time>
      </trkpt>
      <trkpt lat="43.57746" lon="6.16461">
        <ele>423.1</ele>
      </trkpt>
      <trkpt lat="43.57744" lon="6.16455">
        <ele>423.9</ele>
        <time>2023-05-22T09:20:09Z</time>
      </trkpt>
      <trkpt lat="43.57736" lon="6.16458">
        <ele>424.2</ele>
        <time>2023-05-22T09:20:34Z</time>
      </trkpt>
      <trkpt lat="43.57734" lon="6.16464">
        <ele>423.7</ele>
      </trkpt>
      <trkpt lat="43.57731" lon="6.1647">
        <ele>423.1</ele>
        <time>2023-05-22T09:20:44Z</time>
      </trkpt>
      <trkpt lat="43.57727" lon="6.16475">
        <ele>422.8</ele>
      </trkpt>
      <trkpt lat="43.57723" lon="6.1648">
        <ele>423</ele>
        <time>2023-05-22T09:20:54Z</time>
      </trkpt>
      <trkpt lat="43.57719" lon="6.16484">
        <ele>423.1</ele>
      </trkpt>
      <trkpt lat="43.57714" lon="6.16489">
        <ele>423</ele>
        <time>2023-05-22T09:21:04Z</time>
      </trkpt>
      <trkpt lat="43.57706" lon="6.16495">
        <ele>422.4</ele>
        <time>2023-05-22T09:22:48Z</time>
      </trkpt>
      <trkpt lat="43.57698" lon="6.165">
        <ele>421.3</ele>
        <time>2023-05-22T09:23:01Z</time>
      </trkpt>
      <trkpt lat="43.57697" lon="6.16506">
        <ele>420.9</ele>
      </trkpt>
      <trkpt lat="43.57695" lon="6.16512">
        <ele>420.6</ele>
        <time>2023-05-22T09:23:12Z</time>
      </trkpt>
      <trkpt lat="43.57699" lon="6.16523">
        <ele>420.4</ele>
        <time>2023-05-22T09:23:23Z</time>
      </trkpt>
      <trkpt lat="43.57697" lon="6.16535">
        <ele>419.8</ele>
        <time>2023-05-22T09:23:33Z</time>
      </trkpt>
      <trkpt lat="43.57691" lon="6.16537">
        <ele>419.6</ele>
      </trkpt>
      <trkpt lat="43.57686" lon="6.1654">
        <ele>419.4</ele>
        <time>2023-05-22T09:23:44Z</time>
      </trkpt>
      <trkpt lat="43.5768" lon="6.16544">
        <ele>419.1</ele>
      </trkpt>
      <trkpt lat="43.57674" lon="6.16548">
        <ele>418.7</ele>
        <time>2023-05-22T09:23:56Z</time>
      </trkpt>
      <trkpt lat="43.5767" lon="6.16552">
        <ele>418.4</ele>
      </trkpt>
      <trkpt lat="43.57666" lon="6.16556">
        <ele>418</ele>
        <time>2023-05-22T09:24:06Z</time>
      </trkpt>
      <trkpt lat="43.57662" lon="6.1656">
        <ele>417.9</ele>
      </trkpt>
      <trkpt lat="43.57658" lon="6.16563">
        <ele>417.8</ele>
        <time>2023-05-22T09:24:20Z</time>
      </trkpt>
      <trkpt lat="43.57654" lon="6.16569">
        <ele>417.5</ele>
      </trkpt>
      <trkpt lat="43.5765" lon="6.16574">
        <ele>417.3</ele>
        <time>2023-05-22T09:24:32Z</time>
      </trkpt>
      <trkpt lat="43.57645" lon="6.16578">
        <ele>417.2</ele>
      </trkpt>
      <trkpt lat="43.57639" lon="6.16582">
        <ele>417.1</ele>
        <time>2023-05-22T09:24:43Z</time>
      </trkpt>
      <trkpt lat="43.57635" lon="6.16586">
        <ele>417</ele>
      </trkpt>
      <trkpt lat="43.57631" lon="6.1659">
        <ele>417.1</ele>
        <time>2023-05-22T09:24:53Z</time>
      </trkpt>
      <trkpt lat="43.57625" lon="6.16587">
        <ele>417.5</ele>
      </trkpt>
      <trkpt lat="43.57618" lon="6.16584">
        <ele>417.8</ele>
        <time>2023-05-22T09:25:05Z</time>
      </trkpt>
      <trkpt lat="43.57614" lon="6.16577">
        <ele>418</ele>
      </trkpt>
      <trkpt lat="43.5761" lon="6.1657">
        <ele>418.1</ele>
        <time>2023-05-22T09:25:16Z</time>
      </trkpt>
      <trkpt lat="43.57607" lon="6.16562">
        <ele>418.3</ele>
      </trkpt>
      <trkpt lat="43.57605" lon="6.16555">
        <ele>418.4</ele>
        <time>2023-05-22T09:25:31Z</time>
      </trkpt>
      <trkpt lat="43.57604" lon="6.16547">
        <ele>418.2</ele>
      </trkpt>
      <trkpt lat="43.57604" lon="6.1654">
        <ele>417.9</ele>
        <time>2023-05-22T09:25:43Z</time>
      </trkpt>
      <trkpt lat="43.57604" lon="6.16532">
        <ele>417.7</ele>
      </trkpt>
      <trkpt lat="43.57604" lon="6.16524">
        <ele>417.4</ele>
        <time>2023-05-22T09:25:57Z</time>
      </trkpt>
      <trkpt lat="43.57602" lon="6.16515">
        <ele>417.4</ele>
      </trkpt>
      <trkpt lat="43.576" lon="6.16506">
        <ele>417.2</ele>
        <time>2023-05-22T09:26:08Z</time>
      </trkpt>
      <trkpt lat="43.57597" lon="6.165">
        <ele>417</ele>
      </trkpt>
      <trkpt lat="43.57595" lon="6.16494">
        <ele>417</ele>
        <time>2023-05-22T09:26:19Z</time>
      </trkpt>
      <trkpt lat="43.57592" lon="6.16489">
        <ele>416.8</ele>
      </trkpt>
      <trkpt lat="43.57589" lon="6.16483">
        <ele>416.6</ele>
        <time>2023-05-22T09:26:30Z</time>
      </trkpt>
      <trkpt lat="43.57584" lon="6.1648">
        <ele>416.3</ele>
      </trkpt>
      <trkpt lat="43.57579" lon="6.16476">
        <ele>416</ele>
        <time>2023-05-22T09:26:43Z</time>
      </trkpt>
      <trkpt lat="43.57573" lon="6.16473">
        <ele>415.7</ele>
      </trkpt>
      <trkpt lat="43.57568" lon="6.1647">
        <ele>415.4</ele>
        <time>2023-05-22T09:26:55Z</time>
      </trkpt>
      <trkpt lat="43.57562" lon="6.16468">
        <ele>415.1</ele>
      </trkpt>
      <trkpt lat="43.57556" lon="6.16466">
        <ele>414.8</ele>
        <time>2023-05-22T09:27:09Z</time>
      </trkpt>
      <trkpt lat="43.57552" lon="6.16463">
        <ele>414.6</ele>
      </trkpt>
      <trkpt lat="43.57547" lon="6.16459">
        <ele>414.4</ele>
        <time>2023-05-22T09:27:21Z</time>
      </trkpt>
      <trkpt lat="43.57541" lon="6.16462">
        <ele>414.4</ele>
      </trkpt>
      <trkpt lat="43.57536" lon="6.16465">
        <ele>414.5</ele>
        <time>2023-05-22T09:27:38Z</time>
      </trkpt>
      <trkpt lat="43.57529" lon="6.16469">
        <ele>414.8</ele>
      </trkpt>
      <trkpt lat="43.57522" lon="6.16473">
        <ele>414.7</ele>
        <time>2023-05-22T09:27:53Z</time>
      </trkpt>
      <trkpt lat="43.57515" lon="6.16477">
        <ele>414.7</ele>
      </trkpt>
      <trkpt lat="43.57507" lon="6.16481">
        <ele>414.5</ele>
        <time>2023-05-22T09:28:03Z</time>
      </trkpt>
      <trkpt lat="43.57501" lon="6.16485">
        <ele>414.5</ele>
        <time>2023-05-22T09:28:16Z</time>
      </trkpt>
      <trkpt lat="43.57496" lon="6.16487">
        <ele>414.4</ele>
      </trkpt>
      <trkpt lat="43.57491" lon="6.16488">
        <ele>414.4</ele>
        <time>2023-05-22T09:28:27Z</time>
      </trkpt>
      <trkpt lat="43.57486" lon="6.16488">
        <ele>414.2</ele>
      </trkpt>
      <trkpt lat="43.57481" lon="6.16488">
        <ele>414</ele>
        <time>2023-05-22T09:28:42Z</time>
      </trkpt>
      <trkpt lat="43.57477" lon="6.16486">
        <ele>413.6</ele>
      </trkpt>
      <trkpt lat="43.57472" lon="6.16483">
        <ele>413.2</ele>
        <time>2023-05-22T09:29:00Z</time>
      </trkpt>
      <trkpt lat="43.57468" lon="6.1648">
        <ele>412.7</ele>
      </trkpt>
      <trkpt lat="43.57464" lon="6.16476">
        <ele>412.1</ele>
        <time>2023-05-22T09:29:12Z</time>
      </trkpt>
      <trkpt lat="43.57459" lon="6.16477">
        <ele>412.1</ele>
      </trkpt>
      <trkpt lat="43.57454" lon="6.16477">
        <ele>412</ele>
        <time>2023-05-22T09:29:26Z</time>
      </trkpt>
      <trkpt lat="43.57449" lon="6.16479">
        <ele>412</ele>
      </trkpt>
      <trkpt lat="43.57445" lon="6.1648">
        <ele>412.1</ele>
        <time>2023-05-22T09:29:37Z</time>
      </trkpt>
      <trkpt lat="43.57438" lon="6.16481">
        <ele>411.8</ele>
      </trkpt>
      <trkpt lat="43.57432" lon="6.16482">
        <ele>411.6</ele>
        <time>2023-05-22T09:29:48Z</time>
      </trkpt>
      <trkpt lat="43.57425" lon="6.16476">
        <ele>410.2</ele>
        <time>2023-05-22T09:30:01Z</time>
      </trkpt>
      <trkpt lat="43.5742" lon="6.16473">
        <ele>409.3</ele>
      </trkpt>
      <trkpt lat="43.57415" lon="6.1647">
        <ele>408.8</ele>
        <time>2023-05-22T09:30:15Z</time>
      </trkpt>
      <trkpt lat="43.57408" lon="6.16474">
        <ele>408.6</ele>
      </trkpt>
      <trkpt lat="43.57401" lon="6.16478">
        <ele>408.6</ele>
        <time>2023-05-22T09:30:30Z</time>
      </trkpt>
      <trkpt lat="43.57395" lon="6.1648">
        <ele>408.3</ele>
      </trkpt>
      <trkpt lat="43.57389" lon="6.16482">
        <ele>408</ele>
        <time>2023-05-22T09:30:41Z</time>
      </trkpt>
      <trkpt lat="43.57384" lon="6.16484">
        <ele>407.7</ele>
      </trkpt>
      <trkpt lat="43.57379" lon="6.16486">
        <ele>407.4</ele>
        <time>2023-05-22T09:30:52Z</time>
      </trkpt>
      <trkpt lat="43.57372" lon="6.16492">
        <ele>407.3</ele>
      </trkpt>
      <trkpt lat="43.57365" lon="6.16498">
        <ele>407.2</ele>
        <time>2023-05-22T09:31:10Z</time>
      </trkpt>
      <trkpt lat="43.57358" lon="6.16505">
        <ele>407</ele>
      </trkpt>
      <trkpt lat="43.57351" lon="6.16512">
        <ele>406.7</ele>
        <time>2023-05-22T09:31:25Z</time>
      </trkpt>
      <trkpt lat="43.57347" lon="6.16515">
        <ele>406.3</ele>
      </trkpt>
      <trkpt lat="43.57342" lon="6.16518">
        <ele>406</ele>
        <time>2023-05-22T09:31:37Z</time>
      </trkpt>
      <trkpt lat="43.5734" lon="6.16525">
        <ele>406.6</ele>
      </trkpt>
      <trkpt lat="43.57338" lon="6.16533">
        <ele>406.8</ele>
        <time>2023-05-22T09:31:49Z</time>
      </trkpt>
      <trkpt lat="43.57336" lon="6.16545">
        <ele>407.1</ele>
      </trkpt>
      <trkpt lat="43.57335" lon="6.16557">
        <ele>407.4</ele>
        <time>2023-05-22T09:32:07Z</time>
      </trkpt>
      <trkpt lat="43.57332" lon="6.16562">
        <ele>407.2</ele>
      </trkpt>
      <trkpt lat="43.57329" lon="6.16568">
        <ele>406.8</ele>
        <time>2023-05-22T09:32:18Z</time>
      </trkpt>
      <trkpt lat="43.57325" lon="6.16575">
        <ele>406</ele>
        <time>2023-05-22T09:33:02Z</time>
      </trkpt>
      <trkpt lat="43.57326" lon="6.16583">
        <ele>406.7</ele>
      </trkpt>
      <trkpt lat="43.57326" lon="6.16591">
        <ele>407.3</ele>
        <time>2023-05-22T09:33:15Z</time>
      </trkpt>
      <trkpt lat="43.57327" lon="6.16598">
        <ele>407.7</ele>
      </trkpt>
      <trkpt lat="43.57327" lon="6.16606">
        <ele>408.1</ele>
        <time>2023-05-22T09:33:27Z</time>
      </trkpt>
      <trkpt lat="43.57328" lon="6.16613">
        <ele>408.7</ele>
      </trkpt>
      <trkpt lat="43.5733" lon="6.16619">
        <ele>408.9</ele>
        <time>2023-05-22T09:33:39Z</time>
      </trkpt>
      <trkpt lat="43.57332" lon="6.16626">
        <ele>409.1</ele>
      </trkpt>
      <trkpt lat="43.57333" lon="6.16633">
        <ele>409.2</ele>
        <time>2023-05-22T09:33:49Z</time>
      </trkpt>
      <trkpt lat="43.57335" lon="6.16639">
        <ele>409.4</ele>
      </trkpt>
      <trkpt lat="43.57337" lon="6.16645">
        <ele>409.5</ele>
        <time>2023-05-22T09:33:59Z</time>
      </trkpt>
      <trkpt lat="43.57338" lon="6.16653">
        <ele>409.3</ele>
      </trkpt>
      <trkpt lat="43.57339" lon="6.1666">
        <ele>409</ele>
        <time>2023-05-22T09:34:11Z</time>
      </trkpt>
      <trkpt lat="43.57336" lon="6.16668">
        <ele>408.3</ele>
      </trkpt>
      <trkpt lat="43.57334" lon="6.16676">
        <ele>407.7</ele>
        <time>2023-05-22T09:34:24Z</time>
      </trkpt>
      <trkpt lat="43.57332" lon="6.16682">
        <ele>407.3</ele>
      </trkpt>
      <trkpt lat="43.57329" lon="6.16689">
        <ele>406.8</ele>
        <time>2023-05-22T09:34:43Z</time>
      </trkpt>
      <trkpt lat="43.57331" lon="6.16695">
        <ele>406.7</ele>
        <time>2023-05-22T09:35:03Z</time>
      </trkpt>
      <trkpt lat="43.57331" lon="6.16704">
        <ele>405</ele>
        <time>2023-05-22T09:35:37Z</time>
      </trkpt>
      <trkpt lat="43.57329" lon="6.16711">
        <ele>403.9</ele>
      </trkpt>
      <trkpt lat="43.57327" lon="6.16717">
        <ele>402.8</ele>
        <time>2023-05-22T09:36:00Z</time>
      </trkpt>
      <trkpt lat="43.57324" lon="6.16723">
        <ele>401.8</ele>
      </trkpt>
      <trkpt lat="43.57321" lon="6.1673">
        <ele>400.9</ele>
        <time>2023-05-22T09:36:12Z</time>
      </trkpt>
      <trkpt lat="43.57321" lon="6.16737">
        <ele>399.8</ele>
      </trkpt>
      <trkpt lat="43.5732" lon="6.16745">
        <ele>398.8</ele>
        <time>2023-05-22T09:36:22Z</time>
      </trkpt>
      <trkpt lat="43.57316" lon="6.16749">
        <ele>398.2</ele>
      </trkpt>
      <trkpt lat="43.57311" lon="6.16753">
        <ele>397.6</ele>
        <time>2023-05-22T09:36:33Z</time>
      </trkpt>
      <trkpt lat="43.57309" lon="6.16759">
        <ele>396.8</ele>
      </trkpt>
      <trkpt lat="43.57307" lon="6.16764">
        <ele>395.9</ele>
        <time>2023-05-22T09:36:43Z</time>
      </trkpt>
      <trkpt lat="43.5731" lon="6.1677">
        <ele>395.2</ele>
      </trkpt>
      <trkpt lat="43.57314" lon="6.16776">
        <ele>394.5</ele>
        <time>2023-05-22T09:36:57Z</time>
      </trkpt>
      <trkpt lat="43.57317" lon="6.16782">
        <ele>394.1</ele>
      </trkpt>
      <trkpt lat="43.57321" lon="6.16787">
        <ele>393.7</ele>
        <time>2023-05-22T09:37:08Z</time>
      </trkpt>
      <trkpt lat="43.57326" lon="6.16792">
        <ele>393.6</ele>
      </trkpt>
      <trkpt lat="43.57331" lon="6.16797">
        <ele>393.5</ele>
        <time>2023-05-22T09:37:19Z</time>
      </trkpt>
      <trkpt lat="43.57334" lon="6.16803">
        <ele>393.2</ele>
      </trkpt>
      <trkpt lat="43.57337" lon="6.16809">
        <ele>393</ele>
        <time>2023-05-22T09:37:29Z</time>
      </trkpt>
      <trkpt lat="43.5734" lon="6.16818">
        <ele>392.5</ele>
      </trkpt>
      <trkpt lat="43.57344" lon="6.16826">
        <ele>392</ele>
        <time>2023-05-22T09:37:41Z</time>
      </trkpt>
      <trkpt lat="43.57347" lon="6.16832">
        <ele>391.6</ele>
      </trkpt>
      <trkpt lat="43.57351" lon="6.16838">
        <ele>391.1</ele>
        <time>2023-05-22T09:37:52Z</time>
      </trkpt>
      <trkpt lat="43.57356" lon="6.16839">
        <ele>391.2</ele>
      </trkpt>
      <trkpt lat="43.57361" lon="6.16839">
        <ele>391.4</ele>
        <time>2023-05-22T09:38:03Z</time>
      </trkpt>
      <trkpt lat="43.57367" lon="6.16841">
        <ele>391.4</ele>
      </trkpt>
      <trkpt lat="43.57372" lon="6.16843">
        <ele>391.4</ele>
        <time>2023-05-22T09:38:12Z</time>
      </trkpt>
      <trkpt lat="43.57377" lon="6.16846">
        <ele>391.2</ele>
      </trkpt>
      <trkpt lat="43.57382" lon="6.1685">
        <ele>391</ele>
        <time>2023-05-22T09:38:22Z</time>
      </trkpt>
      <trkpt lat="43.57385" lon="6.16856">
        <ele>390.4</ele>
      </trkpt>
      <trkpt lat="43.57388" lon="6.16862">
        <ele>390</ele>
        <time>2023-05-22T09:38:33Z</time>
      </trkpt>
      <trkpt lat="43.57392" lon="6.16869">
        <ele>390.8</ele>
      </trkpt>
      <trkpt lat="43.57396" lon="6.16875">
        <ele>391.6</ele>
        <time>2023-05-22T09:38:45Z</time>
      </trkpt>
      <trkpt lat="43.57397" lon="6.16882">
        <ele>392.1</ele>
      </trkpt>
      <trkpt lat="43.57399" lon="6.16889">
        <ele>392.5</ele>
        <time>2023-05-22T09:39:27Z</time>
      </trkpt>
      <trkpt lat="43.57401" lon="6.16896">
        <ele>392.6</ele>
      </trkpt>
      <trkpt lat="43.57403" lon="6.16902">
        <ele>392.7</ele>
        <time>2023-05-22T09:39:42Z</time>
      </trkpt>
      <trkpt lat="43.57404" lon="6.1691">
        <ele>392.7</ele>
      </trkpt>
      <trkpt lat="43.57405" lon="6.16918">
        <ele>392.6</ele>
        <time>2023-05-22T09:39:52Z</time>
      </trkpt>
      <trkpt lat="43.57406" lon="6.16926">
        <ele>392.4</ele>
      </trkpt>
      <trkpt lat="43.57407" lon="6.16933">
        <ele>392.2</ele>
        <time>2023-05-22T09:40:02Z</time>
      </trkpt>
      <trkpt lat="43.57402" lon="6.1694">
        <ele>391.2</ele>
      </trkpt>
      <trkpt lat="43.57397" lon="6.16946">
        <ele>390.2</ele>
        <time>2023-05-22T09:42:05Z</time>
      </trkpt>
      <trkpt lat="43.57393" lon="6.16953">
        <ele>389.5</ele>
        <time>2023-05-22T09:42:16Z</time>
      </trkpt>
      <trkpt lat="43.57389" lon="6.1696">
        <ele>389.1</ele>
      </trkpt>
      <trkpt lat="43.57386" lon="6.16967">
        <ele>388.6</ele>
        <time>2023-05-22T09:42:26Z</time>
      </trkpt>
      <trkpt lat="43.57383" lon="6.16973">
        <ele>388.1</ele>
      </trkpt>
      <trkpt lat="43.5738" lon="6.16978">
        <ele>387.3</ele>
        <time>2023-05-22T09:42:35Z</time>
      </trkpt>
      <trkpt lat="43.57379" lon="6.16985">
        <ele>386.7</ele>
      </trkpt>
      <trkpt lat="43.57378" lon="6.16992">
        <ele>386.1</ele>
        <time>2023-05-22T09:42:45Z</time>
      </trkpt>
      <trkpt lat="43.57377" lon="6.16999">
        <ele>385.6</ele>
      </trkpt>
      <trkpt lat="43.57375" lon="6.17006">
        <ele>385.1</ele>
        <time>2023-05-22T09:42:55Z</time>
      </trkpt>
      <trkpt lat="43.57375" lon="6.17013">
        <ele>384.6</ele>
      </trkpt>
      <trkpt lat="43.57374" lon="6.1702">
        <ele>384</ele>
        <time>2023-05-22T09:43:03Z</time>
      </trkpt>
      <trkpt lat="43.57371" lon="6.17025">
        <ele>383.5</ele>
      </trkpt>
      <trkpt lat="43.57368" lon="6.17031">
        <ele>383.1</ele>
        <time>2023-05-22T09:43:12Z</time>
      </trkpt>
      <trkpt lat="43.57365" lon="6.17036">
        <ele>382.7</ele>
      </trkpt>
      <trkpt lat="43.57362" lon="6.17042">
        <ele>382.5</ele>
        <time>2023-05-22T09:43:23Z</time>
      </trkpt>
      <trkpt lat="43.57357" lon="6.1705">
        <ele>382.3</ele>
      </trkpt>
      <trkpt lat="43.57352" lon="6.17057">
        <ele>382.3</ele>
        <time>2023-05-22T09:43:36Z</time>
      </trkpt>
      <trkpt lat="43.57348" lon="6.17063">
        <ele>382.2</ele>
      </trkpt>
      <trkpt lat="43.57343" lon="6.17068">
        <ele>382.2</ele>
        <time>2023-05-22T09:43:45Z</time>
      </trkpt>
      <trkpt lat="43.5734" lon="6.17077">
        <ele>382</ele>
      </trkpt>
      <trkpt lat="43.57337" lon="6.17085">
        <ele>381.9</ele>
        <time>2023-05-22T09:43:55Z</time>
      </trkpt>
      <trkpt lat="43.57337" lon="6.17096">
        <ele>382.1</ele>
        <time>2023-05-22T09:44:03Z</time>
      </trkpt>
      <trkpt lat="43.57341" lon="6.17107">
        <ele>381.9</ele>
        <time>2023-05-22T09:44:11Z</time>
      </trkpt>
      <trkpt lat="43.57345" lon="6.17111">
        <ele>381.3</ele>
      </trkpt>
      <trkpt lat="43.57349" lon="6.17115">
        <ele>380.7</ele>
        <time>2023-05-22T09:44:19Z</time>
      </trkpt>
      <trkpt lat="43.57352" lon="6.1712">
        <ele>380.1</ele>
      </trkpt>
      <trkpt lat="43.57355" lon="6.17126">
        <ele>379.6</ele>
        <time>2023-05-22T09:44:27Z</time>
      </trkpt>
      <trkpt lat="43.57357" lon="6.17132">
        <ele>379.4</ele>
      </trkpt>
      <trkpt lat="43.57359" lon="6.17139">
        <ele>379.2</ele>
        <time>2023-05-22T09:44:35Z</time>
      </trkpt>
      <trkpt lat="43.5736" lon="6.17145">
        <ele>378.9</ele>
      </trkpt>
      <trkpt lat="43.57361" lon="6.17151">
        <ele>378.6</ele>
        <time>2023-05-22T09:44:43Z</time>
      </trkpt>
      <trkpt lat="43.57363" lon="6.17158">
        <ele>378.2</ele>
      </trkpt>
      <trkpt lat="43.57366" lon="6.17166">
        <ele>377.7</ele>
        <time>2023-05-22T09:44:52Z</time>
      </trkpt>
      <trkpt lat="43.57367" lon="6.17173">
        <ele>377.4</ele>
      </trkpt>
      <trkpt lat="43.57368" lon="6.1718">
        <ele>377.2</ele>
        <time>2023-05-22T09:45:00Z</time>
      </trkpt>
      <trkpt lat="43.57368" lon="6.17187">
        <ele>376.9</ele>
      </trkpt>
      <trkpt lat="43.57369" lon="6.17194">
        <ele>376.7</ele>
        <time>2023-05-22T09:45:09Z</time>
      </trkpt>
      <trkpt lat="43.5737" lon="6.17202">
        <ele>376.6</ele>
      </trkpt>
      <trkpt lat="43.57371" lon="6.1721">
        <ele>376.5</ele>
        <time>2023-05-22T09:45:18Z</time>
      </trkpt>
      <trkpt lat="43.57374" lon="6.17216">
        <ele>376.2</ele>
      </trkpt>
      <trkpt lat="43.57377" lon="6.17222">
        <ele>375.9</ele>
        <time>2023-05-22T09:45:27Z</time>
      </trkpt>
      <trkpt lat="43.57379" lon="6.17228">
        <ele>375.5</ele>
      </trkpt>
      <trkpt lat="43.57381" lon="6.17235">
        <ele>375.2</ele>
        <time>2023-05-22T09:45:36Z</time>
      </trkpt>
      <trkpt lat="43.57382" lon="6.17241">
        <ele>374.8</ele>
      </trkpt>
      <trkpt lat="43.57383" lon="6.17248">
        <ele>374.5</ele>
        <time>2023-05-22T09:45:47Z</time>
      </trkpt>
      <trkpt lat="43.57381" lon="6.17259">
        <ele>374.4</ele>
      </trkpt>
      <trkpt lat="43.5738" lon="6.1727">
        <ele>374.2</ele>
        <time>2023-05-22T09:46:01Z</time>
      </trkpt>
      <trkpt lat="43.57377" lon="6.17278">
        <ele>374</ele>
      </trkpt>
      <trkpt lat="43.57375" lon="6.17286">
        <ele>373.7</ele>
        <time>2023-05-22T09:46:11Z</time>
      </trkpt>
      <trkpt lat="43.57372" lon="6.17293">
        <ele>373.4</ele>
      </trkpt>
      <trkpt lat="43.57368" lon="6.17301">
        <ele>373.2</ele>
        <time>2023-05-22T09:46:21Z</time>
      </trkpt>
      <trkpt lat="43.57365" lon="6.17308">
        <ele>373</ele>
      </trkpt>
      <trkpt lat="43.57362" lon="6.17314">
        <ele>373</ele>
        <time>2023-05-22T09:46:30Z</time>
      </trkpt>
      <trkpt lat="43.57357" lon="6.17317">
        <ele>373.3</ele>
      </trkpt>
      <trkpt lat="43.57353" lon="6.1732">
        <ele>373.6</ele>
        <time>2023-05-22T09:46:44Z</time>
      </trkpt>
      <trkpt lat="43.5735" lon="6.17325">
        <ele>373.5</ele>
      </trkpt>
      <trkpt lat="43.57346" lon="6.17329">
        <ele>373.3</ele>
        <time>2023-05-22T09:46:56Z</time>
      </trkpt>
      <trkpt lat="43.57341" lon="6.17331">
        <ele>373.2</ele>
      </trkpt>
      <trkpt lat="43.57337" lon="6.17333">
        <ele>373</ele>
        <time>2023-05-22T09:47:08Z</time>
      </trkpt>
      <trkpt lat="43.57331" lon="6.17336">
        <ele>373.1</ele>
      </trkpt>
      <trkpt lat="43.57324" lon="6.1734">
        <ele>373.4</ele>
        <time>2023-05-22T09:47:25Z</time>
      </trkpt>
      <trkpt lat="43.57321" lon="6.17343">
        <ele>373.3</ele>
      </trkpt>
      <trkpt lat="43.57317" lon="6.17347">
        <ele>373.2</ele>
      </trkpt>
      <trkpt lat="43.57313" lon="6.17351">
        <ele>373</ele>
      </trkpt>
      <trkpt lat="43.5731" lon="6.17354">
        <ele>372.8</ele>
        <time>2023-05-22T09:47:38Z</time>
      </trkpt>
      <trkpt lat="43.57305" lon="6.17358">
        <ele>372.6</ele>
      </trkpt>
      <trkpt lat="43.573" lon="6.17361">
        <ele>372.6</ele>
        <time>2023-05-22T09:47:50Z</time>
      </trkpt>
      <trkpt lat="43.57294" lon="6.17365">
        <ele>372.8</ele>
      </trkpt>
      <trkpt lat="43.57289" lon="6.1737">
        <ele>372.8</ele>
        <time>2023-05-22T09:48:03Z</time>
      </trkpt>
      <trkpt lat="43.57282" lon="6.17373">
        <ele>373</ele>
      </trkpt>
      <trkpt lat="43.57275" lon="6.17377">
        <ele>372.7</ele>
        <time>2023-05-22T09:48:14Z</time>
      </trkpt>
      <trkpt lat="43.57269" lon="6.1738">
        <ele>372.1</ele>
      </trkpt>
      <trkpt lat="43.57263" lon="6.17383">
        <ele>371.4</ele>
        <time>2023-05-22T09:48:25Z</time>
      </trkpt>
      <trkpt lat="43.57257" lon="6.17388">
        <ele>370.4</ele>
      </trkpt>
      <trkpt lat="43.57251" lon="6.17393">
        <ele>369.9</ele>
        <time>2023-05-22T09:48:34Z</time>
      </trkpt>
      <trkpt lat="43.57244" lon="6.17394">
        <ele>369.6</ele>
      </trkpt>
      <trkpt lat="43.57238" lon="6.17396">
        <ele>369.4</ele>
        <time>2023-05-22T09:48:42Z</time>
      </trkpt>
      <trkpt lat="43.57234" lon="6.17397">
        <ele>369.3</ele>
      </trkpt>
      <trkpt lat="43.57229" lon="6.17399">
        <ele>369.2</ele>
        <time>2023-05-22T09:48:50Z</time>
      </trkpt>
      <trkpt lat="43.57224" lon="6.17399">
        <ele>369</ele>
      </trkpt>
      <trkpt lat="43.5722" lon="6.174">
        <ele>369</ele>
        <time>2023-05-22T09:48:59Z</time>
      </trkpt>
      <trkpt lat="43.57213" lon="6.17402">
        <ele>368.9</ele>
        <time>2023-05-22T09:49:14Z</time>
      </trkpt>
      <trkpt lat="43.57206" lon="6.17407">
        <ele>368.6</ele>
        <time>2023-05-22T09:49:24Z</time>
      </trkpt>
      <trkpt lat="43.57201" lon="6.17407">
        <ele>368.5</ele>
      </trkpt>
      <trkpt lat="43.57196" lon="6.17406">
        <ele>368.4</ele>
        <time>2023-05-22T09:49:33Z</time>
      </trkpt>
      <trkpt lat="43.57191" lon="6.17406">
        <ele>368.3</ele>
      </trkpt>
      <trkpt lat="43.57186" lon="6.17407">
        <ele>368.2</ele>
        <time>2023-05-22T09:49:42Z</time>
      </trkpt>
      <trkpt lat="43.57182" lon="6.17407">
        <ele>368.2</ele>
      </trkpt>
      <trkpt lat="43.57177" lon="6.17408">
        <ele>368.1</ele>
        <time>2023-05-22T09:49:51Z</time>
      </trkpt>
      <trkpt lat="43.57171" lon="6.17408">
        <ele>368.1</ele>
      </trkpt>
      <trkpt lat="43.57166" lon="6.17407">
        <ele>368</ele>
        <time>2023-05-22T09:50:00Z</time>
      </trkpt>
      <trkpt lat="43.5716" lon="6.17409">
        <ele>368</ele>
      </trkpt>
      <trkpt lat="43.57155" lon="6.17412">
        <ele>368</ele>
        <time>2023-05-22T09:50:09Z</time>
      </trkpt>
      <trkpt lat="43.5715" lon="6.17414">
        <ele>368</ele>
      </trkpt>
      <trkpt lat="43.57144" lon="6.17417">
        <ele>368</ele>
        <time>2023-05-22T09:50:18Z</time>
      </trkpt>
      <trkpt lat="43.57139" lon="6.17418">
        <ele>368</ele>
      </trkpt>
      <trkpt lat="43.57134" lon="6.17419">
        <ele>368</ele>
        <time>2023-05-22T09:50:27Z</time>
      </trkpt>
      <trkpt lat="43.57129" lon="6.1742">
        <ele>368</ele>
      </trkpt>
      <trkpt lat="43.57124" lon="6.1742">
        <ele>368</ele>
        <time>2023-05-22T09:50:36Z</time>
      </trkpt>
      <trkpt lat="43.57119" lon="6.17422">
        <ele>368</ele>
      </trkpt>
      <trkpt lat="43.57114" lon="6.17424">
        <ele>368</ele>
        <time>2023-05-22T09:50:45Z</time>
      </trkpt>
      <trkpt lat="43.57109" lon="6.17425">
        <ele>368</ele>
      </trkpt>
      <trkpt lat="43.57104" lon="6.17426">
        <ele>368</ele>
        <time>2023-05-22T09:50:55Z</time>
      </trkpt>
      <trkpt lat="43.57099" lon="6.17426">
        <ele>368</ele>
      </trkpt>
      <trkpt lat="43.57093" lon="6.17426">
        <ele>368</ele>
        <time>2023-05-22T09:51:05Z</time>
      </trkpt>
      <trkpt lat="43.57088" lon="6.17428">
        <ele>368</ele>
      </trkpt>
      <trkpt lat="43.57084" lon="6.17429">
        <ele>368</ele>
        <time>2023-05-22T09:51:15Z</time>
      </trkpt>
      <trkpt lat="43.57079" lon="6.17431">
        <ele>367.8</ele>
      </trkpt>
      <trkpt lat="43.57074" lon="6.17434">
        <ele>367.7</ele>
        <time>2023-05-22T09:51:23Z</time>
      </trkpt>
      <trkpt lat="43.57069" lon="6.17437">
        <ele>367.5</ele>
      </trkpt>
      <trkpt lat="43.57064" lon="6.17439">
        <ele>367.3</ele>
        <time>2023-05-22T09:51:31Z</time>
      </trkpt>
      <trkpt lat="43.5706" lon="6.17442">
        <ele>367.1</ele>
      </trkpt>
      <trkpt lat="43.57055" lon="6.17444">
        <ele>367</ele>
        <time>2023-05-22T09:51:39Z</time>
      </trkpt>
      <trkpt lat="43.5705" lon="6.17445">
        <ele>367</ele>
      </trkpt>
      <trkpt lat="43.57046" lon="6.17446">
        <ele>367</ele>
        <time>2023-05-22T09:51:47Z</time>
      </trkpt>
      <trkpt lat="43.57038" lon="6.17448">
        <ele>367</ele>
      </trkpt>
      <trkpt lat="43.5703" lon="6.1745">
        <ele>367</ele>
        <time>2023-05-22T09:51:59Z</time>
      </trkpt>
      <trkpt lat="43.57026" lon="6.17452">
        <ele>367</ele>
      </trkpt>
      <trkpt lat="43.57021" lon="6.17453">
        <ele>367</ele>
        <time>2023-05-22T09:52:08Z</time>
      </trkpt>
      <trkpt lat="43.57017" lon="6.17456">
        <ele>367</ele>
      </trkpt>
      <trkpt lat="43.57012" lon="6.1746">
        <ele>367</ele>
        <time>2023-05-22T09:52:29Z</time>
      </trkpt>
      <trkpt lat="43.57007" lon="6.1746">
        <ele>367</ele>
      </trkpt>
      <trkpt lat="43.57002" lon="6.17461">
        <ele>367</ele>
        <time>2023-05-22T09:52:40Z</time>
      </trkpt>
      <trkpt lat="43.56994" lon="6.17464">
        <ele>367</ele>
        <time>2023-05-22T09:52:51Z</time>
      </trkpt>
      <trkpt lat="43.56989" lon="6.17466">
        <ele>367</ele>
      </trkpt>
      <trkpt lat="43.56984" lon="6.17468">
        <ele>367</ele>
        <time>2023-05-22T09:53:04Z</time>
      </trkpt>
      <trkpt lat="43.56979" lon="6.1747">
        <ele>367</ele>
      </trkpt>
      <trkpt lat="43.56974" lon="6.17472">
        <ele>367</ele>
        <time>2023-05-22T09:53:13Z</time>
      </trkpt>
      <trkpt lat="43.5697" lon="6.17474">
        <ele>367</ele>
      </trkpt>
      <trkpt lat="43.56965" lon="6.17476">
        <ele>367</ele>
        <time>2023-05-22T09:53:22Z</time>
      </trkpt>
      <trkpt lat="43.5696" lon="6.17478">
        <ele>367</ele>
      </trkpt>
      <trkpt lat="43.56955" lon="6.17479">
        <ele>367</ele>
        <time>2023-05-22T09:53:32Z</time>
      </trkpt>
      <trkpt lat="43.56949" lon="6.1748">
        <ele>367</ele>
      </trkpt>
      <trkpt lat="43.56943" lon="6.17481">
        <ele>367</ele>
        <time>2023-05-22T09:53:42Z</time>
      </trkpt>
      <trkpt lat="43.56938" lon="6.17482">
        <ele>366.8</ele>
      </trkpt>
      <trkpt lat="43.56933" lon="6.17482">
        <ele>366.7</ele>
        <time>2023-05-22T09:53:53Z</time>
      </trkpt>
      <trkpt lat="43.56927" lon="6.17485">
        <ele>366.6</ele>
      </trkpt>
      <trkpt lat="43.56921" lon="6.17487">
        <ele>366.6</ele>
        <time>2023-05-22T09:54:05Z</time>
      </trkpt>
      <trkpt lat="43.56915" lon="6.1749">
        <ele>366.7</ele>
      </trkpt>
      <trkpt lat="43.56909" lon="6.17492">
        <ele>366.8</ele>
        <time>2023-05-22T09:54:17Z</time>
      </trkpt>
      <trkpt lat="43.56901" lon="6.17494">
        <ele>366.9</ele>
      </trkpt>
      <trkpt lat="43.56893" lon="6.17497">
        <ele>367</ele>
        <time>2023-05-22T09:54:27Z</time>
      </trkpt>
      <trkpt lat="43.56888" lon="6.17497">
        <ele>367.1</ele>
      </trkpt>
      <trkpt lat="43.56883" lon="6.17497">
        <ele>367.6</ele>
        <time>2023-05-22T09:54:41Z</time>
      </trkpt>
      <trkpt lat="43.56891" lon="6.17493">
        <ele>367</ele>
        <time>2023-05-22T09:55:03Z</time>
      </trkpt>
      <trkpt lat="43.56889" lon="6.17497">
        <ele>367</ele>
        <time>2023-05-22T09:55:28Z</time>
      </trkpt>
      <trkpt lat="43.56881" lon="6.17496">
        <ele>367.9</ele>
        <time>2023-05-22T09:55:49Z</time>
      </trkpt>
      <trkpt lat="43.56879" lon="6.17504">
        <ele>368.1</ele>
      </trkpt>
      <trkpt lat="43.56877" lon="6.17511">
        <ele>368.3</ele>
        <time>2023-05-22T09:56:02Z</time>
      </trkpt>
      <trkpt lat="43.56875" lon="6.17518">
        <ele>368.5</ele>
      </trkpt>
      <trkpt lat="43.56874" lon="6.17524">
        <ele>368.6</ele>
        <time>2023-05-22T09:56:19Z</time>
      </trkpt>
      <trkpt lat="43.56873" lon="6.17532">
        <ele>368.6</ele>
      </trkpt>
      <trkpt lat="43.56872" lon="6.1754">
        <ele>368.6</ele>
        <time>2023-05-22T09:56:35Z</time>
      </trkpt>
      <trkpt lat="43.5687" lon="6.17547">
        <ele>368.6</ele>
      </trkpt>
      <trkpt lat="43.56868" lon="6.17554">
        <ele>368.8</ele>
        <time>2023-05-22T09:56:47Z</time>
      </trkpt>
      <trkpt lat="43.56867" lon="6.17563">
        <ele>368.7</ele>
      </trkpt>
      <trkpt lat="43.56866" lon="6.17571">
        <ele>368.6</ele>
        <time>2023-05-22T09:56:59Z</time>
      </trkpt>
      <trkpt lat="43.56864" lon="6.1758">
        <ele>368.5</ele>
      </trkpt>
      <trkpt lat="43.56863" lon="6.1759">
        <ele>368.2</ele>
        <time>2023-05-22T09:57:14Z</time>
      </trkpt>
      <trkpt lat="43.56861" lon="6.17599">
        <ele>367.9</ele>
      </trkpt>
      <trkpt lat="43.56859" lon="6.17608">
        <ele>367.6</ele>
        <time>2023-05-22T09:57:27Z</time>
      </trkpt>
      <trkpt lat="43.56857" lon="6.17616">
        <ele>367.1</ele>
      </trkpt>
      <trkpt lat="43.56856" lon="6.17624">
        <ele>366.6</ele>
        <time>2023-05-22T09:57:40Z</time>
      </trkpt>
      <trkpt lat="43.56853" lon="6.1763">
        <ele>366.5</ele>
      </trkpt>
      <trkpt lat="43.56851" lon="6.17636">
        <ele>366.4</ele>
      </trkpt>
      <trkpt lat="43.56849" lon="6.17641">
        <ele>366.6</ele>
      </trkpt>
      <trkpt lat="43.56847" lon="6.17647">
        <ele>367</ele>
        <time>2023-05-22T09:57:56Z</time>
      </trkpt>
      <trkpt lat="43.56844" lon="6.17655">
        <ele>367.4</ele>
      </trkpt>
      <trkpt lat="43.56842" lon="6.17663">
        <ele>367.9</ele>
        <time>2023-05-22T09:58:07Z</time>
      </trkpt>
      <trkpt lat="43.56843" lon="6.17672">
        <ele>367.3</ele>
      </trkpt>
      <trkpt lat="43.56844" lon="6.17682">
        <ele>366.5</ele>
        <time>2023-05-22T09:58:18Z</time>
      </trkpt>
      <trkpt lat="43.56845" lon="6.17689">
        <ele>365.8</ele>
      </trkpt>
      <trkpt lat="43.56846" lon="6.17695">
        <ele>365.1</ele>
        <time>2023-05-22T09:58:28Z</time>
      </trkpt>
      <trkpt lat="43.56849" lon="6.17705">
        <ele>364.2</ele>
        <time>2023-05-22T09:58:43Z</time>
      </trkpt>
      <trkpt lat="43.56849" lon="6.17707">
        <ele>364.2</ele>
        <time>2023-05-22T09:59:11Z</time>
      </trkpt>
      <trkpt lat="43.56845" lon="6.17708">
        <ele>364.4</ele>
      </trkpt>
      <trkpt lat="43.56841" lon="6.177">
        <ele>365.6</ele>
        <time>2023-05-22T09:59:29Z</time>
      </trkpt>
      <trkpt lat="43.56836" lon="6.17704">
        <ele>365.7</ele>
      </trkpt>
      <trkpt lat="43.56831" lon="6.17707">
        <ele>365.6</ele>
        <time>2023-05-22T09:59:43Z</time>
      </trkpt>
      <trkpt lat="43.56826" lon="6.17711">
        <ele>365.9</ele>
      </trkpt>
      <trkpt lat="43.56821" lon="6.17714">
        <ele>366.3</ele>
        <time>2023-05-22T09:59:55Z</time>
      </trkpt>
      <trkpt lat="43.56818" lon="6.1772">
        <ele>366.2</ele>
      </trkpt>
      <trkpt lat="43.56814" lon="6.17726">
        <ele>366.6</ele>
        <time>2023-05-22T10:00:09Z</time>
      </trkpt>
      <trkpt lat="43.56812" lon="6.17735">
        <ele>366.5</ele>
      </trkpt>
      <trkpt lat="43.56809" lon="6.17743">
        <ele>366.2</ele>
        <time>2023-05-22T10:00:21Z</time>
      </trkpt>
      <trkpt lat="43.56807" lon="6.1775">
        <ele>365.9</ele>
      </trkpt>
      <trkpt lat="43.56804" lon="6.17757">
        <ele>365.4</ele>
        <time>2023-05-22T10:00:32Z</time>
      </trkpt>
      <trkpt lat="43.56804" lon="6.17768">
        <ele>363.9</ele>
        <time>2023-05-22T10:00:45Z</time>
      </trkpt>
      <trkpt lat="43.56803" lon="6.17779">
        <ele>363</ele>
      </trkpt>
      <trkpt lat="43.56801" lon="6.1779">
        <ele>365</ele>
        <time>2023-05-22T10:00:57Z</time>
      </trkpt>
      <trkpt lat="43.56801" lon="6.17798">
        <ele>366.2</ele>
      </trkpt>
      <trkpt lat="43.56801" lon="6.17805">
        <ele>367.4</ele>
        <time>2023-05-22T10:01:10Z</time>
      </trkpt>
      <trkpt lat="43.568" lon="6.17812">
        <ele>368.2</ele>
      </trkpt>
      <trkpt lat="43.56799" lon="6.17818">
        <ele>369.1</ele>
        <time>2023-05-22T10:01:31Z</time>
      </trkpt>
      <trkpt lat="43.56795" lon="6.17815">
        <ele>369.4</ele>
        <time>2023-05-22T10:01:58Z</time>
      </trkpt>
      <trkpt lat="43.56788" lon="6.1782">
        <ele>371.2</ele>
        <time>2023-05-22T10:02:28Z</time>
      </trkpt>
      <trkpt lat="43.56786" lon="6.17823">
        <ele>372.1</ele>
        <time>2023-05-22T10:02:50Z</time>
      </trkpt>
      <trkpt lat="43.56785" lon="6.17824">
        <ele>372.5</ele>
        <time>2023-05-22T10:03:07Z</time>
      </trkpt>
      <trkpt lat="43.56781" lon="6.17821">
        <ele>372.7</ele>
      </trkpt>
      <trkpt lat="43.56777" lon="6.17818">
        <ele>372.8</ele>
        <time>2023-05-22T10:03:19Z</time>
      </trkpt>
      <trkpt lat="43.56772" lon="6.17815">
        <ele>373.1</ele>
      </trkpt>
      <trkpt lat="43.56767" lon="6.17812">
        <ele>373.5</ele>
        <time>2023-05-22T10:03:31Z</time>
      </trkpt>
      <trkpt lat="43.56762" lon="6.17811">
        <ele>374.1</ele>
      </trkpt>
      <trkpt lat="43.56757" lon="6.17809">
        <ele>374.6</ele>
        <time>2023-05-22T10:03:43Z</time>
      </trkpt>
      <trkpt lat="43.56753" lon="6.17806">
        <ele>374.6</ele>
      </trkpt>
      <trkpt lat="43.56748" lon="6.17803">
        <ele>375.3</ele>
        <time>2023-05-22T10:03:55Z</time>
      </trkpt>
      <trkpt lat="43.56744" lon="6.178">
        <ele>376</ele>
      </trkpt>
      <trkpt lat="43.5674" lon="6.17797">
        <ele>376.7</ele>
        <time>2023-05-22T10:04:07Z</time>
      </trkpt>
      <trkpt lat="43.56735" lon="6.17792">
        <ele>377.2</ele>
      </trkpt>
      <trkpt lat="43.5673" lon="6.17786">
        <ele>377.6</ele>
        <time>2023-05-22T10:04:20Z</time>
      </trkpt>
      <trkpt lat="43.56726" lon="6.1778">
        <ele>377.6</ele>
      </trkpt>
      <trkpt lat="43.56722" lon="6.17773">
        <ele>378.3</ele>
        <time>2023-05-22T10:04:36Z</time>
      </trkpt>
      <trkpt lat="43.56718" lon="6.1777">
        <ele>379</ele>
      </trkpt>
      <trkpt lat="43.56714" lon="6.17766">
        <ele>379.8</ele>
        <time>2023-05-22T10:04:47Z</time>
      </trkpt>
      <trkpt lat="43.56708" lon="6.17761">
        <ele>381.2</ele>
        <time>2023-05-22T10:05:10Z</time>
      </trkpt>
      <trkpt lat="43.56703" lon="6.1776">
        <ele>382</ele>
      </trkpt>
      <trkpt lat="43.56698" lon="6.17759">
        <ele>382.8</ele>
        <time>2023-05-22T10:05:21Z</time>
      </trkpt>
      <trkpt lat="43.56693" lon="6.17761">
        <ele>383.1</ele>
      </trkpt>
      <trkpt lat="43.56688" lon="6.17763">
        <ele>383.2</ele>
        <time>2023-05-22T10:05:32Z</time>
      </trkpt>
      <trkpt lat="43.56683" lon="6.17765">
        <ele>383.5</ele>
      </trkpt>
      <trkpt lat="43.56677" lon="6.17766">
        <ele>383.7</ele>
        <time>2023-05-22T10:05:42Z</time>
      </trkpt>
      <trkpt lat="43.56672" lon="6.17767">
        <ele>384.1</ele>
      </trkpt>
      <trkpt lat="43.56666" lon="6.17768">
        <ele>384.4</ele>
        <time>2023-05-22T10:05:52Z</time>
      </trkpt>
      <trkpt lat="43.56662" lon="6.17771">
        <ele>384.6</ele>
      </trkpt>
      <trkpt lat="43.56657" lon="6.17774">
        <ele>384.8</ele>
        <time>2023-05-22T10:06:04Z</time>
      </trkpt>
      <trkpt lat="43.56652" lon="6.17775">
        <ele>385</ele>
      </trkpt>
      <trkpt lat="43.56648" lon="6.17777">
        <ele>385.2</ele>
        <time>2023-05-22T10:06:14Z</time>
      </trkpt>
      <trkpt lat="43.56642" lon="6.17775">
        <ele>386.3</ele>
      </trkpt>
      <trkpt lat="43.5664" lon="6.17771">
        <ele>387.2</ele>
      </trkpt>
      <trkpt lat="43.56641" lon="6.17766">
        <ele>388.2</ele>
      </trkpt>
      <trkpt lat="43.56643" lon="6.17765">
        <ele>388.3</ele>
        <time>2023-05-22T10:06:28Z</time>
      </trkpt>
      <trkpt lat="43.56646" lon="6.17763">
        <ele>388.2</ele>
      </trkpt>
      <trkpt lat="43.5665" lon="6.17761">
        <ele>388</ele>
        <time>2023-05-22T10:06:40Z</time>
      </trkpt>
      <trkpt lat="43.56652" lon="6.17753">
        <ele>389</ele>
      </trkpt>
      <trkpt lat="43.56654" lon="6.17746">
        <ele>390.5</ele>
        <time>2023-05-22T10:06:52Z</time>
      </trkpt>
      <trkpt lat="43.56647" lon="6.17739">
        <ele>393.8</ele>
        <time>2023-05-22T10:07:13Z</time>
      </trkpt>
      <trkpt lat="43.56639" lon="6.17739">
        <ele>395.1</ele>
        <time>2023-05-22T10:07:36Z</time>
      </trkpt>
      <trkpt lat="43.56634" lon="6.17738">
        <ele>396.6</ele>
      </trkpt>
      <trkpt lat="43.56629" lon="6.17737">
        <ele>398</ele>
        <time>2023-05-22T10:07:51Z</time>
      </trkpt>
      <trkpt lat="43.56623" lon="6.17737">
        <ele>399</ele>
      </trkpt>
      <trkpt lat="43.56618" lon="6.17738">
        <ele>400</ele>
        <time>2023-05-22T10:08:04Z</time>
      </trkpt>
      <trkpt lat="43.56613" lon="6.17737">
        <ele>401.3</ele>
      </trkpt>
      <trkpt lat="43.56608" lon="6.17737">
        <ele>402.4</ele>
        <time>2023-05-22T10:08:18Z</time>
      </trkpt>
      <trkpt lat="43.56603" lon="6.17736">
        <ele>403.5</ele>
      </trkpt>
      <trkpt lat="43.56598" lon="6.17736">
        <ele>404.5</ele>
        <time>2023-05-22T10:08:32Z</time>
      </trkpt>
      <trkpt lat="43.56593" lon="6.17736">
        <ele>405.4</ele>
      </trkpt>
      <trkpt lat="43.56588" lon="6.17736">
        <ele>406.3</ele>
        <time>2023-05-22T10:08:48Z</time>
      </trkpt>
      <trkpt lat="43.5658" lon="6.17735">
        <ele>408.3</ele>
        <time>2023-05-22T10:09:08Z</time>
      </trkpt>
      <trkpt lat="43.56571" lon="6.17736">
        <ele>409.5</ele>
        <time>2023-05-22T10:09:22Z</time>
      </trkpt>
      <trkpt lat="43.56567" lon="6.17736">
        <ele>410.3</ele>
      </trkpt>
      <trkpt lat="43.56562" lon="6.17736">
        <ele>411.1</ele>
        <time>2023-05-22T10:09:36Z</time>
      </trkpt>
      <trkpt lat="43.56557" lon="6.17736">
        <ele>412.3</ele>
      </trkpt>
      <trkpt lat="43.56552" lon="6.17735">
        <ele>413</ele>
        <time>2023-05-22T10:09:54Z</time>
      </trkpt>
      <trkpt lat="43.56548" lon="6.17733">
        <ele>414.2</ele>
      </trkpt>
      <trkpt lat="43.56543" lon="6.17731">
        <ele>415.3</ele>
        <time>2023-05-22T10:10:09Z</time>
      </trkpt>
      <trkpt lat="43.56538" lon="6.17731">
        <ele>415.6</ele>
      </trkpt>
      <trkpt lat="43.56533" lon="6.17732">
        <ele>415.9</ele>
        <time>2023-05-22T10:10:24Z</time>
      </trkpt>
      <trkpt lat="43.5654" lon="6.17725">
        <ele>418.2</ele>
        <time>2023-05-22T10:10:41Z</time>
      </trkpt>
      <trkpt lat="43.56545" lon="6.1772">
        <ele>419.7</ele>
      </trkpt>
      <trkpt lat="43.56549" lon="6.17716">
        <ele>421.2</ele>
        <time>2023-05-22T10:10:54Z</time>
      </trkpt>
      <trkpt lat="43.56548" lon="6.17707">
        <ele>424.7</ele>
        <time>2023-05-22T10:11:12Z</time>
      </trkpt>
      <trkpt lat="43.56543" lon="6.1771">
        <ele>424.2</ele>
      </trkpt>
      <trkpt lat="43.56538" lon="6.17712">
        <ele>423.6</ele>
        <time>2023-05-22T10:11:27Z</time>
      </trkpt>
      <trkpt lat="43.56542" lon="6.17706">
        <ele>425.8</ele>
      </trkpt>
      <trkpt lat="43.56545" lon="6.177">
        <ele>427.9</ele>
        <time>2023-05-22T10:11:45Z</time>
      </trkpt>
      <trkpt lat="43.56549" lon="6.17695">
        <ele>429.4</ele>
      </trkpt>
      <trkpt lat="43.56553" lon="6.17691">
        <ele>431.1</ele>
        <time>2023-05-22T10:12:00Z</time>
      </trkpt>
      <trkpt lat="43.56557" lon="6.17687">
        <ele>432.3</ele>
      </trkpt>
      <trkpt lat="43.56561" lon="6.17683">
        <ele>433.3</ele>
        <time>2023-05-22T10:12:16Z</time>
      </trkpt>
      <trkpt lat="43.56566" lon="6.17679">
        <ele>434.5</ele>
      </trkpt>
      <trkpt lat="43.5657" lon="6.17675">
        <ele>435.5</ele>
        <time>2023-05-22T10:12:34Z</time>
      </trkpt>
      <trkpt lat="43.56574" lon="6.17672">
        <ele>436.2</ele>
      </trkpt>
      <trkpt lat="43.56578" lon="6.17668">
        <ele>436.7</ele>
        <time>2023-05-22T10:12:49Z</time>
      </trkpt>
      <trkpt lat="43.5658" lon="6.17662">
        <ele>438.2</ele>
      </trkpt>
      <trkpt lat="43.56582" lon="6.17656">
        <ele>439.7</ele>
        <time>2023-05-22T10:13:06Z</time>
      </trkpt>
      <trkpt lat="43.56584" lon="6.17651">
        <ele>441.1</ele>
      </trkpt>
      <trkpt lat="43.56587" lon="6.17645">
        <ele>442.8</ele>
        <time>2023-05-22T10:13:23Z</time>
      </trkpt>
      <trkpt lat="43.56591" lon="6.17639">
        <ele>444.6</ele>
      </trkpt>
      <trkpt lat="43.56594" lon="6.17634">
        <ele>445.2</ele>
        <time>2023-05-22T10:13:38Z</time>
      </trkpt>
      <trkpt lat="43.56599" lon="6.1763">
        <ele>445.3</ele>
      </trkpt>
      <trkpt lat="43.56604" lon="6.17627">
        <ele>445.3</ele>
        <time>2023-05-22T10:13:53Z</time>
      </trkpt>
      <trkpt lat="43.56608" lon="6.17631">
        <ele>444.8</ele>
      </trkpt>
      <trkpt lat="43.56613" lon="6.17634">
        <ele>443.2</ele>
        <time>2023-05-22T10:14:09Z</time>
      </trkpt>
      <trkpt lat="43.56615" lon="6.17641">
        <ele>440.2</ele>
      </trkpt>
      <trkpt lat="43.56619" lon="6.17644">
        <ele>436.3</ele>
        <time>2023-05-22T10:15:09Z</time>
      </trkpt>
      <trkpt lat="43.56619" lon="6.17648">
        <ele>434.5</ele>
        <time>2023-05-22T10:16:05Z</time>
      </trkpt>
      <trkpt lat="43.56621" lon="6.17649">
        <ele>433</ele>
        <time>2023-05-22T10:17:02Z</time>
      </trkpt>
      <trkpt lat="43.56617" lon="6.17649">
        <ele>434.8</ele>
        <time>2023-05-22T10:45:33Z</time>
      </trkpt>
      <trkpt lat="43.56614" lon="6.1764">
        <ele>441</ele>
        <time>2023-05-22T10:46:08Z</time>
      </trkpt>
      <trkpt lat="43.5661" lon="6.17631">
        <ele>444.6</ele>
        <time>2023-05-22T10:46:32Z</time>
      </trkpt>
      <trkpt lat="43.56612" lon="6.17622">
        <ele>444.5</ele>
        <time>2023-05-22T10:46:55Z</time>
      </trkpt>
      <trkpt lat="43.56604" lon="6.17619">
        <ele>446.1</ele>
        <time>2023-05-22T10:47:19Z</time>
      </trkpt>
      <trkpt lat="43.56598" lon="6.17619">
        <ele>446.6</ele>
      </trkpt>
      <trkpt lat="43.56593" lon="6.17619">
        <ele>447.1</ele>
        <time>2023-05-22T10:47:38Z</time>
      </trkpt>
      <trkpt lat="43.56588" lon="6.17618">
        <ele>447.6</ele>
      </trkpt>
      <trkpt lat="43.56583" lon="6.17618">
        <ele>448.1</ele>
        <time>2023-05-22T10:47:50Z</time>
      </trkpt>
      <trkpt lat="43.56578" lon="6.17612">
        <ele>449.1</ele>
      </trkpt>
      <trkpt lat="43.56572" lon="6.17606">
        <ele>449.3</ele>
        <time>2023-05-22T10:48:03Z</time>
      </trkpt>
      <trkpt lat="43.5657" lon="6.17599">
        <ele>449.1</ele>
      </trkpt>
      <trkpt lat="43.56568" lon="6.17592">
        <ele>448.8</ele>
        <time>2023-05-22T10:48:16Z</time>
      </trkpt>
      <trkpt lat="43.56559" lon="6.17593">
        <ele>448.7</ele>
        <time>2023-05-22T10:48:28Z</time>
      </trkpt>
      <trkpt lat="43.56554" lon="6.17588">
        <ele>448.2</ele>
      </trkpt>
      <trkpt lat="43.56549" lon="6.17583">
        <ele>447.5</ele>
        <time>2023-05-22T10:48:40Z</time>
      </trkpt>
      <trkpt lat="43.56546" lon="6.17578">
        <ele>447.1</ele>
      </trkpt>
      <trkpt lat="43.56543" lon="6.17574">
        <ele>446.6</ele>
        <time>2023-05-22T10:48:51Z</time>
      </trkpt>
      <trkpt lat="43.56535" lon="6.17572">
        <ele>445.8</ele>
        <time>2023-05-22T10:49:04Z</time>
      </trkpt>
      <trkpt lat="43.56528" lon="6.17573">
        <ele>445.2</ele>
        <time>2023-05-22T10:49:18Z</time>
      </trkpt>
      <trkpt lat="43.56527" lon="6.17578">
        <ele>445.6</ele>
        <time>2023-05-22T10:49:56Z</time>
      </trkpt>
      <trkpt lat="43.56521" lon="6.17585">
        <ele>445.1</ele>
        <time>2023-05-22T10:50:18Z</time>
      </trkpt>
      <trkpt lat="43.56517" lon="6.1759">
        <ele>444.7</ele>
      </trkpt>
      <trkpt lat="43.56513" lon="6.17595">
        <ele>444.3</ele>
        <time>2023-05-22T10:50:30Z</time>
      </trkpt>
      <trkpt lat="43.56508" lon="6.17593">
        <ele>443.3</ele>
      </trkpt>
      <trkpt lat="43.56502" lon="6.17592">
        <ele>442.4</ele>
        <time>2023-05-22T10:50:45Z</time>
      </trkpt>
      <trkpt lat="43.56498" lon="6.17596">
        <ele>441.8</ele>
        <time>2023-05-22T10:50:58Z</time>
      </trkpt>
      <trkpt lat="43.56499" lon="6.17595">
        <ele>441.9</ele>
        <time>2023-05-22T10:51:19Z</time>
      </trkpt>
      <trkpt lat="43.56498" lon="6.17593">
        <ele>441.8</ele>
        <time>2023-05-22T10:51:35Z</time>
      </trkpt>
      <trkpt lat="43.565" lon="6.17587">
        <ele>442</ele>
        <time>2023-05-22T10:51:55Z</time>
      </trkpt>
      <trkpt lat="43.56496" lon="6.17577">
        <ele>441.1</ele>
      </trkpt>
      <trkpt lat="43.56493" lon="6.17566">
        <ele>440.1</ele>
        <time>2023-05-22T10:52:10Z</time>
      </trkpt>
      <trkpt lat="43.56495" lon="6.1756">
        <ele>439.9</ele>
      </trkpt>
      <trkpt lat="43.56497" lon="6.17554">
        <ele>439.7</ele>
        <time>2023-05-22T10:52:25Z</time>
      </trkpt>
      <trkpt lat="43.56495" lon="6.17546">
        <ele>439</ele>
      </trkpt>
      <trkpt lat="43.56492" lon="6.17539">
        <ele>438.2</ele>
        <time>2023-05-22T10:52:35Z</time>
      </trkpt>
      <trkpt lat="43.56493" lon="6.17527">
        <ele>437.5</ele>
        <time>2023-05-22T10:52:45Z</time>
      </trkpt>
      <trkpt lat="43.56493" lon="6.1752">
        <ele>437.1</ele>
      </trkpt>
      <trkpt lat="43.56493" lon="6.17513">
        <ele>436.8</ele>
        <time>2023-05-22T10:52:57Z</time>
      </trkpt>
      <trkpt lat="43.56493" lon="6.17506">
        <ele>436.5</ele>
      </trkpt>
      <trkpt lat="43.56492" lon="6.17499">
        <ele>436.1</ele>
        <time>2023-05-22T10:53:08Z</time>
      </trkpt>
      <trkpt lat="43.5649" lon="6.17493">
        <ele>435.5</ele>
      </trkpt>
      <trkpt lat="43.56489" lon="6.17486">
        <ele>435</ele>
        <time>2023-05-22T10:53:18Z</time>
      </trkpt>
      <trkpt lat="43.56486" lon="6.17475">
        <ele>434.1</ele>
        <time>2023-05-22T10:53:28Z</time>
      </trkpt>
      <trkpt lat="43.56485" lon="6.17467">
        <ele>433.7</ele>
      </trkpt>
      <trkpt lat="43.56484" lon="6.17459">
        <ele>433.4</ele>
        <time>2023-05-22T10:53:39Z</time>
      </trkpt>
      <trkpt lat="43.56483" lon="6.17453">
        <ele>433.1</ele>
      </trkpt>
      <trkpt lat="43.56482" lon="6.17446">
        <ele>432.8</ele>
        <time>2023-05-22T10:53:51Z</time>
      </trkpt>
      <trkpt lat="43.5648" lon="6.17439">
        <ele>432.3</ele>
      </trkpt>
      <trkpt lat="43.56478" lon="6.17432">
        <ele>431.7</ele>
        <time>2023-05-22T10:54:03Z</time>
      </trkpt>
      <trkpt lat="43.56477" lon="6.17424">
        <ele>431.1</ele>
      </trkpt>
      <trkpt lat="43.56476" lon="6.17417">
        <ele>430.4</ele>
        <time>2023-05-22T10:54:14Z</time>
      </trkpt>
      <trkpt lat="43.56476" lon="6.17409">
        <ele>430.4</ele>
      </trkpt>
      <trkpt lat="43.56476" lon="6.17401">
        <ele>430.3</ele>
        <time>2023-05-22T10:54:24Z</time>
      </trkpt>
      <trkpt lat="43.56475" lon="6.17395">
        <ele>430.2</ele>
      </trkpt>
      <trkpt lat="43.56474" lon="6.17388">
        <ele>430.1</ele>
        <time>2023-05-22T10:54:35Z</time>
      </trkpt>
      <trkpt lat="43.56471" lon="6.17381">
        <ele>429.7</ele>
      </trkpt>
      <trkpt lat="43.56469" lon="6.17374">
        <ele>429.4</ele>
        <time>2023-05-22T10:54:45Z</time>
      </trkpt>
      <trkpt lat="43.56468" lon="6.17366">
        <ele>429.2</ele>
      </trkpt>
      <trkpt lat="43.56467" lon="6.17359">
        <ele>429</ele>
        <time>2023-05-22T10:54:55Z</time>
      </trkpt>
      <trkpt lat="43.56468" lon="6.17352">
        <ele>428.9</ele>
      </trkpt>
      <trkpt lat="43.56469" lon="6.17345">
        <ele>428.8</ele>
        <time>2023-05-22T10:55:06Z</time>
      </trkpt>
      <trkpt lat="43.56472" lon="6.17339">
        <ele>429</ele>
      </trkpt>
      <trkpt lat="43.56475" lon="6.17333">
        <ele>429.1</ele>
        <time>2023-05-22T10:55:18Z</time>
      </trkpt>
      <trkpt lat="43.56476" lon="6.17323">
        <ele>428.8</ele>
      </trkpt>
      <trkpt lat="43.56476" lon="6.17313">
        <ele>428.6</ele>
        <time>2023-05-22T10:55:32Z</time>
      </trkpt>
      <trkpt lat="43.56477" lon="6.17306">
        <ele>428.5</ele>
      </trkpt>
      <trkpt lat="43.56477" lon="6.17298">
        <ele>428.7</ele>
        <time>2023-05-22T10:55:43Z</time>
      </trkpt>
      <trkpt lat="43.56477" lon="6.1729">
        <ele>429</ele>
      </trkpt>
      <trkpt lat="43.56477" lon="6.17283">
        <ele>429.2</ele>
        <time>2023-05-22T10:55:54Z</time>
      </trkpt>
      <trkpt lat="43.56475" lon="6.17275">
        <ele>429.2</ele>
      </trkpt>
      <trkpt lat="43.56474" lon="6.17268">
        <ele>429.1</ele>
        <time>2023-05-22T10:56:03Z</time>
      </trkpt>
      <trkpt lat="43.56475" lon="6.17265">
        <ele>429.2</ele>
        <time>2023-05-22T10:56:47Z</time>
      </trkpt>
      <trkpt lat="43.56479" lon="6.17262">
        <ele>429.5</ele>
        <time>2023-05-22T10:57:35Z</time>
      </trkpt>
      <trkpt lat="43.56486" lon="6.1726">
        <ele>430</ele>
        <time>2023-05-22T10:57:51Z</time>
      </trkpt>
      <trkpt lat="43.5649" lon="6.17258">
        <ele>430.3</ele>
      </trkpt>
      <trkpt lat="43.56495" lon="6.17255">
        <ele>430.6</ele>
        <time>2023-05-22T10:58:03Z</time>
      </trkpt>
      <trkpt lat="43.56499" lon="6.1725">
        <ele>430.9</ele>
      </trkpt>
      <trkpt lat="43.56503" lon="6.17245">
        <ele>431.2</ele>
        <time>2023-05-22T10:58:14Z</time>
      </trkpt>
      <trkpt lat="43.56507" lon="6.17243">
        <ele>431.5</ele>
      </trkpt>
      <trkpt lat="43.56511" lon="6.1724">
        <ele>431.8</ele>
        <time>2023-05-22T10:58:24Z</time>
      </trkpt>
      <trkpt lat="43.56514" lon="6.17235">
        <ele>432</ele>
      </trkpt>
      <trkpt lat="43.56518" lon="6.1723">
        <ele>432.3</ele>
        <time>2023-05-22T10:58:35Z</time>
      </trkpt>
      <trkpt lat="43.56525" lon="6.17223">
        <ele>432.8</ele>
        <time>2023-05-22T10:58:45Z</time>
      </trkpt>
      <trkpt lat="43.5653" lon="6.17224">
        <ele>433.2</ele>
      </trkpt>
      <trkpt lat="43.56536" lon="6.17225">
        <ele>433.6</ele>
        <time>2023-05-22T10:58:58Z</time>
      </trkpt>
      <trkpt lat="43.56543" lon="6.17222">
        <ele>434.1</ele>
        <time>2023-05-22T10:59:09Z</time>
      </trkpt>
      <trkpt lat="43.56548" lon="6.17219">
        <ele>434.6</ele>
      </trkpt>
      <trkpt lat="43.56553" lon="6.17217">
        <ele>435</ele>
        <time>2023-05-22T10:59:20Z</time>
      </trkpt>
      <trkpt lat="43.56558" lon="6.17214">
        <ele>435.4</ele>
      </trkpt>
      <trkpt lat="43.56563" lon="6.17212">
        <ele>435.9</ele>
        <time>2023-05-22T10:59:32Z</time>
      </trkpt>
      <trkpt lat="43.5657" lon="6.17205">
        <ele>436.6</ele>
        <time>2023-05-22T10:59:42Z</time>
      </trkpt>
      <trkpt lat="43.56574" lon="6.17202">
        <ele>437.1</ele>
      </trkpt>
      <trkpt lat="43.56579" lon="6.17199">
        <ele>437.5</ele>
        <time>2023-05-22T10:59:52Z</time>
      </trkpt>
      <trkpt lat="43.56585" lon="6.17197">
        <ele>438</ele>
      </trkpt>
      <trkpt lat="43.5659" lon="6.17195">
        <ele>438.5</ele>
        <time>2023-05-22T11:00:02Z</time>
      </trkpt>
      <trkpt lat="43.56595" lon="6.17192">
        <ele>439</ele>
      </trkpt>
      <trkpt lat="43.56599" lon="6.17188">
        <ele>439.5</ele>
        <time>2023-05-22T11:00:12Z</time>
      </trkpt>
      <trkpt lat="43.56602" lon="6.17183">
        <ele>439.9</ele>
      </trkpt>
      <trkpt lat="43.56605" lon="6.17178">
        <ele>440.3</ele>
        <time>2023-05-22T11:00:24Z</time>
      </trkpt>
      <trkpt lat="43.56609" lon="6.17175">
        <ele>440.6</ele>
      </trkpt>
      <trkpt lat="43.56613" lon="6.17173">
        <ele>440.9</ele>
        <time>2023-05-22T11:00:34Z</time>
      </trkpt>
      <trkpt lat="43.56617" lon="6.17169">
        <ele>441.1</ele>
      </trkpt>
      <trkpt lat="43.56621" lon="6.17166">
        <ele>441.4</ele>
        <time>2023-05-22T11:00:44Z</time>
      </trkpt>
      <trkpt lat="43.56625" lon="6.17162">
        <ele>441.6</ele>
      </trkpt>
      <trkpt lat="43.56629" lon="6.17159">
        <ele>441.8</ele>
        <time>2023-05-22T11:00:54Z</time>
      </trkpt>
      <trkpt lat="43.56634" lon="6.17157">
        <ele>441.9</ele>
      </trkpt>
      <trkpt lat="43.56639" lon="6.17154">
        <ele>442</ele>
        <time>2023-05-22T11:01:04Z</time>
      </trkpt>
      <trkpt lat="43.56644" lon="6.17152">
        <ele>441.3</ele>
      </trkpt>
      <trkpt lat="43.56649" lon="6.1715">
        <ele>440.5</ele>
        <time>2023-05-22T11:01:15Z</time>
      </trkpt>
      <trkpt lat="43.56654" lon="6.1715">
        <ele>439.8</ele>
      </trkpt>
      <trkpt lat="43.56659" lon="6.17151">
        <ele>439.1</ele>
        <time>2023-05-22T11:01:28Z</time>
      </trkpt>
      <trkpt lat="43.56663" lon="6.17156">
        <ele>438.7</ele>
      </trkpt>
      <trkpt lat="43.56667" lon="6.17161">
        <ele>438.4</ele>
        <time>2023-05-22T11:01:43Z</time>
      </trkpt>
      <trkpt lat="43.56674" lon="6.17163">
        <ele>436.9</ele>
      </trkpt>
      <trkpt lat="43.5668" lon="6.17165">
        <ele>435.4</ele>
        <time>2023-05-22T11:01:57Z</time>
      </trkpt>
      <trkpt lat="43.56678" lon="6.17159">
        <ele>435.4</ele>
      </trkpt>
      <trkpt lat="43.56675" lon="6.17152">
        <ele>435.5</ele>
        <time>2023-05-22T11:02:07Z</time>
      </trkpt>
      <trkpt lat="43.56672" lon="6.17146">
        <ele>435.8</ele>
      </trkpt>
      <trkpt lat="43.5667" lon="6.1714">
        <ele>436.1</ele>
        <time>2023-05-22T11:02:18Z</time>
      </trkpt>
      <trkpt lat="43.56667" lon="6.17134">
        <ele>436.3</ele>
      </trkpt>
      <trkpt lat="43.56665" lon="6.17128">
        <ele>436.2</ele>
        <time>2023-05-22T11:02:29Z</time>
      </trkpt>
      <trkpt lat="43.56662" lon="6.17122">
        <ele>436.4</ele>
      </trkpt>
      <trkpt lat="43.56659" lon="6.17115">
        <ele>436.6</ele>
        <time>2023-05-22T11:02:39Z</time>
      </trkpt>
      <trkpt lat="43.56656" lon="6.1711">
        <ele>436.9</ele>
      </trkpt>
      <trkpt lat="43.56654" lon="6.17104">
        <ele>437.2</ele>
        <time>2023-05-22T11:02:49Z</time>
      </trkpt>
      <trkpt lat="43.56649" lon="6.17094">
        <ele>437.9</ele>
        <time>2023-05-22T11:02:59Z</time>
      </trkpt>
      <trkpt lat="43.56646" lon="6.17089">
        <ele>438.3</ele>
      </trkpt>
      <trkpt lat="43.56643" lon="6.17083">
        <ele>438.7</ele>
        <time>2023-05-22T11:03:09Z</time>
      </trkpt>
      <trkpt lat="43.5664" lon="6.17078">
        <ele>439</ele>
      </trkpt>
      <trkpt lat="43.56637" lon="6.17072">
        <ele>439.1</ele>
        <time>2023-05-22T11:03:19Z</time>
      </trkpt>
      <trkpt lat="43.56634" lon="6.17067">
        <ele>439.1</ele>
      </trkpt>
      <trkpt lat="43.56632" lon="6.17061">
        <ele>439.2</ele>
        <time>2023-05-22T11:03:30Z</time>
      </trkpt>
      <trkpt lat="43.56628" lon="6.17056">
        <ele>439.7</ele>
      </trkpt>
      <trkpt lat="43.56625" lon="6.17051">
        <ele>440.1</ele>
        <time>2023-05-22T11:03:41Z</time>
      </trkpt>
      <trkpt lat="43.56621" lon="6.17046">
        <ele>440.9</ele>
      </trkpt>
      <trkpt lat="43.56618" lon="6.17041">
        <ele>441.9</ele>
        <time>2023-05-22T11:03:54Z</time>
      </trkpt>
      <trkpt lat="43.56612" lon="6.17037">
        <ele>443.6</ele>
      </trkpt>
      <trkpt lat="43.56607" lon="6.17033">
        <ele>444.1</ele>
        <time>2023-05-22T11:04:05Z</time>
      </trkpt>
      <trkpt lat="43.56604" lon="6.17027">
        <ele>444.2</ele>
      </trkpt>
      <trkpt lat="43.56601" lon="6.17021">
        <ele>444.3</ele>
        <time>2023-05-22T11:04:15Z</time>
      </trkpt>
      <trkpt lat="43.56598" lon="6.17015">
        <ele>444.5</ele>
      </trkpt>
      <trkpt lat="43.56594" lon="6.17009">
        <ele>444.7</ele>
        <time>2023-05-22T11:04:25Z</time>
      </trkpt>
      <trkpt lat="43.5659" lon="6.17004">
        <ele>445.2</ele>
      </trkpt>
      <trkpt lat="43.56586" lon="6.16999">
        <ele>445.8</ele>
        <time>2023-05-22T11:04:35Z</time>
      </trkpt>
      <trkpt lat="43.56581" lon="6.16995">
        <ele>446</ele>
      </trkpt>
      <trkpt lat="43.56577" lon="6.1699">
        <ele>445.9</ele>
        <time>2023-05-22T11:04:44Z</time>
      </trkpt>
      <trkpt lat="43.56573" lon="6.16986">
        <ele>446</ele>
      </trkpt>
      <trkpt lat="43.56569" lon="6.16981">
        <ele>446.2</ele>
        <time>2023-05-22T11:04:54Z</time>
      </trkpt>
      <trkpt lat="43.56566" lon="6.16976">
        <ele>446.5</ele>
      </trkpt>
      <trkpt lat="43.56562" lon="6.16971">
        <ele>446.8</ele>
        <time>2023-05-22T11:05:03Z</time>
      </trkpt>
      <trkpt lat="43.56558" lon="6.16967">
        <ele>447.1</ele>
      </trkpt>
      <trkpt lat="43.56553" lon="6.16963">
        <ele>447.2</ele>
        <time>2023-05-22T11:05:13Z</time>
      </trkpt>
      <trkpt lat="43.5655" lon="6.16958">
        <ele>447.3</ele>
      </trkpt>
      <trkpt lat="43.56547" lon="6.16953">
        <ele>447.4</ele>
        <time>2023-05-22T11:05:22Z</time>
      </trkpt>
      <trkpt lat="43.56543" lon="6.16947">
        <ele>447.5</ele>
      </trkpt>
      <trkpt lat="43.56539" lon="6.16941">
        <ele>447.5</ele>
        <time>2023-05-22T11:05:32Z</time>
      </trkpt>
      <trkpt lat="43.56537" lon="6.16936">
        <ele>447.5</ele>
      </trkpt>
      <trkpt lat="43.56534" lon="6.16931">
        <ele>447.6</ele>
        <time>2023-05-22T11:05:41Z</time>
      </trkpt>
      <trkpt lat="43.5653" lon="6.16925">
        <ele>447.7</ele>
      </trkpt>
      <trkpt lat="43.56526" lon="6.16918">
        <ele>447.8</ele>
        <time>2023-05-22T11:05:50Z</time>
      </trkpt>
      <trkpt lat="43.56523" lon="6.16913">
        <ele>447.7</ele>
      </trkpt>
      <trkpt lat="43.5652" lon="6.16908">
        <ele>447.5</ele>
        <time>2023-05-22T11:05:58Z</time>
      </trkpt>
      <trkpt lat="43.56516" lon="6.16903">
        <ele>447.4</ele>
      </trkpt>
      <trkpt lat="43.56513" lon="6.16898">
        <ele>447.3</ele>
        <time>2023-05-22T11:06:07Z</time>
      </trkpt>
      <trkpt lat="43.5651" lon="6.16893">
        <ele>447.3</ele>
      </trkpt>
      <trkpt lat="43.56508" lon="6.16888">
        <ele>447.3</ele>
        <time>2023-05-22T11:06:16Z</time>
      </trkpt>
      <trkpt lat="43.56505" lon="6.16882">
        <ele>447.1</ele>
      </trkpt>
      <trkpt lat="43.56503" lon="6.16877">
        <ele>447.1</ele>
        <time>2023-05-22T11:06:25Z</time>
      </trkpt>
      <trkpt lat="43.56499" lon="6.16871">
        <ele>447</ele>
      </trkpt>
      <trkpt lat="43.56496" lon="6.16866">
        <ele>446.8</ele>
        <time>2023-05-22T11:06:35Z</time>
      </trkpt>
      <trkpt lat="43.56492" lon="6.1686">
        <ele>446.7</ele>
      </trkpt>
      <trkpt lat="43.56489" lon="6.16854">
        <ele>446.4</ele>
        <time>2023-05-22T11:06:44Z</time>
      </trkpt>
      <trkpt lat="43.56486" lon="6.16846">
        <ele>446.2</ele>
      </trkpt>
      <trkpt lat="43.56484" lon="6.16838">
        <ele>446.1</ele>
        <time>2023-05-22T11:06:53Z</time>
      </trkpt>
      <trkpt lat="43.56481" lon="6.16832">
        <ele>446</ele>
      </trkpt>
      <trkpt lat="43.56479" lon="6.16825">
        <ele>445.9</ele>
        <time>2023-05-22T11:07:02Z</time>
      </trkpt>
      <trkpt lat="43.56476" lon="6.16819">
        <ele>445.8</ele>
      </trkpt>
      <trkpt lat="43.56474" lon="6.16813">
        <ele>445.9</ele>
        <time>2023-05-22T11:07:12Z</time>
      </trkpt>
      <trkpt lat="43.56471" lon="6.16807">
        <ele>446</ele>
      </trkpt>
      <trkpt lat="43.56468" lon="6.16801">
        <ele>445.6</ele>
        <time>2023-05-22T11:07:22Z</time>
      </trkpt>
      <trkpt lat="43.56466" lon="6.16795">
        <ele>445.2</ele>
      </trkpt>
      <trkpt lat="43.56464" lon="6.16789">
        <ele>444.9</ele>
        <time>2023-05-22T11:07:31Z</time>
      </trkpt>
      <trkpt lat="43.5646" lon="6.16784">
        <ele>444.7</ele>
      </trkpt>
      <trkpt lat="43.56456" lon="6.16778">
        <ele>444.6</ele>
        <time>2023-05-22T11:07:41Z</time>
      </trkpt>
      <trkpt lat="43.56452" lon="6.16771">
        <ele>444.5</ele>
      </trkpt>
      <trkpt lat="43.56448" lon="6.16763">
        <ele>444.4</ele>
        <time>2023-05-22T11:07:51Z</time>
      </trkpt>
      <trkpt lat="43.56444" lon="6.16757">
        <ele>444.3</ele>
      </trkpt>
      <trkpt lat="43.56441" lon="6.16751">
        <ele>443.9</ele>
        <time>2023-05-22T11:08:00Z</time>
      </trkpt>
      <trkpt lat="43.56438" lon="6.16746">
        <ele>443.5</ele>
      </trkpt>
      <trkpt lat="43.56435" lon="6.16741">
        <ele>443.1</ele>
        <time>2023-05-22T11:08:10Z</time>
      </trkpt>
      <trkpt lat="43.56431" lon="6.16736">
        <ele>442.7</ele>
      </trkpt>
      <trkpt lat="43.56427" lon="6.16731">
        <ele>442.4</ele>
        <time>2023-05-22T11:08:20Z</time>
      </trkpt>
      <trkpt lat="43.56424" lon="6.16725">
        <ele>442.1</ele>
      </trkpt>
      <trkpt lat="43.56422" lon="6.16719">
        <ele>441.7</ele>
        <time>2023-05-22T11:08:29Z</time>
      </trkpt>
      <trkpt lat="43.56419" lon="6.16713">
        <ele>441.3</ele>
      </trkpt>
      <trkpt lat="43.56416" lon="6.16708">
        <ele>440.9</ele>
        <time>2023-05-22T11:08:38Z</time>
      </trkpt>
      <trkpt lat="43.56413" lon="6.16702">
        <ele>440.5</ele>
      </trkpt>
      <trkpt lat="43.56411" lon="6.16697">
        <ele>440.1</ele>
        <time>2023-05-22T11:08:46Z</time>
      </trkpt>
      <trkpt lat="43.56406" lon="6.16692">
        <ele>439.8</ele>
      </trkpt>
      <trkpt lat="43.56402" lon="6.16687">
        <ele>439.6</ele>
        <time>2023-05-22T11:08:55Z</time>
      </trkpt>
      <trkpt lat="43.56399" lon="6.1668">
        <ele>439.3</ele>
      </trkpt>
      <trkpt lat="43.56397" lon="6.16674">
        <ele>439</ele>
        <time>2023-05-22T11:09:04Z</time>
      </trkpt>
      <trkpt lat="43.56393" lon="6.16669">
        <ele>438.9</ele>
      </trkpt>
      <trkpt lat="43.56388" lon="6.16663">
        <ele>438.7</ele>
        <time>2023-05-22T11:09:13Z</time>
      </trkpt>
      <trkpt lat="43.56385" lon="6.16658">
        <ele>438.2</ele>
      </trkpt>
      <trkpt lat="43.56382" lon="6.16653">
        <ele>437.7</ele>
        <time>2023-05-22T11:09:21Z</time>
      </trkpt>
      <trkpt lat="43.56378" lon="6.16647">
        <ele>437.4</ele>
      </trkpt>
      <trkpt lat="43.56375" lon="6.16642">
        <ele>437.1</ele>
        <time>2023-05-22T11:09:29Z</time>
      </trkpt>
      <trkpt lat="43.56372" lon="6.16636">
        <ele>436.9</ele>
      </trkpt>
      <trkpt lat="43.5637" lon="6.16631">
        <ele>436.8</ele>
        <time>2023-05-22T11:09:37Z</time>
      </trkpt>
      <trkpt lat="43.56363" lon="6.16623">
        <ele>437.4</ele>
        <time>2023-05-22T11:09:45Z</time>
      </trkpt>
      <trkpt lat="43.56359" lon="6.16618">
        <ele>437.8</ele>
      </trkpt>
      <trkpt lat="43.56356" lon="6.16612">
        <ele>438.1</ele>
        <time>2023-05-22T11:09:53Z</time>
      </trkpt>
      <trkpt lat="43.56353" lon="6.16606">
        <ele>438.1</ele>
      </trkpt>
      <trkpt lat="43.5635" lon="6.16599">
        <ele>438.1</ele>
        <time>2023-05-22T11:10:01Z</time>
      </trkpt>
      <trkpt lat="43.56347" lon="6.16594">
        <ele>438.2</ele>
      </trkpt>
      <trkpt lat="43.56344" lon="6.1659">
        <ele>438.5</ele>
        <time>2023-05-22T11:10:09Z</time>
      </trkpt>
      <trkpt lat="43.5634" lon="6.16585">
        <ele>439</ele>
      </trkpt>
      <trkpt lat="43.56337" lon="6.16581">
        <ele>439.4</ele>
        <time>2023-05-22T11:10:17Z</time>
      </trkpt>
      <trkpt lat="43.56333" lon="6.16575">
        <ele>439.7</ele>
      </trkpt>
      <trkpt lat="43.5633" lon="6.1657">
        <ele>439.7</ele>
        <time>2023-05-22T11:10:26Z</time>
      </trkpt>
      <trkpt lat="43.56328" lon="6.16564">
        <ele>439.8</ele>
      </trkpt>
      <trkpt lat="43.56325" lon="6.16559">
        <ele>439.9</ele>
        <time>2023-05-22T11:10:35Z</time>
      </trkpt>
      <trkpt lat="43.56323" lon="6.16552">
        <ele>440.1</ele>
      </trkpt>
      <trkpt lat="43.5632" lon="6.16545">
        <ele>440.2</ele>
        <time>2023-05-22T11:10:44Z</time>
      </trkpt>
      <trkpt lat="43.56318" lon="6.16539">
        <ele>440.4</ele>
      </trkpt>
      <trkpt lat="43.56316" lon="6.16532">
        <ele>440.6</ele>
        <time>2023-05-22T11:10:52Z</time>
      </trkpt>
      <trkpt lat="43.56315" lon="6.16524">
        <ele>440.7</ele>
      </trkpt>
      <trkpt lat="43.56314" lon="6.16516">
        <ele>441.1</ele>
        <time>2023-05-22T11:11:01Z</time>
      </trkpt>
      <trkpt lat="43.56312" lon="6.1651">
        <ele>441.6</ele>
      </trkpt>
      <trkpt lat="43.5631" lon="6.16505">
        <ele>442.1</ele>
        <time>2023-05-22T11:11:09Z</time>
      </trkpt>
      <trkpt lat="43.5631" lon="6.16498">
        <ele>442.2</ele>
      </trkpt>
      <trkpt lat="43.56309" lon="6.1649">
        <ele>442.1</ele>
        <time>2023-05-22T11:11:17Z</time>
      </trkpt>
      <trkpt lat="43.5631" lon="6.16483">
        <ele>441.8</ele>
      </trkpt>
      <trkpt lat="43.56311" lon="6.16477">
        <ele>441.5</ele>
        <time>2023-05-22T11:11:25Z</time>
      </trkpt>
      <trkpt lat="43.56312" lon="6.1647">
        <ele>441.3</ele>
      </trkpt>
      <trkpt lat="43.56313" lon="6.16464">
        <ele>441.3</ele>
        <time>2023-05-22T11:11:32Z</time>
      </trkpt>
      <trkpt lat="43.56314" lon="6.16458">
        <ele>441.3</ele>
      </trkpt>
      <trkpt lat="43.56314" lon="6.16451">
        <ele>441.3</ele>
        <time>2023-05-22T11:11:39Z</time>
      </trkpt>
      <trkpt lat="43.56314" lon="6.16444">
        <ele>441.4</ele>
      </trkpt>
      <trkpt lat="43.56315" lon="6.16437">
        <ele>441.7</ele>
        <time>2023-05-22T11:11:47Z</time>
      </trkpt>
      <trkpt lat="43.56317" lon="6.16425">
        <ele>442.2</ele>
        <time>2023-05-22T11:11:55Z</time>
      </trkpt>
      <trkpt lat="43.56319" lon="6.16418">
        <ele>442.4</ele>
      </trkpt>
      <trkpt lat="43.56322" lon="6.16411">
        <ele>442.7</ele>
        <time>2023-05-22T11:12:04Z</time>
      </trkpt>
      <trkpt lat="43.56324" lon="6.16405">
        <ele>442.9</ele>
      </trkpt>
      <trkpt lat="43.56327" lon="6.16399">
        <ele>443.2</ele>
        <time>2023-05-22T11:12:12Z</time>
      </trkpt>
      <trkpt lat="43.56327" lon="6.16392">
        <ele>443.6</ele>
      </trkpt>
      <trkpt lat="43.56328" lon="6.16386">
        <ele>443.9</ele>
        <time>2023-05-22T11:12:20Z</time>
      </trkpt>
      <trkpt lat="43.56329" lon="6.16379">
        <ele>444.1</ele>
      </trkpt>
      <trkpt lat="43.5633" lon="6.16373">
        <ele>444.4</ele>
        <time>2023-05-22T11:12:27Z</time>
      </trkpt>
      <trkpt lat="43.56331" lon="6.16366">
        <ele>444.7</ele>
      </trkpt>
      <trkpt lat="43.56332" lon="6.16359">
        <ele>445</ele>
        <time>2023-05-22T11:12:35Z</time>
      </trkpt>
      <trkpt lat="43.56333" lon="6.16352">
        <ele>445.3</ele>
      </trkpt>
      <trkpt lat="43.56334" lon="6.16345">
        <ele>445.5</ele>
        <time>2023-05-22T11:12:43Z</time>
      </trkpt>
      <trkpt lat="43.56335" lon="6.16333">
        <ele>445.8</ele>
        <time>2023-05-22T11:12:51Z</time>
      </trkpt>
      <trkpt lat="43.56335" lon="6.16326">
        <ele>446</ele>
      </trkpt>
      <trkpt lat="43.56336" lon="6.1632">
        <ele>446.1</ele>
        <time>2023-05-22T11:12:59Z</time>
      </trkpt>
      <trkpt lat="43.56335" lon="6.16313">
        <ele>446.4</ele>
      </trkpt>
      <trkpt lat="43.56335" lon="6.16306">
        <ele>446.7</ele>
        <time>2023-05-22T11:13:07Z</time>
      </trkpt>
      <trkpt lat="43.56334" lon="6.16299">
        <ele>446.8</ele>
      </trkpt>
      <trkpt lat="43.56334" lon="6.16293">
        <ele>447</ele>
        <time>2023-05-22T11:13:15Z</time>
      </trkpt>
      <trkpt lat="43.56333" lon="6.16286">
        <ele>446.9</ele>
      </trkpt>
      <trkpt lat="43.56332" lon="6.16278">
        <ele>446.8</ele>
        <time>2023-05-22T11:13:23Z</time>
      </trkpt>
      <trkpt lat="43.56332" lon="6.16272">
        <ele>446.5</ele>
      </trkpt>
      <trkpt lat="43.56332" lon="6.16266">
        <ele>446.1</ele>
        <time>2023-05-22T11:13:30Z</time>
      </trkpt>
      <trkpt lat="43.56333" lon="6.1626">
        <ele>445.7</ele>
      </trkpt>
      <trkpt lat="43.56333" lon="6.16253">
        <ele>445.2</ele>
        <time>2023-05-22T11:13:38Z</time>
      </trkpt>
      <trkpt lat="43.56334" lon="6.16247">
        <ele>444.9</ele>
      </trkpt>
      <trkpt lat="43.56336" lon="6.16241">
        <ele>444.9</ele>
        <time>2023-05-22T11:13:49Z</time>
      </trkpt>
      <trkpt lat="43.56336" lon="6.16235">
        <ele>445.1</ele>
      </trkpt>
      <trkpt lat="43.56337" lon="6.16228">
        <ele>445.2</ele>
        <time>2023-05-22T11:13:57Z</time>
      </trkpt>
      <trkpt lat="43.56339" lon="6.16222">
        <ele>445.2</ele>
      </trkpt>
      <trkpt lat="43.56341" lon="6.16216">
        <ele>445.4</ele>
        <time>2023-05-22T11:14:05Z</time>
      </trkpt>
      <trkpt lat="43.5634" lon="6.16209">
        <ele>446</ele>
      </trkpt>
      <trkpt lat="43.5634" lon="6.16202">
        <ele>446.5</ele>
        <time>2023-05-22T11:14:13Z</time>
      </trkpt>
      <trkpt lat="43.5634" lon="6.16195">
        <ele>447</ele>
      </trkpt>
      <trkpt lat="43.5634" lon="6.16189">
        <ele>447.5</ele>
        <time>2023-05-22T11:14:22Z</time>
      </trkpt>
      <trkpt lat="43.5634" lon="6.16182">
        <ele>448.2</ele>
      </trkpt>
      <trkpt lat="43.56339" lon="6.16175">
        <ele>448.8</ele>
        <time>2023-05-22T11:14:31Z</time>
      </trkpt>
      <trkpt lat="43.5634" lon="6.16168">
        <ele>449.4</ele>
      </trkpt>
      <trkpt lat="43.5634" lon="6.1616">
        <ele>449.8</ele>
        <time>2023-05-22T11:14:40Z</time>
      </trkpt>
      <trkpt lat="43.56341" lon="6.16154">
        <ele>450.2</ele>
      </trkpt>
      <trkpt lat="43.56341" lon="6.16147">
        <ele>450.5</ele>
        <time>2023-05-22T11:14:48Z</time>
      </trkpt>
      <trkpt lat="43.56342" lon="6.16135">
        <ele>451.2</ele>
        <time>2023-05-22T11:14:56Z</time>
      </trkpt>
      <trkpt lat="43.56341" lon="6.16128">
        <ele>451.5</ele>
      </trkpt>
      <trkpt lat="43.5634" lon="6.16122">
        <ele>451.8</ele>
        <time>2023-05-22T11:15:04Z</time>
      </trkpt>
      <trkpt lat="43.56339" lon="6.16115">
        <ele>452</ele>
      </trkpt>
      <trkpt lat="43.56337" lon="6.16109">
        <ele>452.1</ele>
        <time>2023-05-22T11:15:12Z</time>
      </trkpt>
      <trkpt lat="43.56336" lon="6.16102">
        <ele>452.1</ele>
      </trkpt>
      <trkpt lat="43.56335" lon="6.16095">
        <ele>452.1</ele>
        <time>2023-05-22T11:15:20Z</time>
      </trkpt>
      <trkpt lat="43.56334" lon="6.16089">
        <ele>452.1</ele>
      </trkpt>
      <trkpt lat="43.56334" lon="6.16082">
        <ele>452</ele>
        <time>2023-05-22T11:15:29Z</time>
      </trkpt>
      <trkpt lat="43.56333" lon="6.16075">
        <ele>452</ele>
      </trkpt>
      <trkpt lat="43.56333" lon="6.16068">
        <ele>451.9</ele>
        <time>2023-05-22T11:15:37Z</time>
      </trkpt>
      <trkpt lat="43.56333" lon="6.16061">
        <ele>451.9</ele>
      </trkpt>
      <trkpt lat="43.56333" lon="6.16054">
        <ele>451.9</ele>
        <time>2023-05-22T11:15:45Z</time>
      </trkpt>
      <trkpt lat="43.56333" lon="6.16048">
        <ele>452</ele>
      </trkpt>
      <trkpt lat="43.56333" lon="6.16041">
        <ele>452</ele>
        <time>2023-05-22T11:15:53Z</time>
      </trkpt>
      <trkpt lat="43.56334" lon="6.16034">
        <ele>452</ele>
      </trkpt>
      <trkpt lat="43.56334" lon="6.16028">
        <ele>452.1</ele>
        <time>2023-05-22T11:16:01Z</time>
      </trkpt>
      <trkpt lat="43.56335" lon="6.16021">
        <ele>452.2</ele>
      </trkpt>
      <trkpt lat="43.56336" lon="6.16015">
        <ele>452.3</ele>
        <time>2023-05-22T11:16:09Z</time>
      </trkpt>
      <trkpt lat="43.56337" lon="6.16008">
        <ele>452.4</ele>
      </trkpt>
      <trkpt lat="43.56338" lon="6.16001">
        <ele>452.5</ele>
        <time>2023-05-22T11:16:17Z</time>
      </trkpt>
      <trkpt lat="43.5634" lon="6.15995">
        <ele>452.8</ele>
      </trkpt>
      <trkpt lat="43.56341" lon="6.15988">
        <ele>453</ele>
        <time>2023-05-22T11:16:25Z</time>
      </trkpt>
      <trkpt lat="43.56342" lon="6.15982">
        <ele>453.2</ele>
      </trkpt>
      <trkpt lat="43.56343" lon="6.15975">
        <ele>453.3</ele>
        <time>2023-05-22T11:16:33Z</time>
      </trkpt>
      <trkpt lat="43.56345" lon="6.15968">
        <ele>453.2</ele>
      </trkpt>
      <trkpt lat="43.56346" lon="6.1596">
        <ele>453</ele>
        <time>2023-05-22T11:16:41Z</time>
      </trkpt>
      <trkpt lat="43.56345" lon="6.15953">
        <ele>452.7</ele>
      </trkpt>
      <trkpt lat="43.56345" lon="6.15947">
        <ele>452.5</ele>
        <time>2023-05-22T11:16:49Z</time>
      </trkpt>
      <trkpt lat="43.56344" lon="6.1594">
        <ele>452.2</ele>
      </trkpt>
      <trkpt lat="43.56344" lon="6.15934">
        <ele>451.9</ele>
        <time>2023-05-22T11:16:56Z</time>
      </trkpt>
      <trkpt lat="43.56344" lon="6.15927">
        <ele>451.7</ele>
      </trkpt>
      <trkpt lat="43.56343" lon="6.15921">
        <ele>451.5</ele>
        <time>2023-05-22T11:17:03Z</time>
      </trkpt>
      <trkpt lat="43.56341" lon="6.15909">
        <ele>451</ele>
        <time>2023-05-22T11:17:10Z</time>
      </trkpt>
      <trkpt lat="43.56339" lon="6.15902">
        <ele>450.8</ele>
      </trkpt>
      <trkpt lat="43.56337" lon="6.15896">
        <ele>450.7</ele>
        <time>2023-05-22T11:17:18Z</time>
      </trkpt>
      <trkpt lat="43.56335" lon="6.15884">
        <ele>450.4</ele>
        <time>2023-05-22T11:17:26Z</time>
      </trkpt>
      <trkpt lat="43.56333" lon="6.15878">
        <ele>450.2</ele>
      </trkpt>
      <trkpt lat="43.56332" lon="6.15871">
        <ele>449.7</ele>
        <time>2023-05-22T11:17:34Z</time>
      </trkpt>
      <trkpt lat="43.56331" lon="6.15864">
        <ele>449.3</ele>
      </trkpt>
      <trkpt lat="43.5633" lon="6.15858">
        <ele>449</ele>
        <time>2023-05-22T11:17:42Z</time>
      </trkpt>
      <trkpt lat="43.56328" lon="6.15851">
        <ele>448.8</ele>
      </trkpt>
      <trkpt lat="43.56327" lon="6.15844">
        <ele>448.6</ele>
        <time>2023-05-22T11:17:50Z</time>
      </trkpt>
      <trkpt lat="43.56325" lon="6.15837">
        <ele>448.4</ele>
      </trkpt>
      <trkpt lat="43.56324" lon="6.15831">
        <ele>448.2</ele>
        <time>2023-05-22T11:17:58Z</time>
      </trkpt>
      <trkpt lat="43.56323" lon="6.15825">
        <ele>448.1</ele>
      </trkpt>
      <trkpt lat="43.56322" lon="6.15818">
        <ele>447.9</ele>
        <time>2023-05-22T11:18:05Z</time>
      </trkpt>
      <trkpt lat="43.5632" lon="6.15813">
        <ele>447.7</ele>
      </trkpt>
      <trkpt lat="43.56318" lon="6.15807">
        <ele>447.6</ele>
        <time>2023-05-22T11:18:13Z</time>
      </trkpt>
      <trkpt lat="43.56316" lon="6.15801">
        <ele>447.3</ele>
      </trkpt>
      <trkpt lat="43.56314" lon="6.15795">
        <ele>447</ele>
        <time>2023-05-22T11:18:21Z</time>
      </trkpt>
      <trkpt lat="43.56313" lon="6.15788">
        <ele>446.8</ele>
      </trkpt>
      <trkpt lat="43.56311" lon="6.15781">
        <ele>446.6</ele>
        <time>2023-05-22T11:18:29Z</time>
      </trkpt>
      <trkpt lat="43.5631" lon="6.15775">
        <ele>446.5</ele>
      </trkpt>
      <trkpt lat="43.56309" lon="6.15768">
        <ele>446.4</ele>
        <time>2023-05-22T11:18:37Z</time>
      </trkpt>
      <trkpt lat="43.56306" lon="6.15757">
        <ele>446.2</ele>
        <time>2023-05-22T11:18:45Z</time>
      </trkpt>
      <trkpt lat="43.56305" lon="6.1575">
        <ele>445.9</ele>
      </trkpt>
      <trkpt lat="43.56303" lon="6.15743">
        <ele>445.3</ele>
        <time>2023-05-22T11:18:53Z</time>
      </trkpt>
      <trkpt lat="43.56301" lon="6.15737">
        <ele>444.7</ele>
      </trkpt>
      <trkpt lat="43.56299" lon="6.15731">
        <ele>444.2</ele>
        <time>2023-05-22T11:19:01Z</time>
      </trkpt>
      <trkpt lat="43.56296" lon="6.15726">
        <ele>443.8</ele>
      </trkpt>
      <trkpt lat="43.56294" lon="6.15721">
        <ele>443.4</ele>
        <time>2023-05-22T11:19:08Z</time>
      </trkpt>
      <trkpt lat="43.56291" lon="6.15716">
        <ele>442.9</ele>
      </trkpt>
      <trkpt lat="43.56289" lon="6.15711">
        <ele>442.5</ele>
        <time>2023-05-22T11:19:23Z</time>
      </trkpt>
      <trkpt lat="43.56285" lon="6.15706">
        <ele>442.2</ele>
      </trkpt>
      <trkpt lat="43.56282" lon="6.15701">
        <ele>442</ele>
        <time>2023-05-22T11:19:32Z</time>
      </trkpt>
      <trkpt lat="43.56276" lon="6.15692">
        <ele>442.1</ele>
        <time>2023-05-22T11:19:39Z</time>
      </trkpt>
      <trkpt lat="43.56268" lon="6.15689">
        <ele>442.2</ele>
        <time>2023-05-22T11:19:47Z</time>
      </trkpt>
      <trkpt lat="43.56263" lon="6.15687">
        <ele>442.3</ele>
      </trkpt>
      <trkpt lat="43.56258" lon="6.15684">
        <ele>442.4</ele>
        <time>2023-05-22T11:19:55Z</time>
      </trkpt>
      <trkpt lat="43.56254" lon="6.15681">
        <ele>442.5</ele>
      </trkpt>
      <trkpt lat="43.5625" lon="6.15678">
        <ele>442.5</ele>
        <time>2023-05-22T11:20:03Z</time>
      </trkpt>
      <trkpt lat="43.56245" lon="6.15676">
        <ele>442.3</ele>
      </trkpt>
      <trkpt lat="43.5624" lon="6.15673">
        <ele>442</ele>
        <time>2023-05-22T11:20:11Z</time>
      </trkpt>
      <trkpt lat="43.56236" lon="6.15671">
        <ele>441.7</ele>
      </trkpt>
      <trkpt lat="43.56231" lon="6.15669">
        <ele>441.5</ele>
        <time>2023-05-22T11:20:19Z</time>
      </trkpt>
      <trkpt lat="43.56222" lon="6.15667">
        <ele>441</ele>
        <time>2023-05-22T11:20:27Z</time>
      </trkpt>
      <trkpt lat="43.56216" lon="6.15667">
        <ele>441</ele>
      </trkpt>
      <trkpt lat="43.5621" lon="6.15667">
        <ele>441</ele>
        <time>2023-05-22T11:20:36Z</time>
      </trkpt>
      <trkpt lat="43.56206" lon="6.15663">
        <ele>441</ele>
      </trkpt>
      <trkpt lat="43.56202" lon="6.15658">
        <ele>441</ele>
        <time>2023-05-22T11:20:44Z</time>
      </trkpt>
      <trkpt lat="43.56198" lon="6.15654">
        <ele>441</ele>
      </trkpt>
      <trkpt lat="43.56194" lon="6.1565">
        <ele>441</ele>
        <time>2023-05-22T11:20:51Z</time>
      </trkpt>
      <trkpt lat="43.56198" lon="6.1564">
        <ele>441</ele>
        <time>2023-05-22T11:20:59Z</time>
      </trkpt>
      <trkpt lat="43.56205" lon="6.15632">
        <ele>440.6</ele>
        <time>2023-05-22T11:21:07Z</time>
      </trkpt>
      <trkpt lat="43.56209" lon="6.15627">
        <ele>440.1</ele>
      </trkpt>
      <trkpt lat="43.56213" lon="6.15622">
        <ele>439.4</ele>
        <time>2023-05-22T11:21:17Z</time>
      </trkpt>
      <trkpt lat="43.56217" lon="6.15618">
        <ele>438.6</ele>
      </trkpt>
      <trkpt lat="43.5622" lon="6.15614">
        <ele>437.6</ele>
        <time>2023-05-22T11:21:25Z</time>
      </trkpt>
      <trkpt lat="43.56224" lon="6.15608">
        <ele>436.7</ele>
      </trkpt>
      <trkpt lat="43.56227" lon="6.15603">
        <ele>435.9</ele>
        <time>2023-05-22T11:21:34Z</time>
      </trkpt>
      <trkpt lat="43.56231" lon="6.15597">
        <ele>434.9</ele>
      </trkpt>
      <trkpt lat="43.56234" lon="6.15591">
        <ele>433.7</ele>
        <time>2023-05-22T11:21:44Z</time>
      </trkpt>
      <trkpt lat="43.56239" lon="6.15587">
        <ele>432.5</ele>
      </trkpt>
      <trkpt lat="43.56243" lon="6.15583">
        <ele>431.2</ele>
        <time>2023-05-22T11:21:53Z</time>
      </trkpt>
      <trkpt lat="43.56247" lon="6.15579">
        <ele>430.4</ele>
      </trkpt>
      <trkpt lat="43.56252" lon="6.15576">
        <ele>429.4</ele>
        <time>2023-05-22T11:22:02Z</time>
      </trkpt>
      <trkpt lat="43.56256" lon="6.15573">
        <ele>428.3</ele>
      </trkpt>
      <trkpt lat="43.56261" lon="6.15571">
        <ele>427</ele>
        <time>2023-05-22T11:22:13Z</time>
      </trkpt>
      <trkpt lat="43.56266" lon="6.15569">
        <ele>425.5</ele>
      </trkpt>
      <trkpt lat="43.5627" lon="6.15567">
        <ele>423.9</ele>
        <time>2023-05-22T11:22:22Z</time>
      </trkpt>
      <trkpt lat="43.56274" lon="6.15564">
        <ele>422.1</ele>
      </trkpt>
      <trkpt lat="43.56278" lon="6.1556">
        <ele>420.2</ele>
        <time>2023-05-22T11:22:31Z</time>
      </trkpt>
      <trkpt lat="43.56282" lon="6.1555">
        <ele>417.8</ele>
        <time>2023-05-22T11:22:41Z</time>
      </trkpt>
      <trkpt lat="43.56285" lon="6.15545">
        <ele>416.9</ele>
      </trkpt>
      <trkpt lat="43.56288" lon="6.1554">
        <ele>415.9</ele>
        <time>2023-05-22T11:22:49Z</time>
      </trkpt>
      <trkpt lat="43.56291" lon="6.15529">
        <ele>414.2</ele>
        <time>2023-05-22T11:22:58Z</time>
      </trkpt>
      <trkpt lat="43.5629" lon="6.15518">
        <ele>413.6</ele>
        <time>2023-05-22T11:23:07Z</time>
      </trkpt>
      <trkpt lat="43.5629" lon="6.15511">
        <ele>413.1</ele>
      </trkpt>
      <trkpt lat="43.5629" lon="6.15503">
        <ele>412.5</ele>
        <time>2023-05-22T11:23:15Z</time>
      </trkpt>
      <trkpt lat="43.56289" lon="6.15493">
        <ele>412.4</ele>
        <time>2023-05-22T11:23:24Z</time>
      </trkpt>
      <trkpt lat="43.56289" lon="6.1548">
        <ele>412.1</ele>
        <time>2023-05-22T11:23:32Z</time>
      </trkpt>
      <trkpt lat="43.56289" lon="6.15473">
        <ele>412.1</ele>
      </trkpt>
      <trkpt lat="43.56288" lon="6.15465">
        <ele>411.7</ele>
        <time>2023-05-22T11:23:41Z</time>
      </trkpt>
      <trkpt lat="43.56288" lon="6.15455">
        <ele>411.2</ele>
        <time>2023-05-22T11:23:55Z</time>
      </trkpt>
      <trkpt lat="43.56286" lon="6.15449">
        <ele>411.1</ele>
      </trkpt>
      <trkpt lat="43.56284" lon="6.15443">
        <ele>411.2</ele>
        <time>2023-05-22T11:24:08Z</time>
      </trkpt>
      <trkpt lat="43.56281" lon="6.15438">
        <ele>411.8</ele>
      </trkpt>
      <trkpt lat="43.56277" lon="6.15433">
        <ele>412.6</ele>
        <time>2023-05-22T11:24:19Z</time>
      </trkpt>
      <trkpt lat="43.56276" lon="6.15426">
        <ele>413.4</ele>
      </trkpt>
      <trkpt lat="43.56274" lon="6.15418">
        <ele>414.2</ele>
        <time>2023-05-22T11:24:29Z</time>
      </trkpt>
      <trkpt lat="43.56272" lon="6.15411">
        <ele>415</ele>
      </trkpt>
      <trkpt lat="43.56269" lon="6.15405">
        <ele>415.6</ele>
        <time>2023-05-22T11:24:39Z</time>
      </trkpt>
      <trkpt lat="43.5627" lon="6.15398">
        <ele>415.4</ele>
      </trkpt>
      <trkpt lat="43.56271" lon="6.15391">
        <ele>415.1</ele>
        <time>2023-05-22T11:24:52Z</time>
      </trkpt>
      <trkpt lat="43.56272" lon="6.15385">
        <ele>414.6</ele>
      </trkpt>
      <trkpt lat="43.56274" lon="6.15379">
        <ele>414.2</ele>
        <time>2023-05-22T11:25:03Z</time>
      </trkpt>
      <trkpt lat="43.56273" lon="6.15372">
        <ele>414.2</ele>
      </trkpt>
      <trkpt lat="43.56273" lon="6.15364">
        <ele>414.3</ele>
        <time>2023-05-22T11:25:14Z</time>
      </trkpt>
      <trkpt lat="43.56269" lon="6.15354">
        <ele>414.9</ele>
        <time>2023-05-22T11:25:25Z</time>
      </trkpt>
      <trkpt lat="43.5627" lon="6.15346">
        <ele>414.1</ele>
      </trkpt>
      <trkpt lat="43.56271" lon="6.15337">
        <ele>413.2</ele>
        <time>2023-05-22T11:25:37Z</time>
      </trkpt>
      <trkpt lat="43.56272" lon="6.15329">
        <ele>412</ele>
      </trkpt>
      <trkpt lat="43.56274" lon="6.15322">
        <ele>410.4</ele>
        <time>2023-05-22T11:25:47Z</time>
      </trkpt>
      <trkpt lat="43.56276" lon="6.15314">
        <ele>408.9</ele>
      </trkpt>
      <trkpt lat="43.56278" lon="6.15307">
        <ele>407.3</ele>
        <time>2023-05-22T11:25:57Z</time>
      </trkpt>
      <trkpt lat="43.56281" lon="6.15302">
        <ele>405.9</ele>
      </trkpt>
      <trkpt lat="43.56284" lon="6.15297">
        <ele>404.7</ele>
        <time>2023-05-22T11:26:08Z</time>
      </trkpt>
      <trkpt lat="43.56287" lon="6.15291">
        <ele>403.5</ele>
      </trkpt>
      <trkpt lat="43.56289" lon="6.15286">
        <ele>402.4</ele>
        <time>2023-05-22T11:26:17Z</time>
      </trkpt>
      <trkpt lat="43.56292" lon="6.1528">
        <ele>401.2</ele>
      </trkpt>
      <trkpt lat="43.56295" lon="6.15275">
        <ele>400.1</ele>
        <time>2023-05-22T11:26:26Z</time>
      </trkpt>
      <trkpt lat="43.56299" lon="6.15271">
        <ele>399</ele>
      </trkpt>
      <trkpt lat="43.56304" lon="6.15268">
        <ele>397.8</ele>
        <time>2023-05-22T11:26:35Z</time>
      </trkpt>
      <trkpt lat="43.56308" lon="6.15264">
        <ele>396.6</ele>
      </trkpt>
      <trkpt lat="43.56312" lon="6.1526">
        <ele>395.3</ele>
        <time>2023-05-22T11:26:44Z</time>
      </trkpt>
      <trkpt lat="43.56314" lon="6.15254">
        <ele>394.3</ele>
      </trkpt>
      <trkpt lat="43.56315" lon="6.15247">
        <ele>393.4</ele>
        <time>2023-05-22T11:26:52Z</time>
      </trkpt>
      <trkpt lat="43.56315" lon="6.15235">
        <ele>392.4</ele>
        <time>2023-05-22T11:26:59Z</time>
      </trkpt>
      <trkpt lat="43.56315" lon="6.15224">
        <ele>391.4</ele>
        <time>2023-05-22T11:27:07Z</time>
      </trkpt>
      <trkpt lat="43.56314" lon="6.15218">
        <ele>391.1</ele>
      </trkpt>
      <trkpt lat="43.56312" lon="6.15211">
        <ele>390.8</ele>
        <time>2023-05-22T11:27:16Z</time>
      </trkpt>
      <trkpt lat="43.56309" lon="6.15206">
        <ele>390.6</ele>
      </trkpt>
      <trkpt lat="43.56306" lon="6.152">
        <ele>390.4</ele>
        <time>2023-05-22T11:27:24Z</time>
      </trkpt>
      <trkpt lat="43.5631" lon="6.15198">
        <ele>390</ele>
      </trkpt>
      <trkpt lat="43.56315" lon="6.15195">
        <ele>389.7</ele>
        <time>2023-05-22T11:27:35Z</time>
      </trkpt>
      <trkpt lat="43.5632" lon="6.15197">
        <ele>389.6</ele>
      </trkpt>
      <trkpt lat="43.56326" lon="6.15199">
        <ele>389.5</ele>
        <time>2023-05-22T11:27:45Z</time>
      </trkpt>
      <trkpt lat="43.5633" lon="6.15201">
        <ele>389.4</ele>
      </trkpt>
      <trkpt lat="43.56334" lon="6.15203">
        <ele>389.4</ele>
        <time>2023-05-22T11:27:53Z</time>
      </trkpt>
      <trkpt lat="43.56339" lon="6.15203">
        <ele>389.8</ele>
      </trkpt>
      <trkpt lat="43.56343" lon="6.15203">
        <ele>390.1</ele>
        <time>2023-05-22T11:28:00Z</time>
      </trkpt>
      <trkpt lat="43.5635" lon="6.15204">
        <ele>390.8</ele>
      </trkpt>
      <trkpt lat="43.56357" lon="6.15205">
        <ele>391.4</ele>
        <time>2023-05-22T11:28:08Z</time>
      </trkpt>
      <trkpt lat="43.56363" lon="6.15205">
        <ele>391.7</ele>
      </trkpt>
      <trkpt lat="43.56368" lon="6.15205">
        <ele>391.7</ele>
        <time>2023-05-22T11:28:16Z</time>
      </trkpt>
      <trkpt lat="43.56373" lon="6.15205">
        <ele>391.6</ele>
      </trkpt>
      <trkpt lat="43.56378" lon="6.15206">
        <ele>391.6</ele>
        <time>2023-05-22T11:28:24Z</time>
      </trkpt>
      <trkpt lat="43.56383" lon="6.15207">
        <ele>391.5</ele>
      </trkpt>
      <trkpt lat="43.56388" lon="6.15208">
        <ele>391.5</ele>
        <time>2023-05-22T11:28:32Z</time>
      </trkpt>
      <trkpt lat="43.56393" lon="6.1521">
        <ele>391.3</ele>
      </trkpt>
      <trkpt lat="43.56398" lon="6.15211">
        <ele>391</ele>
        <time>2023-05-22T11:28:39Z</time>
      </trkpt>
      <trkpt lat="43.56406" lon="6.15212">
        <ele>390.4</ele>
        <time>2023-05-22T11:28:46Z</time>
      </trkpt>
      <trkpt lat="43.56415" lon="6.15215">
        <ele>389.9</ele>
        <time>2023-05-22T11:28:54Z</time>
      </trkpt>
      <trkpt lat="43.5642" lon="6.15215">
        <ele>389.6</ele>
      </trkpt>
      <trkpt lat="43.56424" lon="6.15215">
        <ele>389.3</ele>
        <time>2023-05-22T11:29:01Z</time>
      </trkpt>
      <trkpt lat="43.56433" lon="6.15216">
        <ele>388.7</ele>
        <time>2023-05-22T11:29:10Z</time>
      </trkpt>
      <trkpt lat="43.56438" lon="6.15216">
        <ele>388.4</ele>
      </trkpt>
      <trkpt lat="43.56444" lon="6.15215">
        <ele>388</ele>
        <time>2023-05-22T11:29:20Z</time>
      </trkpt>
      <trkpt lat="43.56449" lon="6.15215">
        <ele>388.1</ele>
      </trkpt>
      <trkpt lat="43.56454" lon="6.15215">
        <ele>388.2</ele>
        <time>2023-05-22T11:29:28Z</time>
      </trkpt>
      <trkpt lat="43.56459" lon="6.15214">
        <ele>388.4</ele>
      </trkpt>
      <trkpt lat="43.56464" lon="6.15214">
        <ele>388.5</ele>
        <time>2023-05-22T11:29:35Z</time>
      </trkpt>
      <trkpt lat="43.56468" lon="6.15215">
        <ele>388.6</ele>
      </trkpt>
      <trkpt lat="43.56473" lon="6.15215">
        <ele>388.8</ele>
        <time>2023-05-22T11:29:42Z</time>
      </trkpt>
      <trkpt lat="43.56478" lon="6.15218">
        <ele>389.1</ele>
      </trkpt>
      <trkpt lat="43.56483" lon="6.1522">
        <ele>389.3</ele>
        <time>2023-05-22T11:29:50Z</time>
      </trkpt>
      <trkpt lat="43.56488" lon="6.15223">
        <ele>389.6</ele>
      </trkpt>
      <trkpt lat="43.56494" lon="6.15226">
        <ele>389.7</ele>
        <time>2023-05-22T11:29:58Z</time>
      </trkpt>
      <trkpt lat="43.56497" lon="6.1523">
        <ele>389.7</ele>
      </trkpt>
      <trkpt lat="43.56501" lon="6.15235">
        <ele>389.6</ele>
        <time>2023-05-22T11:30:05Z</time>
      </trkpt>
      <trkpt lat="43.56504" lon="6.15241">
        <ele>389.4</ele>
      </trkpt>
      <trkpt lat="43.56507" lon="6.15246">
        <ele>389.3</ele>
        <time>2023-05-22T11:30:14Z</time>
      </trkpt>
      <trkpt lat="43.5651" lon="6.15252">
        <ele>389.4</ele>
      </trkpt>
      <trkpt lat="43.56512" lon="6.15257">
        <ele>389.6</ele>
        <time>2023-05-22T11:30:22Z</time>
      </trkpt>
      <trkpt lat="43.56515" lon="6.15263">
        <ele>389.8</ele>
      </trkpt>
      <trkpt lat="43.56517" lon="6.15268">
        <ele>390</ele>
        <time>2023-05-22T11:30:30Z</time>
      </trkpt>
      <trkpt lat="43.56521" lon="6.15274">
        <ele>390.4</ele>
      </trkpt>
      <trkpt lat="43.56524" lon="6.1528">
        <ele>390.6</ele>
        <time>2023-05-22T11:30:38Z</time>
      </trkpt>
      <trkpt lat="43.56526" lon="6.15286">
        <ele>390.6</ele>
      </trkpt>
      <trkpt lat="43.56529" lon="6.15292">
        <ele>390.5</ele>
        <time>2023-05-22T11:30:45Z</time>
      </trkpt>
      <trkpt lat="43.56532" lon="6.15298">
        <ele>390.5</ele>
      </trkpt>
      <trkpt lat="43.56535" lon="6.15304">
        <ele>390.5</ele>
        <time>2023-05-22T11:30:53Z</time>
      </trkpt>
      <trkpt lat="43.56538" lon="6.1531">
        <ele>390.9</ele>
      </trkpt>
      <trkpt lat="43.5654" lon="6.15317">
        <ele>391.3</ele>
        <time>2023-05-22T11:31:01Z</time>
      </trkpt>
      <trkpt lat="43.56543" lon="6.15322">
        <ele>391.6</ele>
      </trkpt>
      <trkpt lat="43.56546" lon="6.15328">
        <ele>391.9</ele>
        <time>2023-05-22T11:31:09Z</time>
      </trkpt>
      <trkpt lat="43.56549" lon="6.15333">
        <ele>392</ele>
      </trkpt>
      <trkpt lat="43.56551" lon="6.15338">
        <ele>392.2</ele>
        <time>2023-05-22T11:31:16Z</time>
      </trkpt>
      <trkpt lat="43.56557" lon="6.15347">
        <ele>392.5</ele>
        <time>2023-05-22T11:31:23Z</time>
      </trkpt>
      <trkpt lat="43.56561" lon="6.15351">
        <ele>392.6</ele>
      </trkpt>
      <trkpt lat="43.56565" lon="6.15356">
        <ele>392.8</ele>
        <time>2023-05-22T11:31:30Z</time>
      </trkpt>
      <trkpt lat="43.56571" lon="6.15362">
        <ele>393</ele>
        <time>2023-05-22T11:31:38Z</time>
      </trkpt>
      <trkpt lat="43.56578" lon="6.15369">
        <ele>393.1</ele>
        <time>2023-05-22T11:31:46Z</time>
      </trkpt>
      <trkpt lat="43.56586" lon="6.15374">
        <ele>393</ele>
        <time>2023-05-22T11:31:53Z</time>
      </trkpt>
      <trkpt lat="43.56591" lon="6.15378">
        <ele>393.2</ele>
      </trkpt>
      <trkpt lat="43.56595" lon="6.15381">
        <ele>393.3</ele>
        <time>2023-05-22T11:32:01Z</time>
      </trkpt>
      <trkpt lat="43.566" lon="6.15384">
        <ele>393.5</ele>
      </trkpt>
      <trkpt lat="43.56604" lon="6.15388">
        <ele>393.7</ele>
        <time>2023-05-22T11:32:09Z</time>
      </trkpt>
      <trkpt lat="43.56609" lon="6.15392">
        <ele>393.8</ele>
      </trkpt>
      <trkpt lat="43.56613" lon="6.15396">
        <ele>393.8</ele>
        <time>2023-05-22T11:32:17Z</time>
      </trkpt>
      <trkpt lat="43.56616" lon="6.154">
        <ele>393.7</ele>
      </trkpt>
      <trkpt lat="43.5662" lon="6.15404">
        <ele>393.6</ele>
        <time>2023-05-22T11:32:25Z</time>
      </trkpt>
      <trkpt lat="43.56624" lon="6.15409">
        <ele>393.6</ele>
      </trkpt>
      <trkpt lat="43.56628" lon="6.15414">
        <ele>393.6</ele>
        <time>2023-05-22T11:32:33Z</time>
      </trkpt>
      <trkpt lat="43.56632" lon="6.15419">
        <ele>393.8</ele>
      </trkpt>
      <trkpt lat="43.56636" lon="6.15425">
        <ele>394</ele>
        <time>2023-05-22T11:32:41Z</time>
      </trkpt>
      <trkpt lat="43.56639" lon="6.1543">
        <ele>394</ele>
      </trkpt>
      <trkpt lat="43.56643" lon="6.15434">
        <ele>394.1</ele>
        <time>2023-05-22T11:32:49Z</time>
      </trkpt>
      <trkpt lat="43.56647" lon="6.15439">
        <ele>394.2</ele>
      </trkpt>
      <trkpt lat="43.56651" lon="6.15443">
        <ele>394.4</ele>
        <time>2023-05-22T11:32:56Z</time>
      </trkpt>
      <trkpt lat="43.56656" lon="6.15445">
        <ele>394.6</ele>
      </trkpt>
      <trkpt lat="43.5666" lon="6.15447">
        <ele>394.8</ele>
        <time>2023-05-22T11:33:04Z</time>
      </trkpt>
      <trkpt lat="43.56665" lon="6.15448">
        <ele>395</ele>
      </trkpt>
      <trkpt lat="43.5667" lon="6.1545">
        <ele>395</ele>
        <time>2023-05-22T11:33:12Z</time>
      </trkpt>
      <trkpt lat="43.56675" lon="6.15451">
        <ele>395</ele>
      </trkpt>
      <trkpt lat="43.56681" lon="6.15452">
        <ele>395</ele>
        <time>2023-05-22T11:33:19Z</time>
      </trkpt>
      <trkpt lat="43.5669" lon="6.15452">
        <ele>395</ele>
        <time>2023-05-22T11:33:26Z</time>
      </trkpt>
      <trkpt lat="43.56694" lon="6.15453">
        <ele>395</ele>
      </trkpt>
      <trkpt lat="43.56699" lon="6.15454">
        <ele>395.2</ele>
        <time>2023-05-22T11:33:33Z</time>
      </trkpt>
      <trkpt lat="43.56707" lon="6.15454">
        <ele>395.4</ele>
        <time>2023-05-22T11:33:40Z</time>
      </trkpt>
      <trkpt lat="43.56711" lon="6.15453">
        <ele>395.6</ele>
      </trkpt>
      <trkpt lat="43.56716" lon="6.15451">
        <ele>395.8</ele>
        <time>2023-05-22T11:33:47Z</time>
      </trkpt>
      <trkpt lat="43.5672" lon="6.15449">
        <ele>395.9</ele>
      </trkpt>
      <trkpt lat="43.56724" lon="6.15447">
        <ele>396.1</ele>
        <time>2023-05-22T11:33:55Z</time>
      </trkpt>
      <trkpt lat="43.56728" lon="6.1544">
        <ele>396.2</ele>
      </trkpt>
      <trkpt lat="43.56732" lon="6.15432">
        <ele>396.3</ele>
        <time>2023-05-22T11:34:04Z</time>
      </trkpt>
      <trkpt lat="43.56735" lon="6.15427">
        <ele>396.5</ele>
      </trkpt>
      <trkpt lat="43.56739" lon="6.15421">
        <ele>396.6</ele>
        <time>2023-05-22T11:34:15Z</time>
      </trkpt>
      <trkpt lat="43.56742" lon="6.15414">
        <ele>396.7</ele>
      </trkpt>
      <trkpt lat="43.56745" lon="6.15407">
        <ele>396.8</ele>
        <time>2023-05-22T11:34:25Z</time>
      </trkpt>
      <trkpt lat="43.56748" lon="6.15403">
        <ele>396.9</ele>
      </trkpt>
      <trkpt lat="43.56752" lon="6.15399">
        <ele>397.2</ele>
        <time>2023-05-22T11:34:37Z</time>
      </trkpt>
      <trkpt lat="43.56758" lon="6.15397">
        <ele>397.6</ele>
      </trkpt>
      <trkpt lat="43.56764" lon="6.15396">
        <ele>398</ele>
        <time>2023-05-22T11:34:50Z</time>
      </trkpt>
    </trkseg>
  </trk>
</gpx>